<?xml version='1.0' encoding='UTF-8'?>
<gpx version="1.1" creator="https://www.komoot.de" xmlns="http://www.topografix.com/GPX/1/1" xmlns:xsi="http://www.w3.org/2001/XMLSchema-instance" xsi:schemaLocation="http://www.topografix.com/GPX/1/1 http://www.topografix.com/GPX/1/1/gpx.xsd">
  <metadata>
    <name>GPX Download: Die Vegesack-Runde</name>
    <author>
      <link href="https://www.komoot.de">
        <text>komoot</text>
        <type>text/html</type>
      </link>
    </author>
  </metadata>
  <wpt lat="53.076992" lon="8.814419">
    <name>Stadtgraben der Bremer Wallanlagen</name>
    <sym>Flag, Blue</sym>
  </wpt>
  <wpt lat="53.077782" lon="8.782651">
    <name>Hohentorshafen, Bremen</name>
    <sym>Flag, Blue</sym>
  </wpt>
  <wpt lat="53.097388" lon="8.752148">
    <name>Rablinghauser Strand</name>
    <sym>Flag, Blue</sym>
  </wpt>
  <wpt lat="53.108620" lon="8.740156">
    <name>Lankenauer Höft – Aussichtspunkt und Strand</name>
    <sym>Flag, Blue</sym>
  </wpt>
  <wpt lat="53.127958" lon="8.644038">
    <name>Weser-Radweg bei Bremen</name>
    <sym>Flag, Blue</sym>
  </wpt>
  <wpt lat="53.160160" lon="8.623430">
    <name>Weserside Gallery</name>
    <sym>Flag, Blue</sym>
  </wpt>
  <wpt lat="53.166014" lon="8.618265">
    <name>Fähre Lemwerder–Vegesack</name>
    <sym>Bridge</sym>
  </wpt>
  <wpt lat="53.157948" lon="8.699892">
    <name>Weg entlang der Lesum</name>
    <sym>Flag, Blue</sym>
  </wpt>
  <wpt lat="53.159738" lon="8.769243">
    <name>Untere Wümme am Wummensieder Siel</name>
    <sym>Flag, Blue</sym>
  </wpt>
  <wpt lat="53.087100" lon="8.819288">
    <name>Hollersee und Parkhotel Bremen</name>
    <sym>Flag, Blue</sym>
  </wpt>
  <trk>
    <name>GPX Download: Die Vegesack-Runde</name>
    <trkseg>
      <trkpt lat="53.099426" lon="8.887200">
        <ele>5.397560</ele>
        <time>2026-03-20T11:27:11.732Z</time>
      </trkpt>
      <trkpt lat="53.099356" lon="8.887015">
        <ele>5.397560</ele>
        <time>2026-03-20T11:27:14.634Z</time>
      </trkpt>
      <trkpt lat="53.099467" lon="8.886673">
        <ele>5.397560</ele>
        <time>2026-03-20T11:27:20.064Z</time>
      </trkpt>
      <trkpt lat="53.099493" lon="8.886593">
        <ele>5.397560</ele>
        <time>2026-03-20T11:27:21.313Z</time>
      </trkpt>
      <trkpt lat="53.099683" lon="8.886010">
        <ele>5.397560</ele>
        <time>2026-03-20T11:27:30.803Z</time>
      </trkpt>
      <trkpt lat="53.099723" lon="8.885887">
        <ele>5.397902</ele>
        <time>2026-03-20T11:27:32.780Z</time>
      </trkpt>
      <trkpt lat="53.099820" lon="8.885586">
        <ele>5.428353</ele>
        <time>2026-03-20T11:27:37.759Z</time>
      </trkpt>
      <trkpt lat="53.099930" lon="8.885243">
        <ele>5.463016</ele>
        <time>2026-03-20T11:27:43.359Z</time>
      </trkpt>
      <trkpt lat="53.100135" lon="8.884581">
        <ele>5.529411</ele>
        <time>2026-03-20T11:27:53.655Z</time>
      </trkpt>
      <trkpt lat="53.100187" lon="8.884418">
        <ele>5.545865</ele>
        <time>2026-03-20T11:27:56.196Z</time>
      </trkpt>
      <trkpt lat="53.100233" lon="8.884272">
        <ele>5.560562</ele>
        <time>2026-03-20T11:27:58.516Z</time>
      </trkpt>
      <trkpt lat="53.100527" lon="8.883407">
        <ele>5.649163</ele>
        <time>2026-03-20T11:28:13.441Z</time>
      </trkpt>
      <trkpt lat="53.100607" lon="8.883193">
        <ele>5.631572</ele>
        <time>2026-03-20T11:28:17.288Z</time>
      </trkpt>
      <trkpt lat="53.100646" lon="8.883089">
        <ele>5.580353</ele>
        <time>2026-03-20T11:28:19.126Z</time>
      </trkpt>
      <trkpt lat="53.100684" lon="8.882987">
        <ele>5.530211</ele>
        <time>2026-03-20T11:28:20.903Z</time>
      </trkpt>
      <trkpt lat="53.100847" lon="8.882554">
        <ele>5.316732</ele>
        <time>2026-03-20T11:28:27.932Z</time>
      </trkpt>
      <trkpt lat="53.100893" lon="8.882430">
        <ele>5.255848</ele>
        <time>2026-03-20T11:28:29.790Z</time>
      </trkpt>
      <trkpt lat="53.100916" lon="8.882369">
        <ele>5.225760</ele>
        <time>2026-03-20T11:28:30.707Z</time>
      </trkpt>
      <trkpt lat="53.101067" lon="8.881965">
        <ele>5.026979</ele>
        <time>2026-03-20T11:28:36.363Z</time>
      </trkpt>
      <trkpt lat="53.101202" lon="8.881633">
        <ele>4.859490</ele>
        <time>2026-03-20T11:28:40.941Z</time>
      </trkpt>
      <trkpt lat="53.101257" lon="8.881490">
        <ele>4.788553</ele>
        <time>2026-03-20T11:28:42.985Z</time>
      </trkpt>
      <trkpt lat="53.101436" lon="8.881104">
        <ele>4.584827</ele>
        <time>2026-03-20T11:28:49.006Z</time>
      </trkpt>
      <trkpt lat="53.101611" lon="8.880805">
        <ele>4.411960</ele>
        <time>2026-03-20T11:28:53.988Z</time>
      </trkpt>
      <trkpt lat="53.101685" lon="8.880687">
        <ele>4.379457</ele>
        <time>2026-03-20T11:28:56.046Z</time>
      </trkpt>
      <trkpt lat="53.101754" lon="8.880548">
        <ele>4.345102</ele>
        <time>2026-03-20T11:28:58.195Z</time>
      </trkpt>
      <trkpt lat="53.101812" lon="8.880427">
        <ele>4.315608</ele>
        <time>2026-03-20T11:29:00.005Z</time>
      </trkpt>
      <trkpt lat="53.101751" lon="8.880280">
        <ele>4.281570</ele>
        <time>2026-03-20T11:29:02.157Z</time>
      </trkpt>
      <trkpt lat="53.101617" lon="8.879845">
        <ele>4.188439</ele>
        <time>2026-03-20T11:29:08.174Z</time>
      </trkpt>
      <trkpt lat="53.101502" lon="8.879452">
        <ele>4.105160</ele>
        <time>2026-03-20T11:29:13.906Z</time>
      </trkpt>
      <trkpt lat="53.101436" lon="8.879002">
        <ele>4.016921</ele>
        <time>2026-03-20T11:29:20.341Z</time>
      </trkpt>
      <trkpt lat="53.101430" lon="8.878532">
        <ele>3.927372</ele>
        <time>2026-03-20T11:29:27.459Z</time>
      </trkpt>
      <trkpt lat="53.101427" lon="8.877890">
        <ele>3.850284</ele>
        <time>2026-03-20T11:29:37.057Z</time>
      </trkpt>
      <trkpt lat="53.101421" lon="8.877351">
        <ele>3.871277</ele>
        <time>2026-03-20T11:29:45.169Z</time>
      </trkpt>
      <trkpt lat="53.101420" lon="8.876628">
        <ele>3.899431</ele>
        <time>2026-03-20T11:29:55.860Z</time>
      </trkpt>
      <trkpt lat="53.101420" lon="8.875725">
        <ele>3.934594</ele>
        <time>2026-03-20T11:30:07.561Z</time>
      </trkpt>
      <trkpt lat="53.101420" lon="8.875557">
        <ele>3.941136</ele>
        <time>2026-03-20T11:30:09.751Z</time>
      </trkpt>
      <trkpt lat="53.101420" lon="8.875333">
        <ele>3.949859</ele>
        <time>2026-03-20T11:30:12.732Z</time>
      </trkpt>
      <trkpt lat="53.101434" lon="8.874867">
        <ele>3.970983</ele>
        <time>2026-03-20T11:30:19.190Z</time>
      </trkpt>
      <trkpt lat="53.101444" lon="8.874320">
        <ele>3.999482</ele>
        <time>2026-03-20T11:30:26.974Z</time>
      </trkpt>
      <trkpt lat="53.101427" lon="8.873944">
        <ele>4.019118</ele>
        <time>2026-03-20T11:30:32.244Z</time>
      </trkpt>
      <trkpt lat="53.101384" lon="8.873777">
        <ele>4.028581</ele>
        <time>2026-03-20T11:30:34.765Z</time>
      </trkpt>
      <trkpt lat="53.101297" lon="8.873569">
        <ele>4.041782</ele>
        <time>2026-03-20T11:30:38.198Z</time>
      </trkpt>
      <trkpt lat="53.100470" lon="8.872744">
        <ele>4.145507</ele>
        <time>2026-03-20T11:31:01.559Z</time>
      </trkpt>
      <trkpt lat="53.099477" lon="8.871810">
        <ele>4.440972</ele>
        <time>2026-03-20T11:31:29.641Z</time>
      </trkpt>
      <trkpt lat="53.099448" lon="8.871781">
        <ele>4.449736</ele>
        <time>2026-03-20T11:31:30.448Z</time>
      </trkpt>
      <trkpt lat="53.098463" lon="8.870816">
        <ele>4.500682</ele>
        <time>2026-03-20T11:31:57.205Z</time>
      </trkpt>
      <trkpt lat="53.098554" lon="8.869791">
        <ele>4.421725</ele>
        <time>2026-03-20T11:32:11.155Z</time>
      </trkpt>
      <trkpt lat="53.098806" lon="8.867309">
        <ele>4.146156</ele>
        <time>2026-03-20T11:32:44.597Z</time>
      </trkpt>
      <trkpt lat="53.098940" lon="8.865874">
        <ele>3.959096</ele>
        <time>2026-03-20T11:33:04.396Z</time>
      </trkpt>
      <trkpt lat="53.099102" lon="8.864173">
        <ele>3.712119</ele>
        <time>2026-03-20T11:33:27.411Z</time>
      </trkpt>
      <trkpt lat="53.099227" lon="8.862951">
        <ele>3.544235</ele>
        <time>2026-03-20T11:33:43.867Z</time>
      </trkpt>
      <trkpt lat="53.099264" lon="8.862590">
        <ele>3.585681</ele>
        <time>2026-03-20T11:33:48.733Z</time>
      </trkpt>
      <trkpt lat="53.099366" lon="8.861538">
        <ele>3.706281</ele>
        <time>2026-03-20T11:34:03.781Z</time>
      </trkpt>
      <trkpt lat="53.099177" lon="8.861850">
        <ele>3.756439</ele>
        <time>2026-03-20T11:34:10.283Z</time>
      </trkpt>
      <trkpt lat="53.099092" lon="8.862066">
        <ele>3.785666</ele>
        <time>2026-03-20T11:34:14.123Z</time>
      </trkpt>
      <trkpt lat="53.099054" lon="8.861959">
        <ele>3.799736</ele>
        <time>2026-03-20T11:34:15.953Z</time>
      </trkpt>
      <trkpt lat="53.099010" lon="8.861759">
        <ele>3.823842</ele>
        <time>2026-03-20T11:34:20.905Z</time>
      </trkpt>
      <trkpt lat="53.098993" lon="8.861713">
        <ele>3.829955</ele>
        <time>2026-03-20T11:34:21.700Z</time>
      </trkpt>
      <trkpt lat="53.098956" lon="8.861689">
        <ele>3.837439</ele>
        <time>2026-03-20T11:34:22.620Z</time>
      </trkpt>
      <trkpt lat="53.098899" lon="8.861648">
        <ele>3.849142</ele>
        <time>2026-03-20T11:34:24.120Z</time>
      </trkpt>
      <trkpt lat="53.098777" lon="8.861611">
        <ele>3.872515</ele>
        <time>2026-03-20T11:34:27.086Z</time>
      </trkpt>
      <trkpt lat="53.098646" lon="8.861503">
        <ele>3.906045</ele>
        <time>2026-03-20T11:34:30.605Z</time>
      </trkpt>
      <trkpt lat="53.098433" lon="8.861258">
        <ele>3.968616</ele>
        <time>2026-03-20T11:34:36.841Z</time>
      </trkpt>
      <trkpt lat="53.098280" lon="8.860990">
        <ele>4.022287</ele>
        <time>2026-03-20T11:34:42.170Z</time>
      </trkpt>
      <trkpt lat="53.098089" lon="8.860877">
        <ele>4.071280</ele>
        <time>2026-03-20T11:34:47.114Z</time>
      </trkpt>
      <trkpt lat="53.098088" lon="8.859672">
        <ele>4.246169</ele>
        <time>2026-03-20T11:35:03.648Z</time>
      </trkpt>
      <trkpt lat="53.098028" lon="8.858970">
        <ele>4.281906</ele>
        <time>2026-03-20T11:35:13.031Z</time>
      </trkpt>
      <trkpt lat="53.097849" lon="8.857534">
        <ele>4.091179</ele>
        <time>2026-03-20T11:35:32.263Z</time>
      </trkpt>
      <trkpt lat="53.097708" lon="8.856740">
        <ele>3.983502</ele>
        <time>2026-03-20T11:35:42.755Z</time>
      </trkpt>
      <trkpt lat="53.097505" lon="8.855805">
        <ele>3.801586</ele>
        <time>2026-03-20T11:35:54.940Z</time>
      </trkpt>
      <trkpt lat="53.096875" lon="8.854346">
        <ele>3.391947</ele>
        <time>2026-03-20T11:36:17.102Z</time>
      </trkpt>
      <trkpt lat="53.096649" lon="8.853794">
        <ele>3.243364</ele>
        <time>2026-03-20T11:36:25.660Z</time>
      </trkpt>
      <trkpt lat="53.096673" lon="8.853746">
        <ele>3.261228</ele>
        <time>2026-03-20T11:36:26.470Z</time>
      </trkpt>
      <trkpt lat="53.096687" lon="8.853718">
        <ele>3.271648</ele>
        <time>2026-03-20T11:36:26.955Z</time>
      </trkpt>
      <trkpt lat="53.096705" lon="8.853681">
        <ele>3.285267</ele>
        <time>2026-03-20T11:36:27.601Z</time>
      </trkpt>
      <trkpt lat="53.096721" lon="8.853650">
        <ele>3.296958</ele>
        <time>2026-03-20T11:36:28.159Z</time>
      </trkpt>
      <trkpt lat="53.096754" lon="8.853584">
        <ele>3.321521</ele>
        <time>2026-03-20T11:36:29.326Z</time>
      </trkpt>
      <trkpt lat="53.096320" lon="8.852657">
        <ele>3.657699</ele>
        <time>2026-03-20T11:36:46.290Z</time>
      </trkpt>
      <trkpt lat="53.095746" lon="8.851551">
        <ele>4.075786</ele>
        <time>2026-03-20T11:37:08.345Z</time>
      </trkpt>
      <trkpt lat="53.095310" lon="8.850832">
        <ele>4.416985</ele>
        <time>2026-03-20T11:37:23.514Z</time>
      </trkpt>
      <trkpt lat="53.095187" lon="8.850632">
        <ele>4.513704</ele>
        <time>2026-03-20T11:37:27.878Z</time>
      </trkpt>
      <trkpt lat="53.094876" lon="8.850143">
        <ele>4.754346</ele>
        <time>2026-03-20T11:37:38.767Z</time>
      </trkpt>
      <trkpt lat="53.094760" lon="8.849960">
        <ele>4.844245</ele>
        <time>2026-03-20T11:37:42.820Z</time>
      </trkpt>
      <trkpt lat="53.094653" lon="8.849789">
        <ele>4.927682</ele>
        <time>2026-03-20T11:37:46.443Z</time>
      </trkpt>
      <trkpt lat="53.094152" lon="8.848967">
        <ele>5.198058</ele>
        <time>2026-03-20T11:38:03.359Z</time>
      </trkpt>
      <trkpt lat="53.093949" lon="8.848636">
        <ele>5.264060</ele>
        <time>2026-03-20T11:38:10.033Z</time>
      </trkpt>
      <trkpt lat="53.093763" lon="8.848336">
        <ele>5.324215</ele>
        <time>2026-03-20T11:38:16.070Z</time>
      </trkpt>
      <trkpt lat="53.093564" lon="8.848018">
        <ele>5.388288</ele>
        <time>2026-03-20T11:38:22.268Z</time>
      </trkpt>
      <trkpt lat="53.093407" lon="8.847767">
        <ele>5.438848</ele>
        <time>2026-03-20T11:38:27.086Z</time>
      </trkpt>
      <trkpt lat="53.093270" lon="8.847546">
        <ele>5.483160</ele>
        <time>2026-03-20T11:38:31.403Z</time>
      </trkpt>
      <trkpt lat="53.092974" lon="8.847098">
        <ele>5.598850</ele>
        <time>2026-03-20T11:38:40.572Z</time>
      </trkpt>
      <trkpt lat="53.092749" lon="8.846820">
        <ele>5.694604</ele>
        <time>2026-03-20T11:38:46.991Z</time>
      </trkpt>
      <trkpt lat="53.092663" lon="8.846719">
        <ele>5.730571</ele>
        <time>2026-03-20T11:38:49.415Z</time>
      </trkpt>
      <trkpt lat="53.092299" lon="8.846342">
        <ele>5.877076</ele>
        <time>2026-03-20T11:38:59.282Z</time>
      </trkpt>
      <trkpt lat="53.092258" lon="8.846304">
        <ele>5.893113</ele>
        <time>2026-03-20T11:39:00.371Z</time>
      </trkpt>
      <trkpt lat="53.092075" lon="8.846140">
        <ele>5.964140</ele>
        <time>2026-03-20T11:39:05.405Z</time>
      </trkpt>
      <trkpt lat="53.091706" lon="8.845829">
        <ele>6.105488</ele>
        <time>2026-03-20T11:39:15.831Z</time>
      </trkpt>
      <trkpt lat="53.091572" lon="8.845722">
        <ele>6.156771</ele>
        <time>2026-03-20T11:39:19.598Z</time>
      </trkpt>
      <trkpt lat="53.091493" lon="8.845664">
        <ele>6.187334</ele>
        <time>2026-03-20T11:39:21.734Z</time>
      </trkpt>
      <trkpt lat="53.091397" lon="8.845594">
        <ele>6.224431</ele>
        <time>2026-03-20T11:39:24.306Z</time>
      </trkpt>
      <trkpt lat="53.091214" lon="8.845459">
        <ele>6.295282</ele>
        <time>2026-03-20T11:39:29.115Z</time>
      </trkpt>
      <trkpt lat="53.091088" lon="8.845356">
        <ele>6.344969</ele>
        <time>2026-03-20T11:39:32.487Z</time>
      </trkpt>
      <trkpt lat="53.090974" lon="8.845237">
        <ele>6.392597</ele>
        <time>2026-03-20T11:39:35.684Z</time>
      </trkpt>
      <trkpt lat="53.090474" lon="8.844703">
        <ele>6.602865</ele>
        <time>2026-03-20T11:39:49.837Z</time>
      </trkpt>
      <trkpt lat="53.089994" lon="8.844108">
        <ele>6.758990</ele>
        <time>2026-03-20T11:40:03.557Z</time>
      </trkpt>
      <trkpt lat="53.089546" lon="8.843473">
        <ele>6.640577</ele>
        <time>2026-03-20T11:40:15.857Z</time>
      </trkpt>
      <trkpt lat="53.089252" lon="8.843039">
        <ele>6.561498</ele>
        <time>2026-03-20T11:40:24.184Z</time>
      </trkpt>
      <trkpt lat="53.088893" lon="8.842434">
        <ele>6.458694</ele>
        <time>2026-03-20T11:40:35.426Z</time>
      </trkpt>
      <trkpt lat="53.088809" lon="8.842302">
        <ele>6.435447</ele>
        <time>2026-03-20T11:40:37.979Z</time>
      </trkpt>
      <trkpt lat="53.088765" lon="8.842223">
        <ele>6.422424</ele>
        <time>2026-03-20T11:40:39.822Z</time>
      </trkpt>
      <trkpt lat="53.088684" lon="8.842433">
        <ele>6.441200</ele>
        <time>2026-03-20T11:40:43.133Z</time>
      </trkpt>
      <trkpt lat="53.088662" lon="8.842383">
        <ele>6.448425</ele>
        <time>2026-03-20T11:40:43.926Z</time>
      </trkpt>
      <trkpt lat="53.088562" lon="8.842083">
        <ele>6.488422</ele>
        <time>2026-03-20T11:40:48.385Z</time>
      </trkpt>
      <trkpt lat="53.088225" lon="8.840854">
        <ele>6.645915</ele>
        <time>2026-03-20T11:41:07.347Z</time>
      </trkpt>
      <trkpt lat="53.087665" lon="8.838697">
        <ele>7.006531</ele>
        <time>2026-03-20T11:41:41.070Z</time>
      </trkpt>
      <trkpt lat="53.087636" lon="8.838586">
        <ele>7.028607</ele>
        <time>2026-03-20T11:41:42.848Z</time>
      </trkpt>
      <trkpt lat="53.087547" lon="8.838229">
        <ele>7.099101</ele>
        <time>2026-03-20T11:41:48.435Z</time>
      </trkpt>
      <trkpt lat="53.087438" lon="8.837787">
        <ele>7.186241</ele>
        <time>2026-03-20T11:41:55.245Z</time>
      </trkpt>
      <trkpt lat="53.087336" lon="8.837358">
        <ele>7.270388</ele>
        <time>2026-03-20T11:42:01.646Z</time>
      </trkpt>
      <trkpt lat="53.087263" lon="8.837058">
        <ele>7.311190</ele>
        <time>2026-03-20T11:42:06.030Z</time>
      </trkpt>
      <trkpt lat="53.087175" lon="8.836735">
        <ele>7.306364</ele>
        <time>2026-03-20T11:42:10.689Z</time>
      </trkpt>
      <trkpt lat="53.087101" lon="8.836420">
        <ele>7.301762</ele>
        <time>2026-03-20T11:42:15.013Z</time>
      </trkpt>
      <trkpt lat="53.086988" lon="8.835925">
        <ele>7.294556</ele>
        <time>2026-03-20T11:42:21.926Z</time>
      </trkpt>
      <trkpt lat="53.086846" lon="8.835341">
        <ele>7.285984</ele>
        <time>2026-03-20T11:42:30.261Z</time>
      </trkpt>
      <trkpt lat="53.086767" lon="8.835016">
        <ele>7.281213</ele>
        <time>2026-03-20T11:42:34.810Z</time>
      </trkpt>
      <trkpt lat="53.086747" lon="8.834936">
        <ele>7.280034</ele>
        <time>2026-03-20T11:42:35.957Z</time>
      </trkpt>
      <trkpt lat="53.086677" lon="8.834647">
        <ele>7.275794</ele>
        <time>2026-03-20T11:42:40.164Z</time>
      </trkpt>
      <trkpt lat="53.086553" lon="8.834140">
        <ele>7.266359</ele>
        <time>2026-03-20T11:42:47.650Z</time>
      </trkpt>
      <trkpt lat="53.086488" lon="8.833875">
        <ele>7.260164</ele>
        <time>2026-03-20T11:42:51.505Z</time>
      </trkpt>
      <trkpt lat="53.086401" lon="8.833563">
        <ele>7.252719</ele>
        <time>2026-03-20T11:42:56.071Z</time>
      </trkpt>
      <trkpt lat="53.086405" lon="8.833410">
        <ele>7.249405</ele>
        <time>2026-03-20T11:42:58.118Z</time>
      </trkpt>
      <trkpt lat="53.086410" lon="8.833295">
        <ele>7.246909</ele>
        <time>2026-03-20T11:42:59.629Z</time>
      </trkpt>
      <trkpt lat="53.086304" lon="8.832878">
        <ele>7.237109</ele>
        <time>2026-03-20T11:43:05.751Z</time>
      </trkpt>
      <trkpt lat="53.085950" lon="8.831563">
        <ele>7.208607</ele>
        <time>2026-03-20T11:43:24.691Z</time>
      </trkpt>
      <trkpt lat="53.085673" lon="8.830472">
        <ele>7.253734</ele>
        <time>2026-03-20T11:43:40.950Z</time>
      </trkpt>
      <trkpt lat="53.085655" lon="8.830403">
        <ele>7.256600</ele>
        <time>2026-03-20T11:43:41.977Z</time>
      </trkpt>
      <trkpt lat="53.085368" lon="8.829218">
        <ele>7.305281</ele>
        <time>2026-03-20T11:43:59.782Z</time>
      </trkpt>
      <trkpt lat="53.085149" lon="8.828338">
        <ele>7.139187</ele>
        <time>2026-03-20T11:44:12.977Z</time>
      </trkpt>
      <trkpt lat="53.085053" lon="8.827951">
        <ele>6.998295</ele>
        <time>2026-03-20T11:44:18.203Z</time>
      </trkpt>
      <trkpt lat="53.084831" lon="8.827038">
        <ele>6.666854</ele>
        <time>2026-03-20T11:44:29.543Z</time>
      </trkpt>
      <trkpt lat="53.084667" lon="8.826312">
        <ele>6.405850</ele>
        <time>2026-03-20T11:44:38.389Z</time>
      </trkpt>
      <trkpt lat="53.084662" lon="8.826215">
        <ele>6.373090</ele>
        <time>2026-03-20T11:44:39.597Z</time>
      </trkpt>
      <trkpt lat="53.084660" lon="8.826180">
        <ele>6.361259</ele>
        <time>2026-03-20T11:44:40.023Z</time>
      </trkpt>
      <trkpt lat="53.084697" lon="8.826024">
        <ele>6.321342</ele>
        <time>2026-03-20T11:44:42.892Z</time>
      </trkpt>
      <trkpt lat="53.084677" lon="8.825899">
        <ele>6.362430</ele>
        <time>2026-03-20T11:44:44.951Z</time>
      </trkpt>
      <trkpt lat="53.084656" lon="8.825803">
        <ele>6.394882</ele>
        <time>2026-03-20T11:44:46.858Z</time>
      </trkpt>
      <trkpt lat="53.084572" lon="8.825472">
        <ele>6.509016</ele>
        <time>2026-03-20T11:44:53.190Z</time>
      </trkpt>
      <trkpt lat="53.084548" lon="8.825452">
        <ele>6.523209</ele>
        <time>2026-03-20T11:44:53.963Z</time>
      </trkpt>
      <trkpt lat="53.084506" lon="8.825271">
        <ele>6.584841</ele>
        <time>2026-03-20T11:44:57.483Z</time>
      </trkpt>
      <trkpt lat="53.084493" lon="8.825195">
        <ele>6.609941</ele>
        <time>2026-03-20T11:44:58.574Z</time>
      </trkpt>
      <trkpt lat="53.084532" lon="8.825154">
        <ele>6.634332</ele>
        <time>2026-03-20T11:44:59.766Z</time>
      </trkpt>
      <trkpt lat="53.084591" lon="8.825044">
        <ele>6.681175</ele>
        <time>2026-03-20T11:45:01.750Z</time>
      </trkpt>
      <trkpt lat="53.084596" lon="8.825032">
        <ele>6.685813</ele>
        <time>2026-03-20T11:45:01.950Z</time>
      </trkpt>
      <trkpt lat="53.084624" lon="8.824908">
        <ele>6.727891</ele>
        <time>2026-03-20T11:45:03.979Z</time>
      </trkpt>
      <trkpt lat="53.084621" lon="8.824710">
        <ele>6.790801</ele>
        <time>2026-03-20T11:45:06.949Z</time>
      </trkpt>
      <trkpt lat="53.084535" lon="8.824490">
        <ele>6.874176</ele>
        <time>2026-03-20T11:45:11.016Z</time>
      </trkpt>
      <trkpt lat="53.084470" lon="8.824427">
        <ele>6.913949</ele>
        <time>2026-03-20T11:45:12.904Z</time>
      </trkpt>
      <trkpt lat="53.084425" lon="8.824405">
        <ele>6.938751</ele>
        <time>2026-03-20T11:45:14.133Z</time>
      </trkpt>
      <trkpt lat="53.084409" lon="8.824279">
        <ele>6.979657</ele>
        <time>2026-03-20T11:45:16.240Z</time>
      </trkpt>
      <trkpt lat="53.084396" lon="8.824206">
        <ele>7.003842</ele>
        <time>2026-03-20T11:45:17.436Z</time>
      </trkpt>
      <trkpt lat="53.084376" lon="8.824087">
        <ele>7.043092</ele>
        <time>2026-03-20T11:45:19.596Z</time>
      </trkpt>
      <trkpt lat="53.084361" lon="8.822894">
        <ele>7.332264</ele>
        <time>2026-03-20T11:45:40.327Z</time>
      </trkpt>
      <trkpt lat="53.084285" lon="8.821691">
        <ele>7.497484</ele>
        <time>2026-03-20T11:45:57.446Z</time>
      </trkpt>
      <trkpt lat="53.084139" lon="8.820364">
        <ele>7.655776</ele>
        <time>2026-03-20T11:46:15.531Z</time>
      </trkpt>
      <trkpt lat="53.084111" lon="8.820155">
        <ele>7.592977</ele>
        <time>2026-03-20T11:46:18.618Z</time>
      </trkpt>
      <trkpt lat="53.084090" lon="8.820027">
        <ele>7.554064</ele>
        <time>2026-03-20T11:46:20.301Z</time>
      </trkpt>
      <trkpt lat="53.083818" lon="8.818455">
        <ele>7.074298</ele>
        <time>2026-03-20T11:46:41.005Z</time>
      </trkpt>
      <trkpt lat="53.083758" lon="8.818057">
        <ele>6.953956</ele>
        <time>2026-03-20T11:46:46.422Z</time>
      </trkpt>
      <trkpt lat="53.083734" lon="8.817897">
        <ele>6.905592</ele>
        <time>2026-03-20T11:46:48.685Z</time>
      </trkpt>
      <trkpt lat="53.083658" lon="8.817593">
        <ele>6.809023</ele>
        <time>2026-03-20T11:46:53.013Z</time>
      </trkpt>
      <trkpt lat="53.083529" lon="8.817190">
        <ele>6.876956</ele>
        <time>2026-03-20T11:46:58.931Z</time>
      </trkpt>
      <trkpt lat="53.084001" lon="8.816725">
        <ele>7.058881</ele>
        <time>2026-03-20T11:47:10.461Z</time>
      </trkpt>
      <trkpt lat="53.084111" lon="8.816585">
        <ele>7.104810</ele>
        <time>2026-03-20T11:47:13.898Z</time>
      </trkpt>
      <trkpt lat="53.084001" lon="8.816725">
        <ele>7.150738</ele>
        <time>2026-03-20T11:47:17.569Z</time>
      </trkpt>
      <trkpt lat="53.083529" lon="8.817190">
        <ele>7.332663</ele>
        <time>2026-03-20T11:47:32.983Z</time>
      </trkpt>
      <trkpt lat="53.083500" lon="8.817220">
        <ele>7.343989</ele>
        <time>2026-03-20T11:47:33.898Z</time>
      </trkpt>
      <trkpt lat="53.083466" lon="8.817255">
        <ele>7.357249</ele>
        <time>2026-03-20T11:47:34.954Z</time>
      </trkpt>
      <trkpt lat="53.083428" lon="8.817295">
        <ele>7.372162</ele>
        <time>2026-03-20T11:47:36.183Z</time>
      </trkpt>
      <trkpt lat="53.083406" lon="8.817318">
        <ele>7.380779</ele>
        <time>2026-03-20T11:47:36.888Z</time>
      </trkpt>
      <trkpt lat="53.083013" lon="8.817915">
        <ele>7.607957</ele>
        <time>2026-03-20T11:47:50.954Z</time>
      </trkpt>
      <trkpt lat="53.082972" lon="8.817973">
        <ele>7.631277</ele>
        <time>2026-03-20T11:47:52.392Z</time>
      </trkpt>
      <trkpt lat="53.082915" lon="8.818073">
        <ele>7.667169</ele>
        <time>2026-03-20T11:47:54.623Z</time>
      </trkpt>
      <trkpt lat="53.082697" lon="8.818490">
        <ele>7.811097</ele>
        <time>2026-03-20T11:48:03.319Z</time>
      </trkpt>
      <trkpt lat="53.082607" lon="8.818656">
        <ele>7.869317</ele>
        <time>2026-03-20T11:48:06.801Z</time>
      </trkpt>
      <trkpt lat="53.082263" lon="8.819431">
        <ele>8.120206</ele>
        <time>2026-03-20T11:48:19.338Z</time>
      </trkpt>
      <trkpt lat="53.081929" lon="8.820177">
        <ele>8.035637</ele>
        <time>2026-03-20T11:48:30.241Z</time>
      </trkpt>
      <trkpt lat="53.081596" lon="8.820924">
        <ele>7.863239</ele>
        <time>2026-03-20T11:48:41.380Z</time>
      </trkpt>
      <trkpt lat="53.081363" lon="8.820648">
        <ele>7.775010</ele>
        <time>2026-03-20T11:48:47.092Z</time>
      </trkpt>
      <trkpt lat="53.081326" lon="8.820605">
        <ele>7.761088</ele>
        <time>2026-03-20T11:48:48.015Z</time>
      </trkpt>
      <trkpt lat="53.080967" lon="8.820099">
        <ele>7.618559</ele>
        <time>2026-03-20T11:48:58.734Z</time>
      </trkpt>
      <trkpt lat="53.080896" lon="8.820001">
        <ele>7.706356</ele>
        <time>2026-03-20T11:49:01.029Z</time>
      </trkpt>
      <trkpt lat="53.080667" lon="8.819682">
        <ele>7.990598</ele>
        <time>2026-03-20T11:49:08.893Z</time>
      </trkpt>
      <trkpt lat="53.080545" lon="8.819465">
        <ele>8.160552</ele>
        <time>2026-03-20T11:49:13.815Z</time>
      </trkpt>
      <trkpt lat="53.080437" lon="8.819316">
        <ele>8.294077</ele>
        <time>2026-03-20T11:49:17.965Z</time>
      </trkpt>
      <trkpt lat="53.080386" lon="8.819250">
        <ele>8.355569</ele>
        <time>2026-03-20T11:49:19.878Z</time>
      </trkpt>
      <trkpt lat="53.080350" lon="8.819214">
        <ele>8.395546</ele>
        <time>2026-03-20T11:49:21.104Z</time>
      </trkpt>
      <trkpt lat="53.080291" lon="8.819161">
        <ele>8.459365</ele>
        <time>2026-03-20T11:49:23.112Z</time>
      </trkpt>
      <trkpt lat="53.080153" lon="8.818880">
        <ele>8.666912</ele>
        <time>2026-03-20T11:49:29.399Z</time>
      </trkpt>
      <trkpt lat="53.079944" lon="8.818352">
        <ele>9.028492</ele>
        <time>2026-03-20T11:49:39.910Z</time>
      </trkpt>
      <trkpt lat="53.079766" lon="8.817998">
        <ele>9.292476</ele>
        <time>2026-03-20T11:49:46.563Z</time>
      </trkpt>
      <trkpt lat="53.079664" lon="8.817865">
        <ele>9.305896</ele>
        <time>2026-03-20T11:49:49.520Z</time>
      </trkpt>
      <trkpt lat="53.079220" lon="8.817424">
        <ele>9.176480</ele>
        <time>2026-03-20T11:50:01.285Z</time>
      </trkpt>
      <trkpt lat="53.079098" lon="8.817324">
        <ele>9.142441</ele>
        <time>2026-03-20T11:50:04.228Z</time>
      </trkpt>
      <trkpt lat="53.078773" lon="8.817074">
        <ele>9.052825</ele>
        <time>2026-03-20T11:50:11.665Z</time>
      </trkpt>
      <trkpt lat="53.078770" lon="8.816998">
        <ele>9.041373</ele>
        <time>2026-03-20T11:50:12.935Z</time>
      </trkpt>
      <trkpt lat="53.078660" lon="8.816905">
        <ele>9.010492</ele>
        <time>2026-03-20T11:50:16.330Z</time>
      </trkpt>
      <trkpt lat="53.078575" lon="8.816957">
        <ele>8.987824</ele>
        <time>2026-03-20T11:50:18.826Z</time>
      </trkpt>
      <trkpt lat="53.078346" lon="8.816753">
        <ele>8.922812</ele>
        <time>2026-03-20T11:50:23.982Z</time>
      </trkpt>
      <trkpt lat="53.078280" lon="8.816686">
        <ele>8.903462</ele>
        <time>2026-03-20T11:50:25.440Z</time>
      </trkpt>
      <trkpt lat="53.077884" lon="8.816210">
        <ele>8.757107</ele>
        <time>2026-03-20T11:50:34.895Z</time>
      </trkpt>
      <trkpt lat="53.077664" lon="8.815866">
        <ele>8.662859</ele>
        <time>2026-03-20T11:50:40.977Z</time>
      </trkpt>
      <trkpt lat="53.077581" lon="8.815713">
        <ele>8.624190</ele>
        <time>2026-03-20T11:50:43.605Z</time>
      </trkpt>
      <trkpt lat="53.077576" lon="8.815705">
        <ele>8.622025</ele>
        <time>2026-03-20T11:50:43.745Z</time>
      </trkpt>
      <trkpt lat="53.077306" lon="8.815184">
        <ele>8.492958</ele>
        <time>2026-03-20T11:50:52.569Z</time>
      </trkpt>
      <trkpt lat="53.077298" lon="8.815064">
        <ele>8.470310</ele>
        <time>2026-03-20T11:50:54.226Z</time>
      </trkpt>
      <trkpt lat="53.077280" lon="8.815056">
        <ele>8.464493</ele>
        <time>2026-03-20T11:50:54.627Z</time>
      </trkpt>
      <trkpt lat="53.077198" lon="8.815020">
        <ele>8.438013</ele>
        <time>2026-03-20T11:50:56.592Z</time>
      </trkpt>
      <trkpt lat="53.077165" lon="8.814898">
        <ele>8.412916</ele>
        <time>2026-03-20T11:50:58.414Z</time>
      </trkpt>
      <trkpt lat="53.077106" lon="8.814700">
        <ele>8.371457</ele>
        <time>2026-03-20T11:51:01.481Z</time>
      </trkpt>
      <trkpt lat="53.077094" lon="8.814659">
        <ele>8.362902</ele>
        <time>2026-03-20T11:51:02.111Z</time>
      </trkpt>
      <trkpt lat="53.077004" lon="8.814355">
        <ele>8.399618</ele>
        <time>2026-03-20T11:51:06.615Z</time>
      </trkpt>
      <trkpt lat="53.076921" lon="8.814041">
        <ele>8.701636</ele>
        <time>2026-03-20T11:51:11.439Z</time>
      </trkpt>
      <trkpt lat="53.076716" lon="8.813986">
        <ele>9.005940</ele>
        <time>2026-03-20T11:51:16.822Z</time>
      </trkpt>
      <trkpt lat="53.076563" lon="8.813897">
        <ele>9.243457</ele>
        <time>2026-03-20T11:51:21.409Z</time>
      </trkpt>
      <trkpt lat="53.076270" lon="8.813619">
        <ele>9.737703</ele>
        <time>2026-03-20T11:51:31.940Z</time>
      </trkpt>
      <trkpt lat="53.076178" lon="8.813558">
        <ele>9.882831</ele>
        <time>2026-03-20T11:51:35.119Z</time>
      </trkpt>
      <trkpt lat="53.075841" lon="8.813171">
        <ele>10.482829</ele>
        <time>2026-03-20T11:51:47.701Z</time>
      </trkpt>
      <trkpt lat="53.075667" lon="8.813118">
        <ele>10.742059</ele>
        <time>2026-03-20T11:51:53.030Z</time>
      </trkpt>
      <trkpt lat="53.075614" lon="8.813113">
        <ele>10.819855</ele>
        <time>2026-03-20T11:51:54.632Z</time>
      </trkpt>
      <trkpt lat="53.075219" lon="8.813195">
        <ele>11.290530</ele>
        <time>2026-03-20T11:52:06.050Z</time>
      </trkpt>
      <trkpt lat="53.075012" lon="8.813342">
        <ele>11.537823</ele>
        <time>2026-03-20T11:52:12.135Z</time>
      </trkpt>
      <trkpt lat="53.074898" lon="8.813515">
        <ele>11.707335</ele>
        <time>2026-03-20T11:52:16.149Z</time>
      </trkpt>
      <trkpt lat="53.074684" lon="8.813967">
        <ele>12.087241</ele>
        <time>2026-03-20T11:52:24.846Z</time>
      </trkpt>
      <trkpt lat="53.074558" lon="8.814237">
        <ele>12.312937</ele>
        <time>2026-03-20T11:52:30.103Z</time>
      </trkpt>
      <trkpt lat="53.074366" lon="8.814454">
        <ele>12.567950</ele>
        <time>2026-03-20T11:52:35.961Z</time>
      </trkpt>
      <trkpt lat="53.074181" lon="8.814572">
        <ele>12.785647</ele>
        <time>2026-03-20T11:52:41.001Z</time>
      </trkpt>
      <trkpt lat="53.073920" lon="8.814554">
        <ele>13.033702</ele>
        <time>2026-03-20T11:52:47.567Z</time>
      </trkpt>
      <trkpt lat="53.073796" lon="8.814507">
        <ele>13.135465</ele>
        <time>2026-03-20T11:52:50.812Z</time>
      </trkpt>
      <trkpt lat="53.073793" lon="8.814504">
        <ele>13.138265</ele>
        <time>2026-03-20T11:52:50.896Z</time>
      </trkpt>
      <trkpt lat="53.073704" lon="8.814415">
        <ele>13.221345</ele>
        <time>2026-03-20T11:52:53.678Z</time>
      </trkpt>
      <trkpt lat="53.073635" lon="8.814108">
        <ele>13.378922</ele>
        <time>2026-03-20T11:52:59.209Z</time>
      </trkpt>
      <trkpt lat="53.073539" lon="8.813472">
        <ele>13.694174</ele>
        <time>2026-03-20T11:53:10.788Z</time>
      </trkpt>
      <trkpt lat="53.073526" lon="8.813387">
        <ele>13.736340</ele>
        <time>2026-03-20T11:53:12.330Z</time>
      </trkpt>
      <trkpt lat="53.073426" lon="8.813079">
        <ele>13.904647</ele>
        <time>2026-03-20T11:53:18.603Z</time>
      </trkpt>
      <trkpt lat="53.073436" lon="8.813010">
        <ele>13.938770</ele>
        <time>2026-03-20T11:53:19.771Z</time>
      </trkpt>
      <trkpt lat="53.073398" lon="8.812989">
        <ele>13.970809</ele>
        <time>2026-03-20T11:53:20.843Z</time>
      </trkpt>
      <trkpt lat="53.073303" lon="8.812925">
        <ele>14.052816</ele>
        <time>2026-03-20T11:53:23.699Z</time>
      </trkpt>
      <trkpt lat="53.073246" lon="8.812868">
        <ele>14.106025</ele>
        <time>2026-03-20T11:53:25.335Z</time>
      </trkpt>
      <trkpt lat="53.073192" lon="8.812779">
        <ele>14.166834</ele>
        <time>2026-03-20T11:53:27.319Z</time>
      </trkpt>
      <trkpt lat="53.073165" lon="8.812859">
        <ele>14.210947</ele>
        <time>2026-03-20T11:53:31.171Z</time>
      </trkpt>
      <trkpt lat="53.073086" lon="8.812723">
        <ele>14.301890</ele>
        <time>2026-03-20T11:53:39.044Z</time>
      </trkpt>
      <trkpt lat="53.072823" lon="8.812315">
        <ele>13.551564</ele>
        <time>2026-03-20T11:54:04.043Z</time>
      </trkpt>
      <trkpt lat="53.072786" lon="8.812196">
        <ele>13.313542</ele>
        <time>2026-03-20T11:54:09.649Z</time>
      </trkpt>
      <trkpt lat="53.072728" lon="8.812093">
        <ele>13.062770</ele>
        <time>2026-03-20T11:54:15.529Z</time>
      </trkpt>
      <trkpt lat="53.072251" lon="8.811245">
        <ele>10.999194</ele>
        <time>2026-03-20T11:55:04.038Z</time>
      </trkpt>
      <trkpt lat="53.072191" lon="8.811166">
        <ele>10.772994</ele>
        <time>2026-03-20T11:55:05.703Z</time>
      </trkpt>
      <trkpt lat="53.072106" lon="8.811138">
        <ele>10.516797</ele>
        <time>2026-03-20T11:55:07.609Z</time>
      </trkpt>
      <trkpt lat="53.071967" lon="8.811159">
        <ele>10.104123</ele>
        <time>2026-03-20T11:55:10.627Z</time>
      </trkpt>
      <trkpt lat="53.071881" lon="8.811223">
        <ele>9.825585</ele>
        <time>2026-03-20T11:55:12.662Z</time>
      </trkpt>
      <trkpt lat="53.071611" lon="8.811960">
        <ele>8.140199</ele>
        <time>2026-03-20T11:55:23.691Z</time>
      </trkpt>
      <trkpt lat="53.071574" lon="8.812088">
        <ele>7.837297</ele>
        <time>2026-03-20T11:55:25.452Z</time>
      </trkpt>
      <trkpt lat="53.071425" lon="8.812559">
        <ele>6.702190</ele>
        <time>2026-03-20T11:55:30.315Z</time>
      </trkpt>
      <trkpt lat="53.071316" lon="8.812754">
        <ele>6.134226</ele>
        <time>2026-03-20T11:55:32.844Z</time>
      </trkpt>
      <trkpt lat="53.071220" lon="8.812845">
        <ele>5.742112</ele>
        <time>2026-03-20T11:55:34.653Z</time>
      </trkpt>
      <trkpt lat="53.071145" lon="8.812869">
        <ele>5.471042</ele>
        <time>2026-03-20T11:55:35.902Z</time>
      </trkpt>
      <trkpt lat="53.070962" lon="8.812837">
        <ele>4.817953</ele>
        <time>2026-03-20T11:55:38.923Z</time>
      </trkpt>
      <trkpt lat="53.070865" lon="8.812761">
        <ele>4.437435</ele>
        <time>2026-03-20T11:55:40.687Z</time>
      </trkpt>
      <trkpt lat="53.070803" lon="8.812736">
        <ele>4.211015</ele>
        <time>2026-03-20T11:55:41.733Z</time>
      </trkpt>
      <trkpt lat="53.070704" lon="8.812769">
        <ele>3.852660</ele>
        <time>2026-03-20T11:55:43.407Z</time>
      </trkpt>
      <trkpt lat="53.070598" lon="8.812687">
        <ele>3.437786</ele>
        <time>2026-03-20T11:55:45.328Z</time>
      </trkpt>
      <trkpt lat="53.070786" lon="8.812102">
        <ele>2.499359</ele>
        <time>2026-03-20T11:55:51.913Z</time>
      </trkpt>
      <trkpt lat="53.071046" lon="8.811341">
        <ele>2.014358</ele>
        <time>2026-03-20T11:56:01.338Z</time>
      </trkpt>
      <trkpt lat="53.071324" lon="8.810705">
        <ele>1.578628</ele>
        <time>2026-03-20T11:56:11.844Z</time>
      </trkpt>
      <trkpt lat="53.071411" lon="8.810508">
        <ele>1.443177</ele>
        <time>2026-03-20T11:56:16.221Z</time>
      </trkpt>
      <trkpt lat="53.071618" lon="8.809999">
        <ele>1.102663</ele>
        <time>2026-03-20T11:56:27.085Z</time>
      </trkpt>
      <trkpt lat="53.071897" lon="8.809372">
        <ele>1.045325</ele>
        <time>2026-03-20T11:56:40.794Z</time>
      </trkpt>
      <trkpt lat="53.071929" lon="8.809268">
        <ele>1.052474</ele>
        <time>2026-03-20T11:56:42.852Z</time>
      </trkpt>
      <trkpt lat="53.072265" lon="8.808168">
        <ele>1.127976</ele>
        <time>2026-03-20T11:57:04.762Z</time>
      </trkpt>
      <trkpt lat="53.072717" lon="8.807108">
        <ele>1.314504</ele>
        <time>2026-03-20T11:57:27.577Z</time>
      </trkpt>
      <trkpt lat="53.073017" lon="8.806434">
        <ele>1.702708</ele>
        <time>2026-03-20T11:57:43.509Z</time>
      </trkpt>
      <trkpt lat="53.073092" lon="8.806290">
        <ele>1.790906</ele>
        <time>2026-03-20T11:57:47.246Z</time>
      </trkpt>
      <trkpt lat="53.073110" lon="8.806255">
        <ele>1.812228</ele>
        <time>2026-03-20T11:57:48.157Z</time>
      </trkpt>
      <trkpt lat="53.073602" lon="8.805339">
        <ele>2.380860</ele>
        <time>2026-03-20T11:58:13.476Z</time>
      </trkpt>
      <trkpt lat="53.073863" lon="8.804956">
        <ele>2.588432</ele>
        <time>2026-03-20T11:58:25.032Z</time>
      </trkpt>
      <trkpt lat="53.074028" lon="8.804764">
        <ele>2.613612</ele>
        <time>2026-03-20T11:58:31.511Z</time>
      </trkpt>
      <trkpt lat="53.074251" lon="8.804502">
        <ele>2.647752</ele>
        <time>2026-03-20T11:58:40.180Z</time>
      </trkpt>
      <trkpt lat="53.074559" lon="8.804219">
        <ele>2.691754</ele>
        <time>2026-03-20T11:58:50.992Z</time>
      </trkpt>
      <trkpt lat="53.074590" lon="8.804191">
        <ele>2.696166</ele>
        <time>2026-03-20T11:58:52.026Z</time>
      </trkpt>
      <trkpt lat="53.074658" lon="8.804112">
        <ele>2.706538</ele>
        <time>2026-03-20T11:58:54.410Z</time>
      </trkpt>
      <trkpt lat="53.074871" lon="8.803839">
        <ele>2.740161</ele>
        <time>2026-03-20T11:59:01.983Z</time>
      </trkpt>
      <trkpt lat="53.074951" lon="8.803752">
        <ele>2.752113</ele>
        <time>2026-03-20T11:59:04.795Z</time>
      </trkpt>
      <trkpt lat="53.075407" lon="8.803154">
        <ele>2.735444</ele>
        <time>2026-03-20T11:59:20.234Z</time>
      </trkpt>
      <trkpt lat="53.075588" lon="8.802910">
        <ele>2.651715</ele>
        <time>2026-03-20T11:59:26.456Z</time>
      </trkpt>
      <trkpt lat="53.075802" lon="8.802625">
        <ele>2.553193</ele>
        <time>2026-03-20T11:59:34.139Z</time>
      </trkpt>
      <trkpt lat="53.076254" lon="8.802017">
        <ele>2.344282</ele>
        <time>2026-03-20T11:59:50.319Z</time>
      </trkpt>
      <trkpt lat="53.076300" lon="8.801955">
        <ele>2.323005</ele>
        <time>2026-03-20T11:59:52.001Z</time>
      </trkpt>
      <trkpt lat="53.076467" lon="8.801730">
        <ele>2.245770</ele>
        <time>2026-03-20T11:59:58.214Z</time>
      </trkpt>
      <trkpt lat="53.076732" lon="8.801350">
        <ele>2.155315</ele>
        <time>2026-03-20T12:00:08.403Z</time>
      </trkpt>
      <trkpt lat="53.076853" lon="8.801177">
        <ele>2.155684</ele>
        <time>2026-03-20T12:00:13.017Z</time>
      </trkpt>
      <trkpt lat="53.077718" lon="8.799834">
        <ele>2.158420</ele>
        <time>2026-03-20T12:00:48.454Z</time>
      </trkpt>
      <trkpt lat="53.077854" lon="8.799580">
        <ele>2.158893</ele>
        <time>2026-03-20T12:00:54.332Z</time>
      </trkpt>
      <trkpt lat="53.078032" lon="8.799229">
        <ele>2.121197</ele>
        <time>2026-03-20T12:01:02.132Z</time>
      </trkpt>
      <trkpt lat="53.078160" lon="8.798991">
        <ele>2.061131</ele>
        <time>2026-03-20T12:01:07.481Z</time>
      </trkpt>
      <trkpt lat="53.078329" lon="8.798629">
        <ele>1.974924</ele>
        <time>2026-03-20T12:01:15.117Z</time>
      </trkpt>
      <trkpt lat="53.078557" lon="8.798075">
        <ele>1.848653</ele>
        <time>2026-03-20T12:01:26.279Z</time>
      </trkpt>
      <trkpt lat="53.078793" lon="8.797563">
        <ele>1.727306</ele>
        <time>2026-03-20T12:01:36.995Z</time>
      </trkpt>
      <trkpt lat="53.079074" lon="8.796953">
        <ele>1.594220</ele>
        <time>2026-03-20T12:01:49.900Z</time>
      </trkpt>
      <trkpt lat="53.079270" lon="8.796411">
        <ele>1.576269</ele>
        <time>2026-03-20T12:02:00.907Z</time>
      </trkpt>
      <trkpt lat="53.079450" lon="8.795916">
        <ele>1.559850</ele>
        <time>2026-03-20T12:02:11.022Z</time>
      </trkpt>
      <trkpt lat="53.079652" lon="8.795338">
        <ele>1.540875</ele>
        <time>2026-03-20T12:02:22.863Z</time>
      </trkpt>
      <trkpt lat="53.079896" lon="8.794555">
        <ele>1.515846</ele>
        <time>2026-03-20T12:02:38.342Z</time>
      </trkpt>
      <trkpt lat="53.080176" lon="8.793507">
        <ele>1.782984</ele>
        <time>2026-03-20T12:02:58.543Z</time>
      </trkpt>
      <trkpt lat="53.080269" lon="8.793166">
        <ele>1.886116</ele>
        <time>2026-03-20T12:03:05.514Z</time>
      </trkpt>
      <trkpt lat="53.080423" lon="8.792598">
        <ele>2.057731</ele>
        <time>2026-03-20T12:03:17.144Z</time>
      </trkpt>
      <trkpt lat="53.080508" lon="8.792525">
        <ele>2.101579</ele>
        <time>2026-03-20T12:03:20.251Z</time>
      </trkpt>
      <trkpt lat="53.080728" lon="8.791792">
        <ele>2.327231</ele>
        <time>2026-03-20T12:03:36.024Z</time>
      </trkpt>
      <trkpt lat="53.080916" lon="8.791476">
        <ele>2.718245</ele>
        <time>2026-03-20T12:03:45.227Z</time>
      </trkpt>
      <trkpt lat="53.080896" lon="8.791245">
        <ele>2.934133</ele>
        <time>2026-03-20T12:03:50.103Z</time>
      </trkpt>
      <trkpt lat="53.080854" lon="8.791213">
        <ele>3.005262</ele>
        <time>2026-03-20T12:03:51.287Z</time>
      </trkpt>
      <trkpt lat="53.079162" lon="8.789948">
        <ele>5.562169</ele>
        <time>2026-03-20T12:04:45.758Z</time>
      </trkpt>
      <trkpt lat="53.079146" lon="8.789936">
        <ele>5.578490</ele>
        <time>2026-03-20T12:04:46.300Z</time>
      </trkpt>
      <trkpt lat="53.079222" lon="8.789675">
        <ele>5.740532</ele>
        <time>2026-03-20T12:04:52.151Z</time>
      </trkpt>
      <trkpt lat="53.079254" lon="8.789579">
        <ele>5.801868</ele>
        <time>2026-03-20T12:04:54.031Z</time>
      </trkpt>
      <trkpt lat="53.079429" lon="8.789083">
        <ele>6.123230</ele>
        <time>2026-03-20T12:05:03.636Z</time>
      </trkpt>
      <trkpt lat="53.079595" lon="8.788581">
        <ele>6.443367</ele>
        <time>2026-03-20T12:05:12.573Z</time>
      </trkpt>
      <trkpt lat="53.079666" lon="8.788067">
        <ele>6.738016</ele>
        <time>2026-03-20T12:05:21.637Z</time>
      </trkpt>
      <trkpt lat="53.079962" lon="8.786627">
        <ele>7.028535</ele>
        <time>2026-03-20T12:05:43.715Z</time>
      </trkpt>
      <trkpt lat="53.079978" lon="8.786536">
        <ele>7.044893</ele>
        <time>2026-03-20T12:05:45.192Z</time>
      </trkpt>
      <trkpt lat="53.080037" lon="8.786110">
        <ele>7.120315</ele>
        <time>2026-03-20T12:05:52.046Z</time>
      </trkpt>
      <trkpt lat="53.080022" lon="8.785934">
        <ele>7.150982</ele>
        <time>2026-03-20T12:05:54.729Z</time>
      </trkpt>
      <trkpt lat="53.079962" lon="8.785756">
        <ele>7.186195</ele>
        <time>2026-03-20T12:05:57.716Z</time>
      </trkpt>
      <trkpt lat="53.079805" lon="8.785628">
        <ele>7.236402</ele>
        <time>2026-03-20T12:06:01.839Z</time>
      </trkpt>
      <trkpt lat="53.079520" lon="8.785530">
        <ele>7.260479</ele>
        <time>2026-03-20T12:06:08.068Z</time>
      </trkpt>
      <trkpt lat="53.079367" lon="8.785356">
        <ele>7.186859</ele>
        <time>2026-03-20T12:06:11.978Z</time>
      </trkpt>
      <trkpt lat="53.079242" lon="8.785165">
        <ele>7.119444</ele>
        <time>2026-03-20T12:06:15.629Z</time>
      </trkpt>
      <trkpt lat="53.078780" lon="8.784472">
        <ele>6.872357</ele>
        <time>2026-03-20T12:06:28.572Z</time>
      </trkpt>
      <trkpt lat="53.078630" lon="8.784733">
        <ele>6.786146</ele>
        <time>2026-03-20T12:06:33.061Z</time>
      </trkpt>
      <trkpt lat="53.078481" lon="8.784993">
        <ele>6.700381</ele>
        <time>2026-03-20T12:06:37.522Z</time>
      </trkpt>
      <trkpt lat="53.077948" lon="8.785869">
        <ele>6.617370</ele>
        <time>2026-03-20T12:06:53.672Z</time>
      </trkpt>
      <trkpt lat="53.077897" lon="8.785947">
        <ele>6.623101</ele>
        <time>2026-03-20T12:06:55.288Z</time>
      </trkpt>
      <trkpt lat="53.077690" lon="8.786073">
        <ele>6.641338</ele>
        <time>2026-03-20T12:07:00.449Z</time>
      </trkpt>
      <trkpt lat="53.077451" lon="8.786071">
        <ele>6.661114</ele>
        <time>2026-03-20T12:07:06.115Z</time>
      </trkpt>
      <trkpt lat="53.077082" lon="8.786025">
        <ele>6.691732</ele>
        <time>2026-03-20T12:07:14.936Z</time>
      </trkpt>
      <trkpt lat="53.076494" lon="8.785703">
        <ele>6.776392</ele>
        <time>2026-03-20T12:07:30.811Z</time>
      </trkpt>
      <trkpt lat="53.076290" lon="8.785544">
        <ele>6.840395</ele>
        <time>2026-03-20T12:07:36.615Z</time>
      </trkpt>
      <trkpt lat="53.076212" lon="8.785446">
        <ele>6.868162</ele>
        <time>2026-03-20T12:07:39.092Z</time>
      </trkpt>
      <trkpt lat="53.076124" lon="8.785204">
        <ele>6.916448</ele>
        <time>2026-03-20T12:07:43.449Z</time>
      </trkpt>
      <trkpt lat="53.076104" lon="8.785042">
        <ele>6.944679</ele>
        <time>2026-03-20T12:07:46.043Z</time>
      </trkpt>
      <trkpt lat="53.076107" lon="8.784880">
        <ele>6.972345</ele>
        <time>2026-03-20T12:07:48.498Z</time>
      </trkpt>
      <trkpt lat="53.076107" lon="8.784880">
        <ele>6.972345</ele>
        <time>2026-03-20T12:07:48.503Z</time>
      </trkpt>
      <trkpt lat="53.076184" lon="8.784599">
        <ele>7.025065</ele>
        <time>2026-03-20T12:07:53.098Z</time>
      </trkpt>
      <trkpt lat="53.076296" lon="8.784444">
        <ele>7.066450</ele>
        <time>2026-03-20T12:07:56.638Z</time>
      </trkpt>
      <trkpt lat="53.076815" lon="8.783962">
        <ele>7.235316</ele>
        <time>2026-03-20T12:08:10.376Z</time>
      </trkpt>
      <trkpt lat="53.077232" lon="8.783462">
        <ele>7.007689</ele>
        <time>2026-03-20T12:08:21.398Z</time>
      </trkpt>
      <trkpt lat="53.077497" lon="8.782986">
        <ele>6.825050</ele>
        <time>2026-03-20T12:08:29.444Z</time>
      </trkpt>
      <trkpt lat="53.077705" lon="8.782549">
        <ele>6.668144</ele>
        <time>2026-03-20T12:08:36.454Z</time>
      </trkpt>
      <trkpt lat="53.077815" lon="8.782317">
        <ele>6.584967</ele>
        <time>2026-03-20T12:08:40.249Z</time>
      </trkpt>
      <trkpt lat="53.077866" lon="8.782145">
        <ele>6.530987</ele>
        <time>2026-03-20T12:08:42.751Z</time>
      </trkpt>
      <trkpt lat="53.077996" lon="8.782281">
        <ele>6.459058</ele>
        <time>2026-03-20T12:08:46.357Z</time>
      </trkpt>
      <trkpt lat="53.078395" lon="8.781578">
        <ele>6.277294</ele>
        <time>2026-03-20T12:09:00.388Z</time>
      </trkpt>
      <trkpt lat="53.078824" lon="8.780823">
        <ele>6.110280</ele>
        <time>2026-03-20T12:09:15.111Z</time>
      </trkpt>
      <trkpt lat="53.079932" lon="8.778961">
        <ele>5.830424</ele>
        <time>2026-03-20T12:09:52.514Z</time>
      </trkpt>
      <trkpt lat="53.080152" lon="8.778557">
        <ele>5.797261</ele>
        <time>2026-03-20T12:10:00.491Z</time>
      </trkpt>
      <trkpt lat="53.080618" lon="8.777703">
        <ele>5.759119</ele>
        <time>2026-03-20T12:10:17.686Z</time>
      </trkpt>
      <trkpt lat="53.081053" lon="8.776947">
        <ele>5.975367</ele>
        <time>2026-03-20T12:10:32.836Z</time>
      </trkpt>
      <trkpt lat="53.081699" lon="8.775687">
        <ele>6.317548</ele>
        <time>2026-03-20T12:10:56.665Z</time>
      </trkpt>
      <trkpt lat="53.081841" lon="8.775486">
        <ele>6.345147</ele>
        <time>2026-03-20T12:11:01.115Z</time>
      </trkpt>
      <trkpt lat="53.082114" lon="8.774871">
        <ele>6.302588</ele>
        <time>2026-03-20T12:11:11.679Z</time>
      </trkpt>
      <trkpt lat="53.083154" lon="8.772109">
        <ele>6.287379</ele>
        <time>2026-03-20T12:11:53.138Z</time>
      </trkpt>
      <trkpt lat="53.083155" lon="8.772108">
        <ele>6.287547</ele>
        <time>2026-03-20T12:11:53.153Z</time>
      </trkpt>
      <trkpt lat="53.082236" lon="8.771335">
        <ele>6.435804</ele>
        <time>2026-03-20T12:12:17.982Z</time>
      </trkpt>
      <trkpt lat="53.082473" lon="8.770627">
        <ele>6.531133</ele>
        <time>2026-03-20T12:12:30.172Z</time>
      </trkpt>
      <trkpt lat="53.083435" lon="8.769012">
        <ele>6.809640</ele>
        <time>2026-03-20T12:13:01.977Z</time>
      </trkpt>
      <trkpt lat="53.083718" lon="8.768586">
        <ele>6.874753</ele>
        <time>2026-03-20T12:13:11.530Z</time>
      </trkpt>
      <trkpt lat="53.084102" lon="8.768086">
        <ele>6.957467</ele>
        <time>2026-03-20T12:13:23.608Z</time>
      </trkpt>
      <trkpt lat="53.084321" lon="8.767808">
        <ele>7.004194</ele>
        <time>2026-03-20T12:13:30.368Z</time>
      </trkpt>
      <trkpt lat="53.084930" lon="8.767134">
        <ele>7.083837</ele>
        <time>2026-03-20T12:13:47.736Z</time>
      </trkpt>
      <trkpt lat="53.085398" lon="8.766667">
        <ele>6.808860</ele>
        <time>2026-03-20T12:13:59.183Z</time>
      </trkpt>
      <trkpt lat="53.085704" lon="8.766364">
        <ele>6.629432</ele>
        <time>2026-03-20T12:14:06.377Z</time>
      </trkpt>
      <trkpt lat="53.086044" lon="8.766027">
        <ele>6.430016</ele>
        <time>2026-03-20T12:14:14.653Z</time>
      </trkpt>
      <trkpt lat="53.086443" lon="8.765778">
        <ele>6.215270</ele>
        <time>2026-03-20T12:14:24.244Z</time>
      </trkpt>
      <trkpt lat="53.086650" lon="8.765648">
        <ele>6.116506</ele>
        <time>2026-03-20T12:14:29.265Z</time>
      </trkpt>
      <trkpt lat="53.086750" lon="8.765667">
        <ele>6.071827</ele>
        <time>2026-03-20T12:14:31.396Z</time>
      </trkpt>
      <trkpt lat="53.087040" lon="8.765325">
        <ele>5.914073</ele>
        <time>2026-03-20T12:14:41.209Z</time>
      </trkpt>
      <trkpt lat="53.087210" lon="8.765136">
        <ele>5.823332</ele>
        <time>2026-03-20T12:14:46.754Z</time>
      </trkpt>
      <trkpt lat="53.087298" lon="8.765038">
        <ele>5.776335</ele>
        <time>2026-03-20T12:14:49.676Z</time>
      </trkpt>
      <trkpt lat="53.087470" lon="8.765567">
        <ele>5.615958</ele>
        <time>2026-03-20T12:14:58.753Z</time>
      </trkpt>
      <trkpt lat="53.087513" lon="8.765613">
        <ele>5.593269</ele>
        <time>2026-03-20T12:15:00.004Z</time>
      </trkpt>
      <trkpt lat="53.087568" lon="8.765617">
        <ele>5.568831</ele>
        <time>2026-03-20T12:15:01.343Z</time>
      </trkpt>
      <trkpt lat="53.087809" lon="8.765507">
        <ele>5.457902</ele>
        <time>2026-03-20T12:15:07.311Z</time>
      </trkpt>
      <trkpt lat="53.088006" lon="8.765310">
        <ele>5.320878</ele>
        <time>2026-03-20T12:15:12.377Z</time>
      </trkpt>
      <trkpt lat="53.088086" lon="8.765172">
        <ele>5.237934</ele>
        <time>2026-03-20T12:15:14.756Z</time>
      </trkpt>
      <trkpt lat="53.088112" lon="8.765083">
        <ele>5.195134</ele>
        <time>2026-03-20T12:15:15.996Z</time>
      </trkpt>
      <trkpt lat="53.088138" lon="8.764994">
        <ele>5.152334</ele>
        <time>2026-03-20T12:15:17.187Z</time>
      </trkpt>
      <trkpt lat="53.088192" lon="8.764786">
        <ele>5.054340</ele>
        <time>2026-03-20T12:15:19.899Z</time>
      </trkpt>
      <trkpt lat="53.088409" lon="8.764553">
        <ele>4.868418</ele>
        <time>2026-03-20T12:15:25.235Z</time>
      </trkpt>
      <trkpt lat="53.088540" lon="8.764443">
        <ele>4.762775</ele>
        <time>2026-03-20T12:15:28.492Z</time>
      </trkpt>
      <trkpt lat="53.088706" lon="8.764449">
        <ele>4.643219</ele>
        <time>2026-03-20T12:15:32.293Z</time>
      </trkpt>
      <trkpt lat="53.088968" lon="8.764352">
        <ele>4.449959</ele>
        <time>2026-03-20T12:15:38.545Z</time>
      </trkpt>
      <trkpt lat="53.089209" lon="8.764154">
        <ele>4.256452</ele>
        <time>2026-03-20T12:15:44.564Z</time>
      </trkpt>
      <trkpt lat="53.089264" lon="8.764105">
        <ele>4.211537</ele>
        <time>2026-03-20T12:15:46.261Z</time>
      </trkpt>
      <trkpt lat="53.089525" lon="8.763892">
        <ele>4.116696</ele>
        <time>2026-03-20T12:15:52.322Z</time>
      </trkpt>
      <trkpt lat="53.090174" lon="8.763266">
        <ele>4.114947</ele>
        <time>2026-03-20T12:16:10.466Z</time>
      </trkpt>
      <trkpt lat="53.090764" lon="8.762670">
        <ele>4.113339</ele>
        <time>2026-03-20T12:16:25.964Z</time>
      </trkpt>
      <trkpt lat="53.091030" lon="8.762444">
        <ele>4.046982</ele>
        <time>2026-03-20T12:16:32.167Z</time>
      </trkpt>
      <trkpt lat="53.091468" lon="8.762198">
        <ele>3.741038</ele>
        <time>2026-03-20T12:16:41.528Z</time>
      </trkpt>
      <trkpt lat="53.091685" lon="8.762034">
        <ele>3.583312</ele>
        <time>2026-03-20T12:16:47.614Z</time>
      </trkpt>
      <trkpt lat="53.092249" lon="8.761594">
        <ele>3.171081</ele>
        <time>2026-03-20T12:17:03.665Z</time>
      </trkpt>
      <trkpt lat="53.092280" lon="8.761517">
        <ele>3.134235</ele>
        <time>2026-03-20T12:17:05.177Z</time>
      </trkpt>
      <trkpt lat="53.092490" lon="8.761385">
        <ele>2.985670</ele>
        <time>2026-03-20T12:17:10.031Z</time>
      </trkpt>
      <trkpt lat="53.092715" lon="8.761168">
        <ele>2.970426</ele>
        <time>2026-03-20T12:17:16.006Z</time>
      </trkpt>
      <trkpt lat="53.093832" lon="8.759370">
        <ele>3.424068</ele>
        <time>2026-03-20T12:17:54.539Z</time>
      </trkpt>
      <trkpt lat="53.094374" lon="8.758461">
        <ele>3.553783</ele>
        <time>2026-03-20T12:18:13.919Z</time>
      </trkpt>
      <trkpt lat="53.096475" lon="8.754995">
        <ele>3.815599</ele>
        <time>2026-03-20T12:19:18.927Z</time>
      </trkpt>
      <trkpt lat="53.096655" lon="8.754183">
        <ele>4.191698</ele>
        <time>2026-03-20T12:19:32.299Z</time>
      </trkpt>
      <trkpt lat="53.096862" lon="8.753473">
        <ele>4.534643</ele>
        <time>2026-03-20T12:19:44.868Z</time>
      </trkpt>
      <trkpt lat="53.097136" lon="8.752749">
        <ele>4.906496</ele>
        <time>2026-03-20T12:19:58.214Z</time>
      </trkpt>
      <trkpt lat="53.097367" lon="8.752266">
        <ele>5.041243</ele>
        <time>2026-03-20T12:20:07.398Z</time>
      </trkpt>
      <trkpt lat="53.097413" lon="8.752189">
        <ele>5.020555</ele>
        <time>2026-03-20T12:20:08.989Z</time>
      </trkpt>
      <trkpt lat="53.097566" lon="8.751933">
        <ele>4.951756</ele>
        <time>2026-03-20T12:20:14.182Z</time>
      </trkpt>
      <trkpt lat="53.097823" lon="8.751638">
        <ele>4.852743</ele>
        <time>2026-03-20T12:20:21.581Z</time>
      </trkpt>
      <trkpt lat="53.098090" lon="8.751387">
        <ele>4.755485</ele>
        <time>2026-03-20T12:20:28.331Z</time>
      </trkpt>
      <trkpt lat="53.098473" lon="8.751173">
        <ele>4.627336</ele>
        <time>2026-03-20T12:20:36.215Z</time>
      </trkpt>
      <trkpt lat="53.098717" lon="8.751132">
        <ele>4.549542</ele>
        <time>2026-03-20T12:20:40.709Z</time>
      </trkpt>
      <trkpt lat="53.098886" lon="8.751235">
        <ele>4.440129</ele>
        <time>2026-03-20T12:20:44.032Z</time>
      </trkpt>
      <trkpt lat="53.099218" lon="8.751553">
        <ele>3.982850</ele>
        <time>2026-03-20T12:20:51.058Z</time>
      </trkpt>
      <trkpt lat="53.099364" lon="8.751639">
        <ele>3.797949</ele>
        <time>2026-03-20T12:20:53.886Z</time>
      </trkpt>
      <trkpt lat="53.099522" lon="8.751631">
        <ele>3.609214</ele>
        <time>2026-03-20T12:20:56.787Z</time>
      </trkpt>
      <trkpt lat="53.099639" lon="8.751581">
        <ele>3.464994</ele>
        <time>2026-03-20T12:20:58.969Z</time>
      </trkpt>
      <trkpt lat="53.100041" lon="8.751201">
        <ele>2.913099</ele>
        <time>2026-03-20T12:21:07.371Z</time>
      </trkpt>
      <trkpt lat="53.100415" lon="8.750689">
        <ele>2.367726</ele>
        <time>2026-03-20T12:21:16.869Z</time>
      </trkpt>
      <trkpt lat="53.100636" lon="8.750318">
        <ele>2.418049</ele>
        <time>2026-03-20T12:21:24.097Z</time>
      </trkpt>
      <trkpt lat="53.101855" lon="8.748365">
        <ele>2.753280</ele>
        <time>2026-03-20T12:22:03.977Z</time>
      </trkpt>
      <trkpt lat="53.102221" lon="8.747871">
        <ele>2.959466</ele>
        <time>2026-03-20T12:22:15.599Z</time>
      </trkpt>
      <trkpt lat="53.102502" lon="8.747491">
        <ele>3.117887</ele>
        <time>2026-03-20T12:22:24.514Z</time>
      </trkpt>
      <trkpt lat="53.103076" lon="8.746802">
        <ele>3.427556</ele>
        <time>2026-03-20T12:22:41.544Z</time>
      </trkpt>
      <trkpt lat="53.103626" lon="8.746219">
        <ele>3.431607</ele>
        <time>2026-03-20T12:22:56.442Z</time>
      </trkpt>
      <trkpt lat="53.106917" lon="8.742914">
        <ele>3.269841</ele>
        <time>2026-03-20T12:24:19.494Z</time>
      </trkpt>
      <trkpt lat="53.108239" lon="8.741583">
        <ele>3.363086</ele>
        <time>2026-03-20T12:24:56.612Z</time>
      </trkpt>
      <trkpt lat="53.108233" lon="8.741523">
        <ele>3.360148</ele>
        <time>2026-03-20T12:24:58.054Z</time>
      </trkpt>
      <trkpt lat="53.108226" lon="8.741456">
        <ele>3.356863</ele>
        <time>2026-03-20T12:24:59.673Z</time>
      </trkpt>
      <trkpt lat="53.108205" lon="8.741287">
        <ele>3.348525</ele>
        <time>2026-03-20T12:25:03.553Z</time>
      </trkpt>
      <trkpt lat="53.108316" lon="8.741130">
        <ele>3.336807</ele>
        <time>2026-03-20T12:25:09.062Z</time>
      </trkpt>
      <trkpt lat="53.108288" lon="8.740725">
        <ele>3.317112</ele>
        <time>2026-03-20T12:25:18.052Z</time>
      </trkpt>
      <trkpt lat="53.108249" lon="8.740646">
        <ele>3.312171</ele>
        <time>2026-03-20T12:25:20.262Z</time>
      </trkpt>
      <trkpt lat="53.108278" lon="8.740571">
        <ele>3.307862</ele>
        <time>2026-03-20T12:25:21.472Z</time>
      </trkpt>
      <trkpt lat="53.108257" lon="8.740451">
        <ele>3.301823</ele>
        <time>2026-03-20T12:25:23.069Z</time>
      </trkpt>
      <trkpt lat="53.108550" lon="8.740025">
        <ele>3.270526</ele>
        <time>2026-03-20T12:25:33.576Z</time>
      </trkpt>
      <trkpt lat="53.108257" lon="8.740451">
        <ele>3.166429</ele>
        <time>2026-03-20T12:25:43.580Z</time>
      </trkpt>
      <trkpt lat="53.108216" lon="8.740420">
        <ele>3.153614</ele>
        <time>2026-03-20T12:25:44.498Z</time>
      </trkpt>
      <trkpt lat="53.108161" lon="8.740452">
        <ele>3.137033</ele>
        <time>2026-03-20T12:25:45.687Z</time>
      </trkpt>
      <trkpt lat="53.108078" lon="8.740677">
        <ele>3.091911</ele>
        <time>2026-03-20T12:25:48.951Z</time>
      </trkpt>
      <trkpt lat="53.107971" lon="8.740859">
        <ele>3.048385</ele>
        <time>2026-03-20T12:25:52.243Z</time>
      </trkpt>
      <trkpt lat="53.107805" lon="8.741088">
        <ele>2.987040</ele>
        <time>2026-03-20T12:25:56.801Z</time>
      </trkpt>
      <trkpt lat="53.107506" lon="8.741514">
        <ele>2.875057</ele>
        <time>2026-03-20T12:26:05.177Z</time>
      </trkpt>
      <trkpt lat="53.107011" lon="8.742231">
        <ele>2.972323</ele>
        <time>2026-03-20T12:26:20.538Z</time>
      </trkpt>
      <trkpt lat="53.106948" lon="8.742269">
        <ele>3.033313</ele>
        <time>2026-03-20T12:26:22.274Z</time>
      </trkpt>
      <trkpt lat="53.106232" lon="8.742699">
        <ele>3.726124</ele>
        <time>2026-03-20T12:26:43.163Z</time>
      </trkpt>
      <trkpt lat="53.106131" lon="8.742871">
        <ele>3.857602</ele>
        <time>2026-03-20T12:26:47.113Z</time>
      </trkpt>
      <trkpt lat="53.106064" lon="8.743048">
        <ele>3.971948</ele>
        <time>2026-03-20T12:26:50.404Z</time>
      </trkpt>
      <trkpt lat="53.105946" lon="8.743204">
        <ele>4.109076</ele>
        <time>2026-03-20T12:26:54.260Z</time>
      </trkpt>
      <trkpt lat="53.105435" lon="8.743741">
        <ele>4.509173</ele>
        <time>2026-03-20T12:27:09.732Z</time>
      </trkpt>
      <trkpt lat="53.105280" lon="8.743902">
        <ele>4.581697</ele>
        <time>2026-03-20T12:27:14.406Z</time>
      </trkpt>
      <trkpt lat="53.105154" lon="8.744031">
        <ele>4.640416</ele>
        <time>2026-03-20T12:27:18.041Z</time>
      </trkpt>
      <trkpt lat="53.100774" lon="8.748591">
        <ele>6.432060</ele>
        <time>2026-03-20T12:29:19.248Z</time>
      </trkpt>
      <trkpt lat="53.100419" lon="8.748880">
        <ele>6.508312</ele>
        <time>2026-03-20T12:29:28.072Z</time>
      </trkpt>
      <trkpt lat="53.100065" lon="8.749065">
        <ele>6.579909</ele>
        <time>2026-03-20T12:29:36.327Z</time>
      </trkpt>
      <trkpt lat="53.099857" lon="8.749136">
        <ele>6.620882</ele>
        <time>2026-03-20T12:29:41.077Z</time>
      </trkpt>
      <trkpt lat="53.099344" lon="8.749179">
        <ele>6.719693</ele>
        <time>2026-03-20T12:29:53.039Z</time>
      </trkpt>
      <trkpt lat="53.098973" lon="8.749096">
        <ele>6.790565</ele>
        <time>2026-03-20T12:30:02.262Z</time>
      </trkpt>
      <trkpt lat="53.098717" lon="8.748985">
        <ele>6.840649</ele>
        <time>2026-03-20T12:30:08.970Z</time>
      </trkpt>
      <trkpt lat="53.098274" lon="8.748659">
        <ele>6.932345</ele>
        <time>2026-03-20T12:30:21.083Z</time>
      </trkpt>
      <trkpt lat="53.098000" lon="8.748385">
        <ele>6.992854</ele>
        <time>2026-03-20T12:30:28.604Z</time>
      </trkpt>
      <trkpt lat="53.097671" lon="8.747910">
        <ele>6.845606</ele>
        <time>2026-03-20T12:30:37.410Z</time>
      </trkpt>
      <trkpt lat="53.097344" lon="8.747231">
        <ele>6.216720</ele>
        <time>2026-03-20T12:30:46.732Z</time>
      </trkpt>
      <trkpt lat="53.097170" lon="8.746868">
        <ele>5.881125</ele>
        <time>2026-03-20T12:30:51.966Z</time>
      </trkpt>
      <trkpt lat="53.096966" lon="8.746554">
        <ele>5.546870</ele>
        <time>2026-03-20T12:30:57.084Z</time>
      </trkpt>
      <trkpt lat="53.096932" lon="8.746418">
        <ele>5.440430</ele>
        <time>2026-03-20T12:30:59.290Z</time>
      </trkpt>
      <trkpt lat="53.096864" lon="8.746345">
        <ele>5.343080</ele>
        <time>2026-03-20T12:31:01.332Z</time>
      </trkpt>
      <trkpt lat="53.096755" lon="8.746228">
        <ele>5.187040</ele>
        <time>2026-03-20T12:31:04.570Z</time>
      </trkpt>
      <trkpt lat="53.096702" lon="8.746110">
        <ele>5.080569</ele>
        <time>2026-03-20T12:31:06.830Z</time>
      </trkpt>
      <trkpt lat="53.096661" lon="8.745869">
        <ele>4.899585</ele>
        <time>2026-03-20T12:31:10.642Z</time>
      </trkpt>
      <trkpt lat="53.096647" lon="8.745784">
        <ele>4.856917</ele>
        <time>2026-03-20T12:31:11.980Z</time>
      </trkpt>
      <trkpt lat="53.096602" lon="8.745665">
        <ele>4.803960</ele>
        <time>2026-03-20T12:31:14.142Z</time>
      </trkpt>
      <trkpt lat="53.096527" lon="8.745569">
        <ele>4.744637</ele>
        <time>2026-03-20T12:31:16.572Z</time>
      </trkpt>
      <trkpt lat="53.096478" lon="8.745557">
        <ele>4.713578</ele>
        <time>2026-03-20T12:31:17.837Z</time>
      </trkpt>
      <trkpt lat="53.096142" lon="8.744684">
        <ele>4.323096</ele>
        <time>2026-03-20T12:31:30.840Z</time>
      </trkpt>
      <trkpt lat="53.095905" lon="8.744341">
        <ele>4.126184</ele>
        <time>2026-03-20T12:31:37.604Z</time>
      </trkpt>
      <trkpt lat="53.095758" lon="8.744213">
        <ele>4.022155</ele>
        <time>2026-03-20T12:31:40.853Z</time>
      </trkpt>
      <trkpt lat="53.095515" lon="8.744175">
        <ele>3.869093</ele>
        <time>2026-03-20T12:31:45.686Z</time>
      </trkpt>
      <trkpt lat="53.095299" lon="8.744210">
        <ele>3.749874</ele>
        <time>2026-03-20T12:31:50.055Z</time>
      </trkpt>
      <trkpt lat="53.094683" lon="8.744454">
        <ele>3.708955</ele>
        <time>2026-03-20T12:32:03.085Z</time>
      </trkpt>
      <trkpt lat="53.091833" lon="8.745271">
        <ele>3.931968</ele>
        <time>2026-03-20T12:33:09.788Z</time>
      </trkpt>
      <trkpt lat="53.091628" lon="8.745218">
        <ele>3.993814</ele>
        <time>2026-03-20T12:33:14.358Z</time>
      </trkpt>
      <trkpt lat="53.091518" lon="8.745346">
        <ele>4.038249</ele>
        <time>2026-03-20T12:33:17.324Z</time>
      </trkpt>
      <trkpt lat="53.091188" lon="8.745629">
        <ele>4.161159</ele>
        <time>2026-03-20T12:33:25.803Z</time>
      </trkpt>
      <trkpt lat="53.090727" lon="8.746217">
        <ele>4.353442</ele>
        <time>2026-03-20T12:33:39.649Z</time>
      </trkpt>
      <trkpt lat="53.089880" lon="8.747257">
        <ele>4.539010</ele>
        <time>2026-03-20T12:34:05.853Z</time>
      </trkpt>
      <trkpt lat="53.087809" lon="8.749842">
        <ele>4.378186</ele>
        <time>2026-03-20T12:35:00.923Z</time>
      </trkpt>
      <trkpt lat="53.087700" lon="8.749977">
        <ele>4.360141</ele>
        <time>2026-03-20T12:35:03.820Z</time>
      </trkpt>
      <trkpt lat="53.085899" lon="8.752205">
        <ele>4.660669</ele>
        <time>2026-03-20T12:35:55.636Z</time>
      </trkpt>
      <trkpt lat="53.085697" lon="8.752337">
        <ele>4.703205</ele>
        <time>2026-03-20T12:36:00.508Z</time>
      </trkpt>
      <trkpt lat="53.085639" lon="8.752445">
        <ele>4.720261</ele>
        <time>2026-03-20T12:36:02.401Z</time>
      </trkpt>
      <trkpt lat="53.085502" lon="8.752544">
        <ele>4.749536</ele>
        <time>2026-03-20T12:36:05.761Z</time>
      </trkpt>
      <trkpt lat="53.085335" lon="8.752417">
        <ele>4.785524</ele>
        <time>2026-03-20T12:36:10.051Z</time>
      </trkpt>
      <trkpt lat="53.085162" lon="8.752229">
        <ele>4.826019</ele>
        <time>2026-03-20T12:36:15.024Z</time>
      </trkpt>
      <trkpt lat="53.084952" lon="8.751971">
        <ele>4.877177</ele>
        <time>2026-03-20T12:36:21.542Z</time>
      </trkpt>
      <trkpt lat="53.084953" lon="8.751615">
        <ele>4.919091</ele>
        <time>2026-03-20T12:36:28.211Z</time>
      </trkpt>
      <trkpt lat="53.084919" lon="8.751523">
        <ele>4.931808</ele>
        <time>2026-03-20T12:36:30.196Z</time>
      </trkpt>
      <trkpt lat="53.084868" lon="8.751397">
        <ele>4.949697</ele>
        <time>2026-03-20T12:36:32.999Z</time>
      </trkpt>
      <trkpt lat="53.084990" lon="8.751276">
        <ele>4.977533</ele>
        <time>2026-03-20T12:36:37.283Z</time>
      </trkpt>
      <trkpt lat="53.085173" lon="8.750914">
        <ele>5.004804</ele>
        <time>2026-03-20T12:36:45.609Z</time>
      </trkpt>
      <trkpt lat="53.085251" lon="8.750566">
        <ele>5.013114</ele>
        <time>2026-03-20T12:36:51.848Z</time>
      </trkpt>
      <trkpt lat="53.085286" lon="8.750151">
        <ele>5.022490</ele>
        <time>2026-03-20T12:36:59.100Z</time>
      </trkpt>
      <trkpt lat="53.085398" lon="8.748963">
        <ele>5.049393</ele>
        <time>2026-03-20T12:37:20.924Z</time>
      </trkpt>
      <trkpt lat="53.085377" lon="8.748729">
        <ele>5.054686</ele>
        <time>2026-03-20T12:37:25.033Z</time>
      </trkpt>
      <trkpt lat="53.085440" lon="8.748634">
        <ele>5.057852</ele>
        <time>2026-03-20T12:37:27.454Z</time>
      </trkpt>
      <trkpt lat="53.085351" lon="8.748457">
        <ele>5.063017</ele>
        <time>2026-03-20T12:37:30.449Z</time>
      </trkpt>
      <trkpt lat="53.085302" lon="8.748349">
        <ele>5.067888</ele>
        <time>2026-03-20T12:37:32.205Z</time>
      </trkpt>
      <trkpt lat="53.085696" lon="8.747819">
        <ele>5.124739</ele>
        <time>2026-03-20T12:37:43.380Z</time>
      </trkpt>
      <trkpt lat="53.086062" lon="8.747392">
        <ele>5.174898</ele>
        <time>2026-03-20T12:37:53.534Z</time>
      </trkpt>
      <trkpt lat="53.086314" lon="8.747098">
        <ele>5.209434</ele>
        <time>2026-03-20T12:38:00.543Z</time>
      </trkpt>
      <trkpt lat="53.086632" lon="8.746700">
        <ele>5.254084</ele>
        <time>2026-03-20T12:38:09.717Z</time>
      </trkpt>
      <trkpt lat="53.086740" lon="8.746565">
        <ele>5.272966</ele>
        <time>2026-03-20T12:38:12.876Z</time>
      </trkpt>
      <trkpt lat="53.087472" lon="8.745667">
        <ele>5.544712</ele>
        <time>2026-03-20T12:38:33.986Z</time>
      </trkpt>
      <trkpt lat="53.088619" lon="8.744242">
        <ele>5.855486</ele>
        <time>2026-03-20T12:39:18.093Z</time>
      </trkpt>
      <trkpt lat="53.088813" lon="8.743981">
        <ele>5.878098</ele>
        <time>2026-03-20T12:39:25.655Z</time>
      </trkpt>
      <trkpt lat="53.088930" lon="8.743759">
        <ele>5.894180</ele>
        <time>2026-03-20T12:39:30.935Z</time>
      </trkpt>
      <trkpt lat="53.089029" lon="8.743510">
        <ele>5.910439</ele>
        <time>2026-03-20T12:39:36.210Z</time>
      </trkpt>
      <trkpt lat="53.089100" lon="8.743248">
        <ele>5.926089</ele>
        <time>2026-03-20T12:39:41.221Z</time>
      </trkpt>
      <trkpt lat="53.089150" lon="8.742886">
        <ele>5.946314</ele>
        <time>2026-03-20T12:39:47.632Z</time>
      </trkpt>
      <trkpt lat="53.089151" lon="8.742592">
        <ele>5.962321</ele>
        <time>2026-03-20T12:39:52.644Z</time>
      </trkpt>
      <trkpt lat="53.089123" lon="8.742263">
        <ele>5.927841</ele>
        <time>2026-03-20T12:39:58.259Z</time>
      </trkpt>
      <trkpt lat="53.089073" lon="8.742006">
        <ele>5.882056</ele>
        <time>2026-03-20T12:40:02.762Z</time>
      </trkpt>
      <trkpt lat="53.088892" lon="8.741161">
        <ele>5.730008</ele>
        <time>2026-03-20T12:40:13.880Z</time>
      </trkpt>
      <trkpt lat="53.088222" lon="8.738035">
        <ele>5.596452</ele>
        <time>2026-03-20T12:40:56.457Z</time>
      </trkpt>
      <trkpt lat="53.088173" lon="8.737665">
        <ele>5.626389</ele>
        <time>2026-03-20T12:41:01.979Z</time>
      </trkpt>
      <trkpt lat="53.088136" lon="8.737492">
        <ele>5.640899</ele>
        <time>2026-03-20T12:41:04.599Z</time>
      </trkpt>
      <trkpt lat="53.088048" lon="8.737237">
        <ele>5.664136</ele>
        <time>2026-03-20T12:41:09.040Z</time>
      </trkpt>
      <trkpt lat="53.087912" lon="8.736601">
        <ele>5.791353</ele>
        <time>2026-03-20T12:41:19.264Z</time>
      </trkpt>
      <trkpt lat="53.087599" lon="8.735137">
        <ele>6.350308</ele>
        <time>2026-03-20T12:41:42.924Z</time>
      </trkpt>
      <trkpt lat="53.087431" lon="8.734488">
        <ele>6.604507</ele>
        <time>2026-03-20T12:41:56.440Z</time>
      </trkpt>
      <trkpt lat="53.087256" lon="8.733565">
        <ele>6.631611</ele>
        <time>2026-03-20T12:42:14.140Z</time>
      </trkpt>
      <trkpt lat="53.087217" lon="8.733331">
        <ele>6.562103</ele>
        <time>2026-03-20T12:42:18.351Z</time>
      </trkpt>
      <trkpt lat="53.087304" lon="8.733285">
        <ele>6.518601</ele>
        <time>2026-03-20T12:42:20.355Z</time>
      </trkpt>
      <trkpt lat="53.087476" lon="8.733200">
        <ele>6.433096</ele>
        <time>2026-03-20T12:42:24.219Z</time>
      </trkpt>
      <trkpt lat="53.087601" lon="8.733189">
        <ele>6.373442</ele>
        <time>2026-03-20T12:42:26.882Z</time>
      </trkpt>
      <trkpt lat="53.087773" lon="8.733174">
        <ele>6.291359</ele>
        <time>2026-03-20T12:42:30.496Z</time>
      </trkpt>
      <trkpt lat="53.091640" lon="8.730890">
        <ele>2.619639</ele>
        <time>2026-03-20T12:43:48.660Z</time>
      </trkpt>
      <trkpt lat="53.097963" lon="8.727141">
        <ele>3.227509</ele>
        <time>2026-03-20T12:46:22.165Z</time>
      </trkpt>
      <trkpt lat="53.104791" lon="8.723097">
        <ele>2.904284</ele>
        <time>2026-03-20T12:49:03.550Z</time>
      </trkpt>
      <trkpt lat="53.105952" lon="8.722400">
        <ele>2.212434</ele>
        <time>2026-03-20T12:49:27.655Z</time>
      </trkpt>
      <trkpt lat="53.106038" lon="8.722431">
        <ele>2.139576</ele>
        <time>2026-03-20T12:49:29.287Z</time>
      </trkpt>
      <trkpt lat="53.106184" lon="8.722491">
        <ele>2.015062</ele>
        <time>2026-03-20T12:49:32.175Z</time>
      </trkpt>
      <trkpt lat="53.106454" lon="8.722804">
        <ele>1.742687</ele>
        <time>2026-03-20T12:49:38.493Z</time>
      </trkpt>
      <trkpt lat="53.106791" lon="8.723480">
        <ele>1.305908</ele>
        <time>2026-03-20T12:49:48.675Z</time>
      </trkpt>
      <trkpt lat="53.108588" lon="8.726256">
        <ele>0.914711</ele>
        <time>2026-03-20T12:50:41.055Z</time>
      </trkpt>
      <trkpt lat="53.108939" lon="8.726682">
        <ele>1.146486</ele>
        <time>2026-03-20T12:50:51.737Z</time>
      </trkpt>
      <trkpt lat="53.109333" lon="8.727033">
        <ele>1.384945</ele>
        <time>2026-03-20T12:51:03.227Z</time>
      </trkpt>
      <trkpt lat="53.109654" lon="8.727238">
        <ele>1.568421</ele>
        <time>2026-03-20T12:51:12.161Z</time>
      </trkpt>
      <trkpt lat="53.109879" lon="8.727331">
        <ele>1.740445</ele>
        <time>2026-03-20T12:51:18.251Z</time>
      </trkpt>
      <trkpt lat="53.110160" lon="8.727408">
        <ele>1.998564</ele>
        <time>2026-03-20T12:51:25.726Z</time>
      </trkpt>
      <trkpt lat="53.110681" lon="8.727417">
        <ele>2.470819</ele>
        <time>2026-03-20T12:51:39.718Z</time>
      </trkpt>
      <trkpt lat="53.110885" lon="8.727359">
        <ele>2.658397</ele>
        <time>2026-03-20T12:51:45.310Z</time>
      </trkpt>
      <trkpt lat="53.111090" lon="8.727301">
        <ele>2.846868</ele>
        <time>2026-03-20T12:51:50.728Z</time>
      </trkpt>
      <trkpt lat="53.111299" lon="8.727187">
        <ele>3.046199</ele>
        <time>2026-03-20T12:51:56.268Z</time>
      </trkpt>
      <trkpt lat="53.111577" lon="8.726954">
        <ele>3.257016</ele>
        <time>2026-03-20T12:52:03.927Z</time>
      </trkpt>
      <trkpt lat="53.111732" lon="8.726777">
        <ele>3.265560</ele>
        <time>2026-03-20T12:52:08.511Z</time>
      </trkpt>
      <trkpt lat="53.112042" lon="8.726320">
        <ele>3.284379</ele>
        <time>2026-03-20T12:52:18.220Z</time>
      </trkpt>
      <trkpt lat="53.112542" lon="8.725249">
        <ele>3.321406</ele>
        <time>2026-03-20T12:52:35.760Z</time>
      </trkpt>
      <trkpt lat="53.112803" lon="8.724594">
        <ele>3.319930</ele>
        <time>2026-03-20T12:52:45.463Z</time>
      </trkpt>
      <trkpt lat="53.113241" lon="8.723316">
        <ele>3.242534</ele>
        <time>2026-03-20T12:53:04.608Z</time>
      </trkpt>
      <trkpt lat="53.113807" lon="8.721727">
        <ele>3.245414</ele>
        <time>2026-03-20T12:53:29.655Z</time>
      </trkpt>
      <trkpt lat="53.114264" lon="8.720289">
        <ele>3.426775</ele>
        <time>2026-03-20T12:53:52.061Z</time>
      </trkpt>
      <trkpt lat="53.114783" lon="8.718457">
        <ele>3.418122</ele>
        <time>2026-03-20T12:54:20.286Z</time>
      </trkpt>
      <trkpt lat="53.115100" lon="8.717223">
        <ele>3.319196</ele>
        <time>2026-03-20T12:54:37.339Z</time>
      </trkpt>
      <trkpt lat="53.115508" lon="8.715437">
        <ele>3.329385</ele>
        <time>2026-03-20T12:55:01.000Z</time>
      </trkpt>
      <trkpt lat="53.115571" lon="8.714965">
        <ele>3.341705</ele>
        <time>2026-03-20T12:55:07.668Z</time>
      </trkpt>
      <trkpt lat="53.115875" lon="8.713543">
        <ele>3.497701</ele>
        <time>2026-03-20T12:55:30.451Z</time>
      </trkpt>
      <trkpt lat="53.116191" lon="8.711811">
        <ele>3.953691</ele>
        <time>2026-03-20T12:55:57.536Z</time>
      </trkpt>
      <trkpt lat="53.116648" lon="8.708381">
        <ele>3.916821</ele>
        <time>2026-03-20T12:56:42.071Z</time>
      </trkpt>
      <trkpt lat="53.116782" lon="8.707170">
        <ele>4.255001</ele>
        <time>2026-03-20T12:57:00.123Z</time>
      </trkpt>
      <trkpt lat="53.116890" lon="8.705932">
        <ele>4.659027</ele>
        <time>2026-03-20T12:57:19.657Z</time>
      </trkpt>
      <trkpt lat="53.116875" lon="8.705928">
        <ele>4.667201</ele>
        <time>2026-03-20T12:57:20.696Z</time>
      </trkpt>
      <trkpt lat="53.116835" lon="8.705919">
        <ele>4.688921</ele>
        <time>2026-03-20T12:57:25.687Z</time>
      </trkpt>
      <trkpt lat="53.116798" lon="8.705910">
        <ele>4.709042</ele>
        <time>2026-03-20T12:57:28.262Z</time>
      </trkpt>
      <trkpt lat="53.116813" lon="8.705754">
        <ele>4.760066</ele>
        <time>2026-03-20T12:57:31.303Z</time>
      </trkpt>
      <trkpt lat="53.116633" lon="8.705627">
        <ele>4.865250</ele>
        <time>2026-03-20T12:57:37.422Z</time>
      </trkpt>
      <trkpt lat="53.116455" lon="8.705295">
        <ele>4.878036</ele>
        <time>2026-03-20T12:57:45.519Z</time>
      </trkpt>
      <trkpt lat="53.115920" lon="8.704058">
        <ele>4.893393</ele>
        <time>2026-03-20T12:58:11.642Z</time>
      </trkpt>
      <trkpt lat="53.116026" lon="8.703772">
        <ele>4.896778</ele>
        <time>2026-03-20T12:58:15.948Z</time>
      </trkpt>
      <trkpt lat="53.116245" lon="8.703394">
        <ele>4.902070</ele>
        <time>2026-03-20T12:58:22.848Z</time>
      </trkpt>
      <trkpt lat="53.116409" lon="8.703067">
        <ele>4.945092</ele>
        <time>2026-03-20T12:58:28.583Z</time>
      </trkpt>
      <trkpt lat="53.116474" lon="8.702874">
        <ele>4.983916</ele>
        <time>2026-03-20T12:58:31.613Z</time>
      </trkpt>
      <trkpt lat="53.116591" lon="8.702118">
        <ele>5.120878</ele>
        <time>2026-03-20T12:58:42.695Z</time>
      </trkpt>
      <trkpt lat="53.116613" lon="8.701870">
        <ele>5.164857</ele>
        <time>2026-03-20T12:58:46.425Z</time>
      </trkpt>
      <trkpt lat="53.116653" lon="8.701420">
        <ele>5.244661</ele>
        <time>2026-03-20T12:58:53.119Z</time>
      </trkpt>
      <trkpt lat="53.116719" lon="8.700641">
        <ele>5.382675</ele>
        <time>2026-03-20T12:59:04.316Z</time>
      </trkpt>
      <trkpt lat="53.116740" lon="8.700082">
        <ele>5.416881</ele>
        <time>2026-03-20T12:59:11.985Z</time>
      </trkpt>
      <trkpt lat="53.116694" lon="8.699448">
        <ele>5.388779</ele>
        <time>2026-03-20T12:59:20.554Z</time>
      </trkpt>
      <trkpt lat="53.116570" lon="8.698414">
        <ele>5.342377</ele>
        <time>2026-03-20T12:59:34.528Z</time>
      </trkpt>
      <trkpt lat="53.116534" lon="8.698137">
        <ele>5.329905</ele>
        <time>2026-03-20T12:59:38.073Z</time>
      </trkpt>
      <trkpt lat="53.116499" lon="8.697643">
        <ele>5.308015</ele>
        <time>2026-03-20T12:59:44.314Z</time>
      </trkpt>
      <trkpt lat="53.116509" lon="8.697408">
        <ele>5.297445</ele>
        <time>2026-03-20T12:59:47.305Z</time>
      </trkpt>
      <trkpt lat="53.116546" lon="8.697163">
        <ele>5.275154</ele>
        <time>2026-03-20T12:59:50.553Z</time>
      </trkpt>
      <trkpt lat="53.116708" lon="8.696456">
        <ele>5.208380</ele>
        <time>2026-03-20T13:00:00.349Z</time>
      </trkpt>
      <trkpt lat="53.116758" lon="8.696134">
        <ele>5.179033</ele>
        <time>2026-03-20T13:00:04.598Z</time>
      </trkpt>
      <trkpt lat="53.116790" lon="8.695690">
        <ele>5.139576</ele>
        <time>2026-03-20T13:00:10.270Z</time>
      </trkpt>
      <trkpt lat="53.116894" lon="8.695684">
        <ele>5.124277</ele>
        <time>2026-03-20T13:00:12.529Z</time>
      </trkpt>
      <trkpt lat="53.117303" lon="8.695450">
        <ele>5.060703</ele>
        <time>2026-03-20T13:00:21.986Z</time>
      </trkpt>
      <trkpt lat="53.117584" lon="8.695251">
        <ele>5.038102</ele>
        <time>2026-03-20T13:00:28.993Z</time>
      </trkpt>
      <trkpt lat="53.117661" lon="8.695041">
        <ele>5.043865</ele>
        <time>2026-03-20T13:00:32.353Z</time>
      </trkpt>
      <trkpt lat="53.117724" lon="8.694752">
        <ele>5.051065</ele>
        <time>2026-03-20T13:00:36.524Z</time>
      </trkpt>
      <trkpt lat="53.117808" lon="8.694143">
        <ele>5.065699</ele>
        <time>2026-03-20T13:00:44.955Z</time>
      </trkpt>
      <trkpt lat="53.117872" lon="8.692754">
        <ele>5.098322</ele>
        <time>2026-03-20T13:01:04.012Z</time>
      </trkpt>
      <trkpt lat="53.117817" lon="8.692044">
        <ele>5.027799</ele>
        <time>2026-03-20T13:01:13.290Z</time>
      </trkpt>
      <trkpt lat="53.118240" lon="8.692068">
        <ele>4.918723</ele>
        <time>2026-03-20T13:01:22.153Z</time>
      </trkpt>
      <trkpt lat="53.118274" lon="8.691971">
        <ele>4.901349</ele>
        <time>2026-03-20T13:01:23.542Z</time>
      </trkpt>
      <trkpt lat="53.118314" lon="8.691503">
        <ele>4.828232</ele>
        <time>2026-03-20T13:01:29.503Z</time>
      </trkpt>
      <trkpt lat="53.118487" lon="8.690257">
        <ele>4.645574</ele>
        <time>2026-03-20T13:01:45.396Z</time>
      </trkpt>
      <trkpt lat="53.119169" lon="8.687420">
        <ele>4.907932</ele>
        <time>2026-03-20T13:02:27.985Z</time>
      </trkpt>
      <trkpt lat="53.119364" lon="8.686560">
        <ele>4.935847</ele>
        <time>2026-03-20T13:02:40.739Z</time>
      </trkpt>
      <trkpt lat="53.121621" lon="8.676979">
        <ele>5.180552</ele>
        <time>2026-03-20T13:04:58.721Z</time>
      </trkpt>
      <trkpt lat="53.122581" lon="8.672823">
        <ele>5.119157</ele>
        <time>2026-03-20T13:05:57.740Z</time>
      </trkpt>
      <trkpt lat="53.123028" lon="8.670835">
        <ele>5.117411</ele>
        <time>2026-03-20T13:06:25.863Z</time>
      </trkpt>
      <trkpt lat="53.123076" lon="8.670623">
        <ele>5.143101</ele>
        <time>2026-03-20T13:06:28.873Z</time>
      </trkpt>
      <trkpt lat="53.123090" lon="8.670376">
        <ele>5.184660</ele>
        <time>2026-03-20T13:06:32.199Z</time>
      </trkpt>
      <trkpt lat="53.122992" lon="8.669231">
        <ele>5.378399</ele>
        <time>2026-03-20T13:06:48.141Z</time>
      </trkpt>
      <trkpt lat="53.122942" lon="8.669065">
        <ele>5.409512</ele>
        <time>2026-03-20T13:06:50.769Z</time>
      </trkpt>
      <trkpt lat="53.122863" lon="8.668954">
        <ele>5.438356</ele>
        <time>2026-03-20T13:06:53.229Z</time>
      </trkpt>
      <trkpt lat="53.121333" lon="8.668107">
        <ele>5.958965</ele>
        <time>2026-03-20T13:07:32.351Z</time>
      </trkpt>
      <trkpt lat="53.121276" lon="8.667575">
        <ele>6.073248</ele>
        <time>2026-03-20T13:07:40.005Z</time>
      </trkpt>
      <trkpt lat="53.121287" lon="8.667086">
        <ele>6.176730</ele>
        <time>2026-03-20T13:07:46.816Z</time>
      </trkpt>
      <trkpt lat="53.121319" lon="8.665506">
        <ele>6.058644</ele>
        <time>2026-03-20T13:08:08.066Z</time>
      </trkpt>
      <trkpt lat="53.121362" lon="8.662121">
        <ele>4.924678</ele>
        <time>2026-03-20T13:08:49.919Z</time>
      </trkpt>
      <trkpt lat="53.121416" lon="8.660274">
        <ele>3.898678</ele>
        <time>2026-03-20T13:09:10.608Z</time>
      </trkpt>
      <trkpt lat="53.121513" lon="8.658877">
        <ele>3.007745</ele>
        <time>2026-03-20T13:09:26.432Z</time>
      </trkpt>
      <trkpt lat="53.121527" lon="8.658728">
        <ele>2.912201</ele>
        <time>2026-03-20T13:09:28.188Z</time>
      </trkpt>
      <trkpt lat="53.121658" lon="8.657497">
        <ele>2.209519</ele>
        <time>2026-03-20T13:09:43.208Z</time>
      </trkpt>
      <trkpt lat="53.122007" lon="8.656065">
        <ele>1.741724</ele>
        <time>2026-03-20T13:10:01.486Z</time>
      </trkpt>
      <trkpt lat="53.123319" lon="8.651704">
        <ele>1.554829</ele>
        <time>2026-03-20T13:11:05.989Z</time>
      </trkpt>
      <trkpt lat="53.123420" lon="8.651278">
        <ele>1.707862</ele>
        <time>2026-03-20T13:11:12.208Z</time>
      </trkpt>
      <trkpt lat="53.123424" lon="8.650430">
        <ele>1.991189</ele>
        <time>2026-03-20T13:11:24.457Z</time>
      </trkpt>
      <trkpt lat="53.123366" lon="8.649902">
        <ele>2.170526</ele>
        <time>2026-03-20T13:11:33.231Z</time>
      </trkpt>
      <trkpt lat="53.123332" lon="8.649667">
        <ele>2.251290</ele>
        <time>2026-03-20T13:11:37.250Z</time>
      </trkpt>
      <trkpt lat="53.123282" lon="8.649315">
        <ele>2.395774</ele>
        <time>2026-03-20T13:11:43.205Z</time>
      </trkpt>
      <trkpt lat="53.123226" lon="8.648921">
        <ele>2.595436</ele>
        <time>2026-03-20T13:11:50.032Z</time>
      </trkpt>
      <trkpt lat="53.123207" lon="8.648785">
        <ele>2.664293</ele>
        <time>2026-03-20T13:11:52.371Z</time>
      </trkpt>
      <trkpt lat="53.123188" lon="8.648652">
        <ele>2.731710</ele>
        <time>2026-03-20T13:11:54.634Z</time>
      </trkpt>
      <trkpt lat="53.123168" lon="8.648504">
        <ele>2.806518</ele>
        <time>2026-03-20T13:11:57.170Z</time>
      </trkpt>
      <trkpt lat="53.123055" lon="8.647601">
        <ele>3.261380</ele>
        <time>2026-03-20T13:12:12.277Z</time>
      </trkpt>
      <trkpt lat="53.123074" lon="8.647333">
        <ele>3.394454</ele>
        <time>2026-03-20T13:12:16.822Z</time>
      </trkpt>
      <trkpt lat="53.123183" lon="8.647231">
        <ele>3.497178</ele>
        <time>2026-03-20T13:12:20.018Z</time>
      </trkpt>
      <trkpt lat="53.124107" lon="8.646992">
        <ele>3.531701</ele>
        <time>2026-03-20T13:12:39.209Z</time>
      </trkpt>
      <trkpt lat="53.124186" lon="8.646992">
        <ele>3.494183</ele>
        <time>2026-03-20T13:12:40.708Z</time>
      </trkpt>
      <trkpt lat="53.124331" lon="8.646992">
        <ele>3.425321</ele>
        <time>2026-03-20T13:12:43.499Z</time>
      </trkpt>
      <trkpt lat="53.124308" lon="8.647268">
        <ele>3.345910</ele>
        <time>2026-03-20T13:12:47.915Z</time>
      </trkpt>
      <trkpt lat="53.124572" lon="8.647542">
        <ele>3.198205</ele>
        <time>2026-03-20T13:12:54.099Z</time>
      </trkpt>
      <trkpt lat="53.124921" lon="8.647583">
        <ele>3.032049</ele>
        <time>2026-03-20T13:13:01.295Z</time>
      </trkpt>
      <trkpt lat="53.125222" lon="8.647466">
        <ele>2.928156</ele>
        <time>2026-03-20T13:13:07.889Z</time>
      </trkpt>
      <trkpt lat="53.125702" lon="8.647092">
        <ele>2.853397</ele>
        <time>2026-03-20T13:13:20.116Z</time>
      </trkpt>
      <trkpt lat="53.126136" lon="8.646679">
        <ele>2.782884</ele>
        <time>2026-03-20T13:13:31.756Z</time>
      </trkpt>
      <trkpt lat="53.126524" lon="8.646258">
        <ele>2.717561</ele>
        <time>2026-03-20T13:13:41.625Z</time>
      </trkpt>
      <trkpt lat="53.126929" lon="8.645716">
        <ele>2.553058</ele>
        <time>2026-03-20T13:13:51.967Z</time>
      </trkpt>
      <trkpt lat="53.127326" lon="8.645143">
        <ele>2.338842</ele>
        <time>2026-03-20T13:14:02.463Z</time>
      </trkpt>
      <trkpt lat="53.127657" lon="8.644592">
        <ele>2.148018</ele>
        <time>2026-03-20T13:14:12.273Z</time>
      </trkpt>
      <trkpt lat="53.127745" lon="8.644393">
        <ele>2.087517</ele>
        <time>2026-03-20T13:14:15.465Z</time>
      </trkpt>
      <trkpt lat="53.127910" lon="8.643984">
        <ele>1.966896</ele>
        <time>2026-03-20T13:14:21.911Z</time>
      </trkpt>
      <trkpt lat="53.128262" lon="8.643113">
        <ele>1.862518</ele>
        <time>2026-03-20T13:14:35.977Z</time>
      </trkpt>
      <trkpt lat="53.129319" lon="8.641120">
        <ele>1.589128</ele>
        <time>2026-03-20T13:15:10.270Z</time>
      </trkpt>
      <trkpt lat="53.129982" lon="8.640014">
        <ele>1.391694</ele>
        <time>2026-03-20T13:15:30.418Z</time>
      </trkpt>
      <trkpt lat="53.131918" lon="8.637018">
        <ele>0.822694</ele>
        <time>2026-03-20T13:16:26.668Z</time>
      </trkpt>
      <trkpt lat="53.132902" lon="8.635637">
        <ele>0.606758</ele>
        <time>2026-03-20T13:16:54.283Z</time>
      </trkpt>
      <trkpt lat="53.134390" lon="8.633817">
        <ele>0.761671</ele>
        <time>2026-03-20T13:17:36.634Z</time>
      </trkpt>
      <trkpt lat="53.135481" lon="8.632586">
        <ele>0.826583</ele>
        <time>2026-03-20T13:18:05.781Z</time>
      </trkpt>
      <trkpt lat="53.136352" lon="8.631663">
        <ele>0.864864</ele>
        <time>2026-03-20T13:18:29.179Z</time>
      </trkpt>
      <trkpt lat="53.138329" lon="8.630032">
        <ele>0.779894</ele>
        <time>2026-03-20T13:19:18.453Z</time>
      </trkpt>
      <trkpt lat="53.139688" lon="8.629062">
        <ele>0.544382</ele>
        <time>2026-03-20T13:19:49.769Z</time>
      </trkpt>
      <trkpt lat="53.141336" lon="8.628075">
        <ele>0.320516</ele>
        <time>2026-03-20T13:20:27.612Z</time>
      </trkpt>
      <trkpt lat="53.142814" lon="8.627285">
        <ele>0.402417</ele>
        <time>2026-03-20T13:21:02.955Z</time>
      </trkpt>
      <trkpt lat="53.143945" lon="8.626820">
        <ele>0.542496</ele>
        <time>2026-03-20T13:21:29.702Z</time>
      </trkpt>
      <trkpt lat="53.145612" lon="8.626135">
        <ele>0.530560</ele>
        <time>2026-03-20T13:22:07.946Z</time>
      </trkpt>
      <trkpt lat="53.146707" lon="8.625819">
        <ele>0.542235</ele>
        <time>2026-03-20T13:22:31.735Z</time>
      </trkpt>
      <trkpt lat="53.147406" lon="8.625663">
        <ele>0.574175</ele>
        <time>2026-03-20T13:22:47.475Z</time>
      </trkpt>
      <trkpt lat="53.154714" lon="8.624449">
        <ele>3.125847</ele>
        <time>2026-03-20T13:25:42.246Z</time>
      </trkpt>
      <trkpt lat="53.154961" lon="8.624332">
        <ele>3.197810</ele>
        <time>2026-03-20T13:25:47.884Z</time>
      </trkpt>
      <trkpt lat="53.155164" lon="8.624370">
        <ele>3.170402</ele>
        <time>2026-03-20T13:25:52.323Z</time>
      </trkpt>
      <trkpt lat="53.155549" lon="8.624320">
        <ele>3.098956</ele>
        <time>2026-03-20T13:26:00.626Z</time>
      </trkpt>
      <trkpt lat="53.158157" lon="8.623894">
        <ele>2.641191</ele>
        <time>2026-03-20T13:26:56.619Z</time>
      </trkpt>
      <trkpt lat="53.159855" lon="8.623571">
        <ele>3.142820</ele>
        <time>2026-03-20T13:27:35.448Z</time>
      </trkpt>
      <trkpt lat="53.160166" lon="8.623495">
        <ele>3.280431</ele>
        <time>2026-03-20T13:27:43.622Z</time>
      </trkpt>
      <trkpt lat="53.160500" lon="8.623414">
        <ele>3.454755</ele>
        <time>2026-03-20T13:27:53.155Z</time>
      </trkpt>
      <trkpt lat="53.161169" lon="8.622834">
        <ele>3.915306</ele>
        <time>2026-03-20T13:28:13.897Z</time>
      </trkpt>
      <trkpt lat="53.161220" lon="8.622755">
        <ele>3.957821</ele>
        <time>2026-03-20T13:28:15.687Z</time>
      </trkpt>
      <trkpt lat="53.161253" lon="8.622641">
        <ele>4.004182</ele>
        <time>2026-03-20T13:28:17.505Z</time>
      </trkpt>
      <trkpt lat="53.161303" lon="8.622201">
        <ele>4.168191</ele>
        <time>2026-03-20T13:28:23.811Z</time>
      </trkpt>
      <trkpt lat="53.161336" lon="8.620614">
        <ele>4.150118</ele>
        <time>2026-03-20T13:28:43.730Z</time>
      </trkpt>
      <trkpt lat="53.161664" lon="8.620453">
        <ele>3.927296</ele>
        <time>2026-03-20T13:28:50.158Z</time>
      </trkpt>
      <trkpt lat="53.161803" lon="8.620387">
        <ele>3.833110</ele>
        <time>2026-03-20T13:28:52.894Z</time>
      </trkpt>
      <trkpt lat="53.162763" lon="8.619919">
        <ele>3.267821</ele>
        <time>2026-03-20T13:29:13.107Z</time>
      </trkpt>
      <trkpt lat="53.163060" lon="8.619721">
        <ele>3.229257</ele>
        <time>2026-03-20T13:29:19.847Z</time>
      </trkpt>
      <trkpt lat="53.163310" lon="8.619499">
        <ele>3.195109</ele>
        <time>2026-03-20T13:29:25.931Z</time>
      </trkpt>
      <trkpt lat="53.163806" lon="8.618887">
        <ele>3.120722</ele>
        <time>2026-03-20T13:29:39.548Z</time>
      </trkpt>
      <trkpt lat="53.164147" lon="8.618401">
        <ele>3.080770</ele>
        <time>2026-03-20T13:29:49.554Z</time>
      </trkpt>
      <trkpt lat="53.164564" lon="8.617640">
        <ele>3.272378</ele>
        <time>2026-03-20T13:30:04.216Z</time>
      </trkpt>
      <trkpt lat="53.164640" lon="8.617322">
        <ele>3.336001</ele>
        <time>2026-03-20T13:30:09.382Z</time>
      </trkpt>
      <trkpt lat="53.164845" lon="8.617340">
        <ele>3.399639</ele>
        <time>2026-03-20T13:30:14.833Z</time>
      </trkpt>
      <trkpt lat="53.165030" lon="8.617434">
        <ele>3.459591</ele>
        <time>2026-03-20T13:30:19.953Z</time>
      </trkpt>
      <trkpt lat="53.165091" lon="8.617495">
        <ele>3.481638</ele>
        <time>2026-03-20T13:30:21.807Z</time>
      </trkpt>
      <trkpt lat="53.165634" lon="8.618176">
        <ele>3.378432</ele>
        <time>2026-03-20T13:30:37.896Z</time>
      </trkpt>
      <trkpt lat="53.165763" lon="8.618248">
        <ele>3.214040</ele>
        <time>2026-03-20T13:30:40.880Z</time>
      </trkpt>
      <trkpt lat="53.165728" lon="8.618172">
        <ele>3.144607</ele>
        <time>2026-03-20T13:30:42.037Z</time>
      </trkpt>
      <trkpt lat="53.165763" lon="8.618248">
        <ele>3.075174</ele>
        <time>2026-03-20T13:30:46.038Z</time>
      </trkpt>
      <trkpt lat="53.165891" lon="8.618318">
        <ele>2.912385</ele>
        <time>2026-03-20T13:30:48.662Z</time>
      </trkpt>
      <trkpt lat="53.166307" lon="8.618173">
        <ele>2.398791</ele>
        <time>2026-03-20T13:30:56.494Z</time>
      </trkpt>
      <trkpt lat="53.167061" lon="8.617939">
        <ele>1.471947</ele>
        <time>2026-03-20T13:31:07.151Z</time>
      </trkpt>
      <trkpt lat="53.167396" lon="8.618205">
        <ele>1.206254</ele>
        <time>2026-03-20T13:31:12.315Z</time>
      </trkpt>
      <trkpt lat="53.167600" lon="8.618493">
        <ele>1.020191</ele>
        <time>2026-03-20T13:31:16.028Z</time>
      </trkpt>
      <trkpt lat="53.167751" lon="8.618769">
        <ele>0.864241</ele>
        <time>2026-03-20T13:31:19.139Z</time>
      </trkpt>
      <trkpt lat="53.167979" lon="8.619258">
        <ele>0.605690</ele>
        <time>2026-03-20T13:31:24.303Z</time>
      </trkpt>
      <trkpt lat="53.168161" lon="8.619987">
        <ele>0.276107</ele>
        <time>2026-03-20T13:31:30.880Z</time>
      </trkpt>
      <trkpt lat="53.168264" lon="8.620920">
        <ele>0.425697</ele>
        <time>2026-03-20T13:31:38.787Z</time>
      </trkpt>
      <trkpt lat="53.168410" lon="8.621693">
        <ele>0.660288</ele>
        <time>2026-03-20T13:31:45.541Z</time>
      </trkpt>
      <trkpt lat="53.168615" lon="8.622545">
        <ele>0.926026</ele>
        <time>2026-03-20T13:31:53.190Z</time>
      </trkpt>
      <trkpt lat="53.168689" lon="8.622819">
        <ele>1.013013</ele>
        <time>2026-03-20T13:31:57.461Z</time>
      </trkpt>
      <trkpt lat="53.168611" lon="8.622960">
        <ele>1.068548</ele>
        <time>2026-03-20T13:32:05.454Z</time>
      </trkpt>
      <trkpt lat="53.168573" lon="8.622911">
        <ele>1.103826</ele>
        <time>2026-03-20T13:32:08.783Z</time>
      </trkpt>
      <trkpt lat="53.168450" lon="8.623106">
        <ele>1.232990</ele>
        <time>2026-03-20T13:32:20.603Z</time>
      </trkpt>
      <trkpt lat="53.168359" lon="8.623005">
        <ele>1.316189</ele>
        <time>2026-03-20T13:32:28.215Z</time>
      </trkpt>
      <trkpt lat="53.168255" lon="8.623092">
        <ele>1.404749</ele>
        <time>2026-03-20T13:32:36.292Z</time>
      </trkpt>
      <trkpt lat="53.168065" lon="8.623252">
        <ele>1.566759</ele>
        <time>2026-03-20T13:32:51.061Z</time>
      </trkpt>
      <trkpt lat="53.168051" lon="8.623308">
        <ele>1.594445</ele>
        <time>2026-03-20T13:32:53.573Z</time>
      </trkpt>
      <trkpt lat="53.168083" lon="8.623331">
        <ele>1.620968</ele>
        <time>2026-03-20T13:32:55.995Z</time>
      </trkpt>
      <trkpt lat="53.168235" lon="8.623437">
        <ele>1.746372</ele>
        <time>2026-03-20T13:33:07.425Z</time>
      </trkpt>
      <trkpt lat="53.168158" lon="8.623514">
        <ele>1.814708</ele>
        <time>2026-03-20T13:33:13.710Z</time>
      </trkpt>
      <trkpt lat="53.168151" lon="8.623554">
        <ele>1.833723</ele>
        <time>2026-03-20T13:33:15.458Z</time>
      </trkpt>
      <trkpt lat="53.168160" lon="8.623768">
        <ele>1.931613</ele>
        <time>2026-03-20T13:33:24.394Z</time>
      </trkpt>
      <trkpt lat="53.168170" lon="8.623983">
        <ele>2.030014</ele>
        <time>2026-03-20T13:33:33.371Z</time>
      </trkpt>
      <trkpt lat="53.168126" lon="8.624092">
        <ele>2.089977</ele>
        <time>2026-03-20T13:33:38.883Z</time>
      </trkpt>
      <trkpt lat="53.168147" lon="8.624361">
        <ele>2.213761</ele>
        <time>2026-03-20T13:33:50.175Z</time>
      </trkpt>
      <trkpt lat="53.168250" lon="8.624731">
        <ele>2.399911</ele>
        <time>2026-03-20T13:34:07.148Z</time>
      </trkpt>
      <trkpt lat="53.168357" lon="8.624918">
        <ele>2.479181</ele>
        <time>2026-03-20T13:34:17.943Z</time>
      </trkpt>
      <trkpt lat="53.168370" lon="8.624940">
        <ele>2.486285</ele>
        <time>2026-03-20T13:34:19.240Z</time>
      </trkpt>
      <trkpt lat="53.168356" lon="8.624966">
        <ele>2.494321</ele>
        <time>2026-03-20T13:34:20.703Z</time>
      </trkpt>
      <trkpt lat="53.168063" lon="8.625437">
        <ele>2.650398</ele>
        <time>2026-03-20T13:34:48.955Z</time>
      </trkpt>
      <trkpt lat="53.167946" lon="8.625626">
        <ele>2.712870</ele>
        <time>2026-03-20T13:35:00.290Z</time>
      </trkpt>
      <trkpt lat="53.167813" lon="8.625927">
        <ele>2.798852</ele>
        <time>2026-03-20T13:35:07.177Z</time>
      </trkpt>
      <trkpt lat="53.167799" lon="8.625958">
        <ele>2.807777</ele>
        <time>2026-03-20T13:35:07.884Z</time>
      </trkpt>
      <trkpt lat="53.167743" lon="8.626085">
        <ele>2.844029</ele>
        <time>2026-03-20T13:35:10.614Z</time>
      </trkpt>
      <trkpt lat="53.167543" lon="8.626519">
        <ele>2.969903</ele>
        <time>2026-03-20T13:35:20.305Z</time>
      </trkpt>
      <trkpt lat="53.167488" lon="8.626639">
        <ele>3.004637</ele>
        <time>2026-03-20T13:35:22.914Z</time>
      </trkpt>
      <trkpt lat="53.167120" lon="8.626280">
        <ele>3.071001</ele>
        <time>2026-03-20T13:35:34.383Z</time>
      </trkpt>
      <trkpt lat="53.167029" lon="8.626232">
        <ele>3.014901</ele>
        <time>2026-03-20T13:35:36.883Z</time>
      </trkpt>
      <trkpt lat="53.167003" lon="8.626186">
        <ele>2.992624</ele>
        <time>2026-03-20T13:35:37.587Z</time>
      </trkpt>
      <trkpt lat="53.166919" lon="8.626074">
        <ele>2.929414</ele>
        <time>2026-03-20T13:35:39.612Z</time>
      </trkpt>
      <trkpt lat="53.166813" lon="8.625965">
        <ele>2.856220</ele>
        <time>2026-03-20T13:35:41.965Z</time>
      </trkpt>
      <trkpt lat="53.166751" lon="8.625989">
        <ele>2.818808</ele>
        <time>2026-03-20T13:35:43.145Z</time>
      </trkpt>
      <trkpt lat="53.166579" lon="8.626317">
        <ele>2.665250</ele>
        <time>2026-03-20T13:35:47.830Z</time>
      </trkpt>
      <trkpt lat="53.166408" lon="8.626645">
        <ele>2.512078</ele>
        <time>2026-03-20T13:35:52.490Z</time>
      </trkpt>
      <trkpt lat="53.165522" lon="8.628386">
        <ele>3.036899</ele>
        <time>2026-03-20T13:36:24.773Z</time>
      </trkpt>
      <trkpt lat="53.165695" lon="8.629188">
        <ele>3.829967</ele>
        <time>2026-03-20T13:36:40.536Z</time>
      </trkpt>
      <trkpt lat="53.165748" lon="8.629540">
        <ele>4.167662</ele>
        <time>2026-03-20T13:36:47.389Z</time>
      </trkpt>
      <trkpt lat="53.165762" lon="8.629693">
        <ele>4.311671</ele>
        <time>2026-03-20T13:36:50.444Z</time>
      </trkpt>
      <trkpt lat="53.165713" lon="8.629854">
        <ele>4.479674</ele>
        <time>2026-03-20T13:36:54.049Z</time>
      </trkpt>
      <trkpt lat="53.165402" lon="8.630341">
        <ele>5.005685</ele>
        <time>2026-03-20T13:37:08.299Z</time>
      </trkpt>
      <trkpt lat="53.165112" lon="8.630942">
        <ele>5.371699</ele>
        <time>2026-03-20T13:37:20.729Z</time>
      </trkpt>
      <trkpt lat="53.164923" lon="8.631288">
        <ele>5.593771</ele>
        <time>2026-03-20T13:37:27.202Z</time>
      </trkpt>
      <trkpt lat="53.164666" lon="8.631642">
        <ele>5.857532</ele>
        <time>2026-03-20T13:37:34.494Z</time>
      </trkpt>
      <trkpt lat="53.164364" lon="8.631982">
        <ele>6.145866</ele>
        <time>2026-03-20T13:37:42.699Z</time>
      </trkpt>
      <trkpt lat="53.164210" lon="8.632341">
        <ele>6.255522</ele>
        <time>2026-03-20T13:37:49.115Z</time>
      </trkpt>
      <trkpt lat="53.164141" lon="8.632670">
        <ele>6.177441</ele>
        <time>2026-03-20T13:37:55.479Z</time>
      </trkpt>
      <trkpt lat="53.164059" lon="8.633290">
        <ele>6.035212</ele>
        <time>2026-03-20T13:38:06.729Z</time>
      </trkpt>
      <trkpt lat="53.163956" lon="8.633784">
        <ele>5.918046</ele>
        <time>2026-03-20T13:38:15.439Z</time>
      </trkpt>
      <trkpt lat="53.163942" lon="8.634097">
        <ele>5.847734</ele>
        <time>2026-03-20T13:38:19.740Z</time>
      </trkpt>
      <trkpt lat="53.163969" lon="8.634317">
        <ele>5.797428</ele>
        <time>2026-03-20T13:38:22.852Z</time>
      </trkpt>
      <trkpt lat="53.163918" lon="8.634279">
        <ele>5.776557</ele>
        <time>2026-03-20T13:38:24.310Z</time>
      </trkpt>
      <trkpt lat="53.163899" lon="8.634208">
        <ele>5.759139</ele>
        <time>2026-03-20T13:38:25.574Z</time>
      </trkpt>
      <trkpt lat="53.163876" lon="8.633956">
        <ele>5.702036</ele>
        <time>2026-03-20T13:38:29.710Z</time>
      </trkpt>
      <trkpt lat="53.163808" lon="8.634154">
        <ele>5.650919</ele>
        <time>2026-03-20T13:38:33.318Z</time>
      </trkpt>
      <trkpt lat="53.163724" lon="8.634239">
        <ele>5.613088</ele>
        <time>2026-03-20T13:38:35.973Z</time>
      </trkpt>
      <trkpt lat="53.163528" lon="8.634135">
        <ele>5.466956</ele>
        <time>2026-03-20T13:38:41.229Z</time>
      </trkpt>
      <trkpt lat="53.163428" lon="8.634345">
        <ele>5.352721</ele>
        <time>2026-03-20T13:38:44.232Z</time>
      </trkpt>
      <trkpt lat="53.163192" lon="8.635096">
        <ele>4.991544</ele>
        <time>2026-03-20T13:38:53.609Z</time>
      </trkpt>
      <trkpt lat="53.162842" lon="8.636916">
        <ele>4.168028</ele>
        <time>2026-03-20T13:39:18.023Z</time>
      </trkpt>
      <trkpt lat="53.162740" lon="8.638062">
        <ele>3.645693</ele>
        <time>2026-03-20T13:39:32.591Z</time>
      </trkpt>
      <trkpt lat="53.162609" lon="8.639028">
        <ele>3.199171</ele>
        <time>2026-03-20T13:39:43.843Z</time>
      </trkpt>
      <trkpt lat="53.162511" lon="8.639574">
        <ele>2.974936</ele>
        <time>2026-03-20T13:39:50.299Z</time>
      </trkpt>
      <trkpt lat="53.162374" lon="8.640386">
        <ele>2.885580</ele>
        <time>2026-03-20T13:39:59.926Z</time>
      </trkpt>
      <trkpt lat="53.162264" lon="8.641315">
        <ele>2.785270</ele>
        <time>2026-03-20T13:40:11.460Z</time>
      </trkpt>
      <trkpt lat="53.162247" lon="8.641458">
        <ele>2.769827</ele>
        <time>2026-03-20T13:40:13.353Z</time>
      </trkpt>
      <trkpt lat="53.162165" lon="8.642153">
        <ele>2.694793</ele>
        <time>2026-03-20T13:40:23.746Z</time>
      </trkpt>
      <trkpt lat="53.162044" lon="8.643189">
        <ele>3.279883</ele>
        <time>2026-03-20T13:40:41.885Z</time>
      </trkpt>
      <trkpt lat="53.161935" lon="8.644253">
        <ele>4.111812</ele>
        <time>2026-03-20T13:41:01.609Z</time>
      </trkpt>
      <trkpt lat="53.161858" lon="8.646211">
        <ele>4.454948</ele>
        <time>2026-03-20T13:41:31.388Z</time>
      </trkpt>
      <trkpt lat="53.161848" lon="8.646409">
        <ele>4.330405</ele>
        <time>2026-03-20T13:41:33.548Z</time>
      </trkpt>
      <trkpt lat="53.161694" lon="8.646593">
        <ele>4.132365</ele>
        <time>2026-03-20T13:41:36.846Z</time>
      </trkpt>
      <trkpt lat="53.161462" lon="8.646764">
        <ele>3.867202</ele>
        <time>2026-03-20T13:41:41.274Z</time>
      </trkpt>
      <trkpt lat="53.161075" lon="8.646831">
        <ele>3.460452</ele>
        <time>2026-03-20T13:41:48.077Z</time>
      </trkpt>
      <trkpt lat="53.160822" lon="8.646869">
        <ele>3.194892</ele>
        <time>2026-03-20T13:41:52.566Z</time>
      </trkpt>
      <trkpt lat="53.160587" lon="8.646901">
        <ele>3.049149</ele>
        <time>2026-03-20T13:41:56.732Z</time>
      </trkpt>
      <trkpt lat="53.160452" lon="8.646922">
        <ele>3.002230</ele>
        <time>2026-03-20T13:41:59.272Z</time>
      </trkpt>
      <trkpt lat="53.159456" lon="8.647083">
        <ele>2.655951</ele>
        <time>2026-03-20T13:42:20.954Z</time>
      </trkpt>
      <trkpt lat="53.159365" lon="8.647096">
        <ele>2.624346</ele>
        <time>2026-03-20T13:42:23.908Z</time>
      </trkpt>
      <trkpt lat="53.159390" lon="8.647457">
        <ele>2.548945</ele>
        <time>2026-03-20T13:42:29.263Z</time>
      </trkpt>
      <trkpt lat="53.159468" lon="8.648070">
        <ele>2.476165</ele>
        <time>2026-03-20T13:42:38.064Z</time>
      </trkpt>
      <trkpt lat="53.159537" lon="8.648587">
        <ele>2.475371</ele>
        <time>2026-03-20T13:42:45.176Z</time>
      </trkpt>
      <trkpt lat="53.159576" lon="8.649128">
        <ele>2.474553</ele>
        <time>2026-03-20T13:42:52.062Z</time>
      </trkpt>
      <trkpt lat="53.159611" lon="8.649300">
        <ele>2.474280</ele>
        <time>2026-03-20T13:42:54.381Z</time>
      </trkpt>
      <trkpt lat="53.159641" lon="8.649444">
        <ele>2.474052</ele>
        <time>2026-03-20T13:42:56.354Z</time>
      </trkpt>
      <trkpt lat="53.159833" lon="8.649988">
        <ele>2.473104</ele>
        <time>2026-03-20T13:43:04.856Z</time>
      </trkpt>
      <trkpt lat="53.159829" lon="8.650424">
        <ele>2.472450</ele>
        <time>2026-03-20T13:43:10.686Z</time>
      </trkpt>
      <trkpt lat="53.159245" lon="8.653702">
        <ele>2.473713</ele>
        <time>2026-03-20T13:43:55.923Z</time>
      </trkpt>
      <trkpt lat="53.159150" lon="8.653953">
        <ele>2.502758</ele>
        <time>2026-03-20T13:44:00.134Z</time>
      </trkpt>
      <trkpt lat="53.158818" lon="8.654484">
        <ele>2.577829</ele>
        <time>2026-03-20T13:44:11.009Z</time>
      </trkpt>
      <trkpt lat="53.158696" lon="8.654799">
        <ele>2.614524</ele>
        <time>2026-03-20T13:44:15.965Z</time>
      </trkpt>
      <trkpt lat="53.158618" lon="8.655042">
        <ele>2.641496</ele>
        <time>2026-03-20T13:44:19.650Z</time>
      </trkpt>
      <trkpt lat="53.158551" lon="8.655486">
        <ele>2.686298</ele>
        <time>2026-03-20T13:44:25.795Z</time>
      </trkpt>
      <trkpt lat="53.158527" lon="8.655882">
        <ele>2.725246</ele>
        <time>2026-03-20T13:44:31.188Z</time>
      </trkpt>
      <trkpt lat="53.158515" lon="8.655963">
        <ele>2.733410</ele>
        <time>2026-03-20T13:44:32.330Z</time>
      </trkpt>
      <trkpt lat="53.158432" lon="8.656287">
        <ele>2.796148</ele>
        <time>2026-03-20T13:44:37.270Z</time>
      </trkpt>
      <trkpt lat="53.158120" lon="8.657297">
        <ele>3.085321</ele>
        <time>2026-03-20T13:44:54.125Z</time>
      </trkpt>
      <trkpt lat="53.158101" lon="8.657415">
        <ele>3.116418</ele>
        <time>2026-03-20T13:44:55.803Z</time>
      </trkpt>
      <trkpt lat="53.158234" lon="8.658419">
        <ele>3.378117</ele>
        <time>2026-03-20T13:45:10.717Z</time>
      </trkpt>
      <trkpt lat="53.158295" lon="8.659249">
        <ele>3.436856</ele>
        <time>2026-03-20T13:45:22.862Z</time>
      </trkpt>
      <trkpt lat="53.158280" lon="8.659436">
        <ele>3.389068</ele>
        <time>2026-03-20T13:45:25.545Z</time>
      </trkpt>
      <trkpt lat="53.158130" lon="8.659908">
        <ele>3.253758</ele>
        <time>2026-03-20T13:45:32.786Z</time>
      </trkpt>
      <trkpt lat="53.158118" lon="8.660094">
        <ele>3.206373</ele>
        <time>2026-03-20T13:45:35.250Z</time>
      </trkpt>
      <trkpt lat="53.158194" lon="8.660684">
        <ele>3.053518</ele>
        <time>2026-03-20T13:45:42.727Z</time>
      </trkpt>
      <trkpt lat="53.158318" lon="8.661459">
        <ele>2.850345</ele>
        <time>2026-03-20T13:45:51.950Z</time>
      </trkpt>
      <trkpt lat="53.158317" lon="8.662018">
        <ele>2.693496</ele>
        <time>2026-03-20T13:45:58.168Z</time>
      </trkpt>
      <trkpt lat="53.158316" lon="8.662098">
        <ele>2.666380</ele>
        <time>2026-03-20T13:45:59.061Z</time>
      </trkpt>
      <trkpt lat="53.158322" lon="8.662674">
        <ele>2.471155</ele>
        <time>2026-03-20T13:46:05.575Z</time>
      </trkpt>
      <trkpt lat="53.158442" lon="8.663817">
        <ele>2.077924</ele>
        <time>2026-03-20T13:46:19.493Z</time>
      </trkpt>
      <trkpt lat="53.158633" lon="8.665351">
        <ele>1.865252</ele>
        <time>2026-03-20T13:46:40.652Z</time>
      </trkpt>
      <trkpt lat="53.158630" lon="8.665567">
        <ele>1.914439</ele>
        <time>2026-03-20T13:46:43.884Z</time>
      </trkpt>
      <trkpt lat="53.158558" lon="8.666083">
        <ele>2.035050</ele>
        <time>2026-03-20T13:46:51.966Z</time>
      </trkpt>
      <trkpt lat="53.158554" lon="8.666374">
        <ele>2.101316</ele>
        <time>2026-03-20T13:46:56.333Z</time>
      </trkpt>
      <trkpt lat="53.158587" lon="8.666686">
        <ele>2.173442</ele>
        <time>2026-03-20T13:47:01.011Z</time>
      </trkpt>
      <trkpt lat="53.158610" lon="8.666803">
        <ele>2.201473</ele>
        <time>2026-03-20T13:47:02.828Z</time>
      </trkpt>
      <trkpt lat="53.158740" lon="8.667803">
        <ele>2.419941</ele>
        <time>2026-03-20T13:47:17.081Z</time>
      </trkpt>
      <trkpt lat="53.158904" lon="8.668617">
        <ele>2.415319</ele>
        <time>2026-03-20T13:47:28.600Z</time>
      </trkpt>
      <trkpt lat="53.159031" lon="8.669447">
        <ele>2.410710</ele>
        <time>2026-03-20T13:47:39.993Z</time>
      </trkpt>
      <trkpt lat="53.159208" lon="8.670984">
        <ele>2.374493</ele>
        <time>2026-03-20T13:48:00.473Z</time>
      </trkpt>
      <trkpt lat="53.159205" lon="8.671604">
        <ele>2.320885</ele>
        <time>2026-03-20T13:48:08.477Z</time>
      </trkpt>
      <trkpt lat="53.159245" lon="8.671864">
        <ele>2.297677</ele>
        <time>2026-03-20T13:48:11.881Z</time>
      </trkpt>
      <trkpt lat="53.159465" lon="8.672586">
        <ele>2.227654</ele>
        <time>2026-03-20T13:48:22.200Z</time>
      </trkpt>
      <trkpt lat="53.159772" lon="8.673099">
        <ele>2.164987</ele>
        <time>2026-03-20T13:48:31.607Z</time>
      </trkpt>
      <trkpt lat="53.159985" lon="8.673407">
        <ele>2.195014</ele>
        <time>2026-03-20T13:48:37.914Z</time>
      </trkpt>
      <trkpt lat="53.160016" lon="8.673467">
        <ele>2.211855</ele>
        <time>2026-03-20T13:48:39.004Z</time>
      </trkpt>
      <trkpt lat="53.160286" lon="8.673988">
        <ele>2.358283</ele>
        <time>2026-03-20T13:48:48.558Z</time>
      </trkpt>
      <trkpt lat="53.160322" lon="8.674164">
        <ele>2.397824</ele>
        <time>2026-03-20T13:48:51.198Z</time>
      </trkpt>
      <trkpt lat="53.160411" lon="8.675516">
        <ele>2.687031</ele>
        <time>2026-03-20T13:49:11.024Z</time>
      </trkpt>
      <trkpt lat="53.160479" lon="8.675993">
        <ele>2.791653</ele>
        <time>2026-03-20T13:49:18.258Z</time>
      </trkpt>
      <trkpt lat="53.160538" lon="8.676449">
        <ele>2.895078</ele>
        <time>2026-03-20T13:49:25.137Z</time>
      </trkpt>
      <trkpt lat="53.160616" lon="8.677634">
        <ele>3.159379</ele>
        <time>2026-03-20T13:49:42.298Z</time>
      </trkpt>
      <trkpt lat="53.160716" lon="8.678741">
        <ele>3.407578</ele>
        <time>2026-03-20T13:49:57.912Z</time>
      </trkpt>
      <trkpt lat="53.160808" lon="8.679484">
        <ele>3.415775</ele>
        <time>2026-03-20T13:50:08.391Z</time>
      </trkpt>
      <trkpt lat="53.160934" lon="8.680529">
        <ele>3.356819</ele>
        <time>2026-03-20T13:50:22.388Z</time>
      </trkpt>
      <trkpt lat="53.160955" lon="8.680934">
        <ele>3.334334</ele>
        <time>2026-03-20T13:50:27.590Z</time>
      </trkpt>
      <trkpt lat="53.160937" lon="8.681801">
        <ele>3.286351</ele>
        <time>2026-03-20T13:50:38.728Z</time>
      </trkpt>
      <trkpt lat="53.160922" lon="8.682135">
        <ele>3.230457</ele>
        <time>2026-03-20T13:50:43.036Z</time>
      </trkpt>
      <trkpt lat="53.160958" lon="8.682551">
        <ele>3.145031</ele>
        <time>2026-03-20T13:50:48.430Z</time>
      </trkpt>
      <trkpt lat="53.161236" lon="8.684113">
        <ele>2.813871</ele>
        <time>2026-03-20T13:51:08.818Z</time>
      </trkpt>
      <trkpt lat="53.161738" lon="8.686024">
        <ele>2.493220</ele>
        <time>2026-03-20T13:51:35.117Z</time>
      </trkpt>
      <trkpt lat="53.161901" lon="8.686583">
        <ele>2.413160</ele>
        <time>2026-03-20T13:51:43.154Z</time>
      </trkpt>
      <trkpt lat="53.162216" lon="8.687292">
        <ele>2.299506</ele>
        <time>2026-03-20T13:51:54.713Z</time>
      </trkpt>
      <trkpt lat="53.162644" lon="8.689185">
        <ele>2.095673</ele>
        <time>2026-03-20T13:52:21.266Z</time>
      </trkpt>
      <trkpt lat="53.162653" lon="8.689630">
        <ele>2.051511</ele>
        <time>2026-03-20T13:52:26.867Z</time>
      </trkpt>
      <trkpt lat="53.162614" lon="8.689997">
        <ele>2.014544</ele>
        <time>2026-03-20T13:52:31.547Z</time>
      </trkpt>
      <trkpt lat="53.162561" lon="8.690163">
        <ele>1.995891</ele>
        <time>2026-03-20T13:52:33.925Z</time>
      </trkpt>
      <trkpt lat="53.162294" lon="8.690668">
        <ele>1.893169</ele>
        <time>2026-03-20T13:52:42.528Z</time>
      </trkpt>
      <trkpt lat="53.162230" lon="8.690807">
        <ele>1.865206</ele>
        <time>2026-03-20T13:52:44.786Z</time>
      </trkpt>
      <trkpt lat="53.162112" lon="8.691367">
        <ele>1.770498</ele>
        <time>2026-03-20T13:52:52.440Z</time>
      </trkpt>
      <trkpt lat="53.162060" lon="8.691712">
        <ele>1.713739</ele>
        <time>2026-03-20T13:52:56.942Z</time>
      </trkpt>
      <trkpt lat="53.162022" lon="8.692520">
        <ele>1.584424</ele>
        <time>2026-03-20T13:53:07.190Z</time>
      </trkpt>
      <trkpt lat="53.161990" lon="8.692623">
        <ele>1.565914</ele>
        <time>2026-03-20T13:53:08.679Z</time>
      </trkpt>
      <trkpt lat="53.161465" lon="8.693528">
        <ele>1.450362</ele>
        <time>2026-03-20T13:53:24.954Z</time>
      </trkpt>
      <trkpt lat="53.160951" lon="8.694499">
        <ele>1.365785</ele>
        <time>2026-03-20T13:53:41.506Z</time>
      </trkpt>
      <trkpt lat="53.160483" lon="8.695279">
        <ele>1.369715</ele>
        <time>2026-03-20T13:53:56.462Z</time>
      </trkpt>
      <trkpt lat="53.160313" lon="8.695689">
        <ele>1.461529</ele>
        <time>2026-03-20T13:54:03.479Z</time>
      </trkpt>
      <trkpt lat="53.160128" lon="8.696343">
        <ele>1.594720</ele>
        <time>2026-03-20T13:54:13.858Z</time>
      </trkpt>
      <trkpt lat="53.159926" lon="8.696725">
        <ele>1.688533</ele>
        <time>2026-03-20T13:54:21.300Z</time>
      </trkpt>
      <trkpt lat="53.158250" lon="8.699346">
        <ele>2.387009</ele>
        <time>2026-03-20T13:55:15.188Z</time>
      </trkpt>
      <trkpt lat="53.157928" lon="8.699857">
        <ele>2.577533</ele>
        <time>2026-03-20T13:55:25.448Z</time>
      </trkpt>
      <trkpt lat="53.157717" lon="8.700193">
        <ele>2.710547</ele>
        <time>2026-03-20T13:55:32.337Z</time>
      </trkpt>
      <trkpt lat="53.157405" lon="8.700543">
        <ele>2.881985</ele>
        <time>2026-03-20T13:55:41.319Z</time>
      </trkpt>
      <trkpt lat="53.157150" lon="8.700909">
        <ele>3.035377</ele>
        <time>2026-03-20T13:55:49.502Z</time>
      </trkpt>
      <trkpt lat="53.156742" lon="8.702224">
        <ele>3.422158</ele>
        <time>2026-03-20T13:56:11.827Z</time>
      </trkpt>
      <trkpt lat="53.156201" lon="8.703620">
        <ele>3.837454</ele>
        <time>2026-03-20T13:56:35.882Z</time>
      </trkpt>
      <trkpt lat="53.156104" lon="8.703616">
        <ele>3.877884</ele>
        <time>2026-03-20T13:56:38.797Z</time>
      </trkpt>
      <trkpt lat="53.156053" lon="8.703924">
        <ele>3.957719</ele>
        <time>2026-03-20T13:56:43.314Z</time>
      </trkpt>
      <trkpt lat="53.156075" lon="8.704406">
        <ele>3.940676</ele>
        <time>2026-03-20T13:56:49.877Z</time>
      </trkpt>
      <trkpt lat="53.156101" lon="8.705022">
        <ele>3.877887</ele>
        <time>2026-03-20T13:56:57.782Z</time>
      </trkpt>
      <trkpt lat="53.156148" lon="8.705644">
        <ele>3.814143</ele>
        <time>2026-03-20T13:57:05.819Z</time>
      </trkpt>
      <trkpt lat="53.156223" lon="8.706426">
        <ele>3.733620</ele>
        <time>2026-03-20T13:57:15.897Z</time>
      </trkpt>
      <trkpt lat="53.156262" lon="8.706771">
        <ele>3.697924</ele>
        <time>2026-03-20T13:57:20.399Z</time>
      </trkpt>
      <trkpt lat="53.156272" lon="8.706873">
        <ele>3.687415</ele>
        <time>2026-03-20T13:57:21.693Z</time>
      </trkpt>
      <trkpt lat="53.156500" lon="8.706884">
        <ele>3.631816</ele>
        <time>2026-03-20T13:57:26.508Z</time>
      </trkpt>
      <trkpt lat="53.156559" lon="8.706947">
        <ele>3.612439</ele>
        <time>2026-03-20T13:57:27.984Z</time>
      </trkpt>
      <trkpt lat="53.156596" lon="8.706987">
        <ele>3.600243</ele>
        <time>2026-03-20T13:57:28.907Z</time>
      </trkpt>
      <trkpt lat="53.157103" lon="8.708117">
        <ele>3.366182</ele>
        <time>2026-03-20T13:57:47.489Z</time>
      </trkpt>
      <trkpt lat="53.157745" lon="8.709176">
        <ele>3.073627</ele>
        <time>2026-03-20T13:58:06.074Z</time>
      </trkpt>
      <trkpt lat="53.157951" lon="8.709496">
        <ele>2.941699</ele>
        <time>2026-03-20T13:58:11.963Z</time>
      </trkpt>
      <trkpt lat="53.158222" lon="8.709826">
        <ele>2.784448</ele>
        <time>2026-03-20T13:58:18.985Z</time>
      </trkpt>
      <trkpt lat="53.158430" lon="8.709874">
        <ele>2.686044</ele>
        <time>2026-03-20T13:58:23.308Z</time>
      </trkpt>
      <trkpt lat="53.158444" lon="8.709876">
        <ele>2.679459</ele>
        <time>2026-03-20T13:58:23.590Z</time>
      </trkpt>
      <trkpt lat="53.158834" lon="8.709833">
        <ele>2.496293</ele>
        <time>2026-03-20T13:58:31.484Z</time>
      </trkpt>
      <trkpt lat="53.159301" lon="8.709704">
        <ele>2.308184</ele>
        <time>2026-03-20T13:58:41.360Z</time>
      </trkpt>
      <trkpt lat="53.159828" lon="8.709657">
        <ele>2.198242</ele>
        <time>2026-03-20T13:58:52.179Z</time>
      </trkpt>
      <trkpt lat="53.160109" lon="8.709639">
        <ele>2.139660</ele>
        <time>2026-03-20T13:58:57.830Z</time>
      </trkpt>
      <trkpt lat="53.160590" lon="8.709609">
        <ele>2.039388</ele>
        <time>2026-03-20T13:59:07.944Z</time>
      </trkpt>
      <trkpt lat="53.160784" lon="8.709599">
        <ele>1.998954</ele>
        <time>2026-03-20T13:59:12.378Z</time>
      </trkpt>
      <trkpt lat="53.161122" lon="8.709617">
        <ele>2.063574</ele>
        <time>2026-03-20T13:59:20.687Z</time>
      </trkpt>
      <trkpt lat="53.161478" lon="8.709740">
        <ele>2.307795</ele>
        <time>2026-03-20T13:59:30.041Z</time>
      </trkpt>
      <trkpt lat="53.161965" lon="8.710274">
        <ele>2.699303</ele>
        <time>2026-03-20T13:59:45.773Z</time>
      </trkpt>
      <trkpt lat="53.162155" lon="8.710710">
        <ele>2.916387</ele>
        <time>2026-03-20T13:59:54.367Z</time>
      </trkpt>
      <trkpt lat="53.162299" lon="8.711483">
        <ele>3.093774</ele>
        <time>2026-03-20T14:00:06.036Z</time>
      </trkpt>
      <trkpt lat="53.162456" lon="8.713022">
        <ele>2.454169</ele>
        <time>2026-03-20T14:00:24.632Z</time>
      </trkpt>
      <trkpt lat="53.162566" lon="8.714362">
        <ele>1.915808</ele>
        <time>2026-03-20T14:00:39.906Z</time>
      </trkpt>
      <trkpt lat="53.162647" lon="8.715691">
        <ele>1.586692</ele>
        <time>2026-03-20T14:00:55.767Z</time>
      </trkpt>
      <trkpt lat="53.162672" lon="8.717434">
        <ele>1.277507</ele>
        <time>2026-03-20T14:01:18.681Z</time>
      </trkpt>
      <trkpt lat="53.162601" lon="8.718147">
        <ele>1.594034</ele>
        <time>2026-03-20T14:01:29.155Z</time>
      </trkpt>
      <trkpt lat="53.162462" lon="8.719286">
        <ele>2.103074</ele>
        <time>2026-03-20T14:01:47.493Z</time>
      </trkpt>
      <trkpt lat="53.162327" lon="8.719907">
        <ele>2.392361</ele>
        <time>2026-03-20T14:01:58.211Z</time>
      </trkpt>
      <trkpt lat="53.162233" lon="8.720181">
        <ele>2.516678</ele>
        <time>2026-03-20T14:02:03.163Z</time>
      </trkpt>
      <trkpt lat="53.162064" lon="8.720447">
        <ele>2.541465</ele>
        <time>2026-03-20T14:02:09.092Z</time>
      </trkpt>
      <trkpt lat="53.161982" lon="8.720543">
        <ele>2.552152</ele>
        <time>2026-03-20T14:02:11.594Z</time>
      </trkpt>
      <trkpt lat="53.161921" lon="8.720613">
        <ele>2.560050</ele>
        <time>2026-03-20T14:02:13.422Z</time>
      </trkpt>
      <trkpt lat="53.161698" lon="8.720755">
        <ele>2.585513</ele>
        <time>2026-03-20T14:02:19.207Z</time>
      </trkpt>
      <trkpt lat="53.161146" lon="8.720983">
        <ele>2.646175</ele>
        <time>2026-03-20T14:02:31.856Z</time>
      </trkpt>
      <trkpt lat="53.159682" lon="8.721586">
        <ele>2.490050</ele>
        <time>2026-03-20T14:03:02.314Z</time>
      </trkpt>
      <trkpt lat="53.159248" lon="8.721729">
        <ele>2.388950</ele>
        <time>2026-03-20T14:03:12.216Z</time>
      </trkpt>
      <trkpt lat="53.159159" lon="8.721763">
        <ele>2.368084</ele>
        <time>2026-03-20T14:03:14.347Z</time>
      </trkpt>
      <trkpt lat="53.159080" lon="8.721769">
        <ele>2.350011</ele>
        <time>2026-03-20T14:03:16.141Z</time>
      </trkpt>
      <trkpt lat="53.158808" lon="8.722026">
        <ele>2.314810</ele>
        <time>2026-03-20T14:03:23.421Z</time>
      </trkpt>
      <trkpt lat="53.158702" lon="8.722083">
        <ele>2.345110</ele>
        <time>2026-03-20T14:03:26.014Z</time>
      </trkpt>
      <trkpt lat="53.159354" lon="8.722499">
        <ele>2.535033</ele>
        <time>2026-03-20T14:03:43.196Z</time>
      </trkpt>
      <trkpt lat="53.159754" lon="8.722731">
        <ele>2.650250</ele>
        <time>2026-03-20T14:03:53.408Z</time>
      </trkpt>
      <trkpt lat="53.160180" lon="8.722978">
        <ele>2.772953</ele>
        <time>2026-03-20T14:04:03.650Z</time>
      </trkpt>
      <trkpt lat="53.160664" lon="8.723272">
        <ele>2.621797</ele>
        <time>2026-03-20T14:04:14.768Z</time>
      </trkpt>
      <trkpt lat="53.160793" lon="8.723466">
        <ele>2.562041</ele>
        <time>2026-03-20T14:04:18.661Z</time>
      </trkpt>
      <trkpt lat="53.160879" lon="8.723720">
        <ele>2.501873</ele>
        <time>2026-03-20T14:04:22.527Z</time>
      </trkpt>
      <trkpt lat="53.161108" lon="8.724467">
        <ele>2.328821</ele>
        <time>2026-03-20T14:04:32.885Z</time>
      </trkpt>
      <trkpt lat="53.161336" lon="8.724749">
        <ele>2.231170</ele>
        <time>2026-03-20T14:04:38.390Z</time>
      </trkpt>
      <trkpt lat="53.161472" lon="8.724864">
        <ele>2.178713</ele>
        <time>2026-03-20T14:04:41.387Z</time>
      </trkpt>
      <trkpt lat="53.161913" lon="8.725239">
        <ele>2.004758</ele>
        <time>2026-03-20T14:04:51.735Z</time>
      </trkpt>
      <trkpt lat="53.162202" lon="8.725447">
        <ele>1.893953</ele>
        <time>2026-03-20T14:04:58.485Z</time>
      </trkpt>
      <trkpt lat="53.162335" lon="8.725609">
        <ele>1.835977</ele>
        <time>2026-03-20T14:05:01.978Z</time>
      </trkpt>
      <trkpt lat="53.162450" lon="8.725870">
        <ele>1.767614</ele>
        <time>2026-03-20T14:05:06.021Z</time>
      </trkpt>
      <trkpt lat="53.162607" lon="8.726356">
        <ele>1.651096</ele>
        <time>2026-03-20T14:05:12.910Z</time>
      </trkpt>
      <trkpt lat="53.162838" lon="8.727023">
        <ele>1.490384</ele>
        <time>2026-03-20T14:05:22.793Z</time>
      </trkpt>
      <trkpt lat="53.162968" lon="8.727293">
        <ele>1.420395</ele>
        <time>2026-03-20T14:05:27.327Z</time>
      </trkpt>
      <trkpt lat="53.163276" lon="8.727712">
        <ele>1.286408</ele>
        <time>2026-03-20T14:05:35.749Z</time>
      </trkpt>
      <trkpt lat="53.163344" lon="8.727903">
        <ele>1.241512</ele>
        <time>2026-03-20T14:05:38.460Z</time>
      </trkpt>
      <trkpt lat="53.163373" lon="8.728450">
        <ele>1.130526</ele>
        <time>2026-03-20T14:05:45.166Z</time>
      </trkpt>
      <trkpt lat="53.163405" lon="8.728641">
        <ele>1.090443</ele>
        <time>2026-03-20T14:05:47.584Z</time>
      </trkpt>
      <trkpt lat="53.163492" lon="8.728798">
        <ele>1.047234</ele>
        <time>2026-03-20T14:05:50.189Z</time>
      </trkpt>
      <trkpt lat="53.165687" lon="8.730990">
        <ele>0.890234</ele>
        <time>2026-03-20T14:06:46.239Z</time>
      </trkpt>
      <trkpt lat="53.165757" lon="8.731078">
        <ele>0.916267</ele>
        <time>2026-03-20T14:06:48.344Z</time>
      </trkpt>
      <trkpt lat="53.165829" lon="8.731250">
        <ele>0.953619</ele>
        <time>2026-03-20T14:06:51.347Z</time>
      </trkpt>
      <trkpt lat="53.165900" lon="8.731638">
        <ele>1.025850</ele>
        <time>2026-03-20T14:06:57.131Z</time>
      </trkpt>
      <trkpt lat="53.165888" lon="8.732149">
        <ele>1.116903</ele>
        <time>2026-03-20T14:07:04.397Z</time>
      </trkpt>
      <trkpt lat="53.165826" lon="8.732484">
        <ele>1.179328</ele>
        <time>2026-03-20T14:07:09.431Z</time>
      </trkpt>
      <trkpt lat="53.165497" lon="8.733548">
        <ele>1.466253</ele>
        <time>2026-03-20T14:07:26.759Z</time>
      </trkpt>
      <trkpt lat="53.165451" lon="8.733884">
        <ele>1.579640</ele>
        <time>2026-03-20T14:07:31.571Z</time>
      </trkpt>
      <trkpt lat="53.165417" lon="8.734719">
        <ele>1.854981</ele>
        <time>2026-03-20T14:07:43.632Z</time>
      </trkpt>
      <trkpt lat="53.165268" lon="8.735168">
        <ele>2.023819</ele>
        <time>2026-03-20T14:07:51.541Z</time>
      </trkpt>
      <trkpt lat="53.165113" lon="8.735518">
        <ele>2.166976</ele>
        <time>2026-03-20T14:07:58.358Z</time>
      </trkpt>
      <trkpt lat="53.165090" lon="8.735569">
        <ele>2.187972</ele>
        <time>2026-03-20T14:07:59.365Z</time>
      </trkpt>
      <trkpt lat="53.164944" lon="8.735975">
        <ele>2.368843</ele>
        <time>2026-03-20T14:08:06.866Z</time>
      </trkpt>
      <trkpt lat="53.164540" lon="8.737393">
        <ele>3.138640</ele>
        <time>2026-03-20T14:08:31.222Z</time>
      </trkpt>
      <trkpt lat="53.164082" lon="8.738594">
        <ele>3.792525</ele>
        <time>2026-03-20T14:08:54.417Z</time>
      </trkpt>
      <trkpt lat="53.163894" lon="8.739299">
        <ele>3.942622</ele>
        <time>2026-03-20T14:09:06.886Z</time>
      </trkpt>
      <trkpt lat="53.163841" lon="8.739595">
        <ele>4.002716</ele>
        <time>2026-03-20T14:09:11.653Z</time>
      </trkpt>
      <trkpt lat="53.163901" lon="8.739809">
        <ele>4.048672</ele>
        <time>2026-03-20T14:09:15.237Z</time>
      </trkpt>
      <trkpt lat="53.163935" lon="8.739944">
        <ele>4.077157</ele>
        <time>2026-03-20T14:09:17.934Z</time>
      </trkpt>
      <trkpt lat="53.163945" lon="8.740012">
        <ele>4.090777</ele>
        <time>2026-03-20T14:09:18.972Z</time>
      </trkpt>
      <trkpt lat="53.163942" lon="8.740153">
        <ele>4.118223</ele>
        <time>2026-03-20T14:09:21.084Z</time>
      </trkpt>
      <trkpt lat="53.163932" lon="8.740248">
        <ele>4.136986</ele>
        <time>2026-03-20T14:09:22.497Z</time>
      </trkpt>
      <trkpt lat="53.163897" lon="8.740382">
        <ele>4.165419</ele>
        <time>2026-03-20T14:09:24.688Z</time>
      </trkpt>
      <trkpt lat="53.163582" lon="8.740922">
        <ele>4.311983</ele>
        <time>2026-03-20T14:09:35.235Z</time>
      </trkpt>
      <trkpt lat="53.163474" lon="8.741519">
        <ele>3.998751</ele>
        <time>2026-03-20T14:09:42.558Z</time>
      </trkpt>
      <trkpt lat="53.163285" lon="8.741838">
        <ele>3.645778</ele>
        <time>2026-03-20T14:09:47.463Z</time>
      </trkpt>
      <trkpt lat="53.163241" lon="8.741964">
        <ele>3.531017</ele>
        <time>2026-03-20T14:09:49.027Z</time>
      </trkpt>
      <trkpt lat="53.163215" lon="8.742103">
        <ele>3.416418</ele>
        <time>2026-03-20T14:09:50.602Z</time>
      </trkpt>
      <trkpt lat="53.163215" lon="8.742262">
        <ele>3.291280</ele>
        <time>2026-03-20T14:09:52.322Z</time>
      </trkpt>
      <trkpt lat="53.163411" lon="8.743710">
        <ele>2.122972</ele>
        <time>2026-03-20T14:10:08.663Z</time>
      </trkpt>
      <trkpt lat="53.163439" lon="8.744025">
        <ele>1.954822</ele>
        <time>2026-03-20T14:10:12.123Z</time>
      </trkpt>
      <trkpt lat="53.163424" lon="8.744211">
        <ele>1.914277</ele>
        <time>2026-03-20T14:10:14.175Z</time>
      </trkpt>
      <trkpt lat="53.163375" lon="8.744425">
        <ele>1.864788</ele>
        <time>2026-03-20T14:10:16.699Z</time>
      </trkpt>
      <trkpt lat="53.163248" lon="8.744697">
        <ele>1.790308</ele>
        <time>2026-03-20T14:10:20.537Z</time>
      </trkpt>
      <trkpt lat="53.163162" lon="8.744978">
        <ele>1.722149</ele>
        <time>2026-03-20T14:10:24.173Z</time>
      </trkpt>
      <trkpt lat="53.163129" lon="8.745270">
        <ele>1.657955</ele>
        <time>2026-03-20T14:10:27.838Z</time>
      </trkpt>
      <trkpt lat="53.163148" lon="8.745913">
        <ele>1.518874</ele>
        <time>2026-03-20T14:10:36.661Z</time>
      </trkpt>
      <trkpt lat="53.163199" lon="8.746196">
        <ele>1.455033</ele>
        <time>2026-03-20T14:10:40.941Z</time>
      </trkpt>
      <trkpt lat="53.163270" lon="8.746381">
        <ele>1.407578</ele>
        <time>2026-03-20T14:10:44.155Z</time>
      </trkpt>
      <trkpt lat="53.163475" lon="8.746567">
        <ele>1.371039</ele>
        <time>2026-03-20T14:10:49.999Z</time>
      </trkpt>
      <trkpt lat="53.163671" lon="8.746607">
        <ele>1.534609</ele>
        <time>2026-03-20T14:10:55.111Z</time>
      </trkpt>
      <trkpt lat="53.164237" lon="8.746723">
        <ele>2.006987</ele>
        <time>2026-03-20T14:11:10.520Z</time>
      </trkpt>
      <trkpt lat="53.164366" lon="8.746861">
        <ele>2.133935</ele>
        <time>2026-03-20T14:11:14.758Z</time>
      </trkpt>
      <trkpt lat="53.164464" lon="8.747077">
        <ele>2.268460</ele>
        <time>2026-03-20T14:11:19.233Z</time>
      </trkpt>
      <trkpt lat="53.164543" lon="8.747718">
        <ele>2.593450</ele>
        <time>2026-03-20T14:11:29.371Z</time>
      </trkpt>
      <trkpt lat="53.164541" lon="8.748064">
        <ele>2.765288</ele>
        <time>2026-03-20T14:11:34.342Z</time>
      </trkpt>
      <trkpt lat="53.164472" lon="8.748745">
        <ele>2.852801</ele>
        <time>2026-03-20T14:11:43.642Z</time>
      </trkpt>
      <trkpt lat="53.164378" lon="8.749309">
        <ele>2.878686</ele>
        <time>2026-03-20T14:11:51.137Z</time>
      </trkpt>
      <trkpt lat="53.164275" lon="8.750336">
        <ele>2.924730</ele>
        <time>2026-03-20T14:12:04.946Z</time>
      </trkpt>
      <trkpt lat="53.164137" lon="8.751170">
        <ele>2.965889</ele>
        <time>2026-03-20T14:12:16.590Z</time>
      </trkpt>
      <trkpt lat="53.164108" lon="8.751298">
        <ele>2.978975</ele>
        <time>2026-03-20T14:12:18.459Z</time>
      </trkpt>
      <trkpt lat="53.164083" lon="8.751415">
        <ele>2.990854</ele>
        <time>2026-03-20T14:12:20.134Z</time>
      </trkpt>
      <trkpt lat="53.164041" lon="8.751556">
        <ele>3.005911</ele>
        <time>2026-03-20T14:12:22.306Z</time>
      </trkpt>
      <trkpt lat="53.163956" lon="8.751684">
        <ele>3.024178</ele>
        <time>2026-03-20T14:12:24.954Z</time>
      </trkpt>
      <trkpt lat="53.163902" lon="8.751757">
        <ele>3.035266</ele>
        <time>2026-03-20T14:12:26.576Z</time>
      </trkpt>
      <trkpt lat="53.163452" lon="8.752262">
        <ele>3.121783</ele>
        <time>2026-03-20T14:12:39.453Z</time>
      </trkpt>
      <trkpt lat="53.163010" lon="8.752870">
        <ele>3.213173</ele>
        <time>2026-03-20T14:12:52.578Z</time>
      </trkpt>
      <trkpt lat="53.162817" lon="8.753036">
        <ele>3.247308</ele>
        <time>2026-03-20T14:12:57.299Z</time>
      </trkpt>
      <trkpt lat="53.162619" lon="8.753270">
        <ele>3.238110</ele>
        <time>2026-03-20T14:13:02.573Z</time>
      </trkpt>
      <trkpt lat="53.162470" lon="8.753623">
        <ele>3.228299</ele>
        <time>2026-03-20T14:13:08.227Z</time>
      </trkpt>
      <trkpt lat="53.162414" lon="8.754090">
        <ele>3.217476</ele>
        <time>2026-03-20T14:13:14.506Z</time>
      </trkpt>
      <trkpt lat="53.162426" lon="8.754335">
        <ele>3.211890</ele>
        <time>2026-03-20T14:13:17.759Z</time>
      </trkpt>
      <trkpt lat="53.162490" lon="8.754651">
        <ele>3.204310</ele>
        <time>2026-03-20T14:13:22.180Z</time>
      </trkpt>
      <trkpt lat="53.162664" lon="8.755024">
        <ele>3.193569</ele>
        <time>2026-03-20T14:13:28.406Z</time>
      </trkpt>
      <trkpt lat="53.162688" lon="8.755246">
        <ele>3.188443</ele>
        <time>2026-03-20T14:13:31.392Z</time>
      </trkpt>
      <trkpt lat="53.162689" lon="8.755452">
        <ele>3.183761</ele>
        <time>2026-03-20T14:13:34.123Z</time>
      </trkpt>
      <trkpt lat="53.162645" lon="8.755771">
        <ele>3.141324</ele>
        <time>2026-03-20T14:13:38.489Z</time>
      </trkpt>
      <trkpt lat="53.162534" lon="8.756151">
        <ele>3.015993</ele>
        <time>2026-03-20T14:13:44.183Z</time>
      </trkpt>
      <trkpt lat="53.162455" lon="8.756531">
        <ele>2.896741</ele>
        <time>2026-03-20T14:13:49.496Z</time>
      </trkpt>
      <trkpt lat="53.162445" lon="8.756713">
        <ele>2.842552</ele>
        <time>2026-03-20T14:13:51.788Z</time>
      </trkpt>
      <trkpt lat="53.162483" lon="8.757105">
        <ele>2.724814</ele>
        <time>2026-03-20T14:13:56.591Z</time>
      </trkpt>
      <trkpt lat="53.162555" lon="8.757764">
        <ele>2.526202</ele>
        <time>2026-03-20T14:14:04.363Z</time>
      </trkpt>
      <trkpt lat="53.162547" lon="8.758120">
        <ele>2.420574</ele>
        <time>2026-03-20T14:14:08.536Z</time>
      </trkpt>
      <trkpt lat="53.162323" lon="8.759073">
        <ele>2.224047</ele>
        <time>2026-03-20T14:14:20.860Z</time>
      </trkpt>
      <trkpt lat="53.162254" lon="8.760604">
        <ele>2.050878</ele>
        <time>2026-03-20T14:14:40.331Z</time>
      </trkpt>
      <trkpt lat="53.162272" lon="8.760841">
        <ele>2.023933</ele>
        <time>2026-03-20T14:14:43.650Z</time>
      </trkpt>
      <trkpt lat="53.162405" lon="8.761301">
        <ele>1.966332</ele>
        <time>2026-03-20T14:14:51.130Z</time>
      </trkpt>
      <trkpt lat="53.162423" lon="8.761458">
        <ele>1.952686</ele>
        <time>2026-03-20T14:14:53.477Z</time>
      </trkpt>
      <trkpt lat="53.162380" lon="8.761954">
        <ele>1.977284</ele>
        <time>2026-03-20T14:15:00.735Z</time>
      </trkpt>
      <trkpt lat="53.162330" lon="8.762053">
        <ele>1.983637</ele>
        <time>2026-03-20T14:15:02.530Z</time>
      </trkpt>
      <trkpt lat="53.162228" lon="8.762447">
        <ele>2.004701</ele>
        <time>2026-03-20T14:15:08.462Z</time>
      </trkpt>
      <trkpt lat="53.162191" lon="8.762723">
        <ele>2.018582</ele>
        <time>2026-03-20T14:15:12.254Z</time>
      </trkpt>
      <trkpt lat="53.162230" lon="8.763481">
        <ele>2.055924</ele>
        <time>2026-03-20T14:15:22.262Z</time>
      </trkpt>
      <trkpt lat="53.162213" lon="8.763659">
        <ele>2.064770</ele>
        <time>2026-03-20T14:15:24.642Z</time>
      </trkpt>
      <trkpt lat="53.162071" lon="8.764023">
        <ele>2.086085</ele>
        <time>2026-03-20T14:15:30.382Z</time>
      </trkpt>
      <trkpt lat="53.162018" lon="8.764215">
        <ele>2.096460</ele>
        <time>2026-03-20T14:15:33.216Z</time>
      </trkpt>
      <trkpt lat="53.162004" lon="8.764596">
        <ele>2.066184</ele>
        <time>2026-03-20T14:15:38.322Z</time>
      </trkpt>
      <trkpt lat="53.161807" lon="8.765075">
        <ele>2.010482</ele>
        <time>2026-03-20T14:15:45.944Z</time>
      </trkpt>
      <trkpt lat="53.161372" lon="8.765920">
        <ele>1.903678</ele>
        <time>2026-03-20T14:15:59.967Z</time>
      </trkpt>
      <trkpt lat="53.161250" lon="8.766218">
        <ele>1.869074</ele>
        <time>2026-03-20T14:16:04.575Z</time>
      </trkpt>
      <trkpt lat="53.161231" lon="8.766372">
        <ele>1.853997</ele>
        <time>2026-03-20T14:16:06.614Z</time>
      </trkpt>
      <trkpt lat="53.161152" lon="8.766697">
        <ele>1.820366</ele>
        <time>2026-03-20T14:16:11.166Z</time>
      </trkpt>
      <trkpt lat="53.160865" lon="8.767273">
        <ele>1.775585</ele>
        <time>2026-03-20T14:16:21.085Z</time>
      </trkpt>
      <trkpt lat="53.160649" lon="8.767664">
        <ele>1.746702</ele>
        <time>2026-03-20T14:16:28.258Z</time>
      </trkpt>
      <trkpt lat="53.160142" lon="8.768384">
        <ele>1.686368</ele>
        <time>2026-03-20T14:16:43.259Z</time>
      </trkpt>
      <trkpt lat="53.160006" lon="8.768624">
        <ele>1.668428</ele>
        <time>2026-03-20T14:16:47.619Z</time>
      </trkpt>
      <trkpt lat="53.159857" lon="8.769051">
        <ele>1.634425</ele>
        <time>2026-03-20T14:16:53.856Z</time>
      </trkpt>
      <trkpt lat="53.159781" lon="8.769271">
        <ele>1.605100</ele>
        <time>2026-03-20T14:16:57.008Z</time>
      </trkpt>
      <trkpt lat="53.159768" lon="8.769292">
        <ele>1.601614</ele>
        <time>2026-03-20T14:16:57.370Z</time>
      </trkpt>
      <trkpt lat="53.159673" lon="8.769454">
        <ele>1.575443</ele>
        <time>2026-03-20T14:17:00.164Z</time>
      </trkpt>
      <trkpt lat="53.159490" lon="8.769664">
        <ele>1.532654</ele>
        <time>2026-03-20T14:17:04.666Z</time>
      </trkpt>
      <trkpt lat="53.159302" lon="8.769942">
        <ele>1.484257</ele>
        <time>2026-03-20T14:17:09.792Z</time>
      </trkpt>
      <trkpt lat="53.159183" lon="8.770232">
        <ele>1.443670</ele>
        <time>2026-03-20T14:17:14.183Z</time>
      </trkpt>
      <trkpt lat="53.158935" lon="8.771317">
        <ele>1.309559</ele>
        <time>2026-03-20T14:17:29.487Z</time>
      </trkpt>
      <trkpt lat="53.158795" lon="8.772270">
        <ele>1.526542</ele>
        <time>2026-03-20T14:17:43.685Z</time>
      </trkpt>
      <trkpt lat="53.158769" lon="8.772455">
        <ele>1.573468</ele>
        <time>2026-03-20T14:17:46.481Z</time>
      </trkpt>
      <trkpt lat="53.158673" lon="8.773262">
        <ele>1.776650</ele>
        <time>2026-03-20T14:17:58.825Z</time>
      </trkpt>
      <trkpt lat="53.158618" lon="8.773520">
        <ele>1.844273</ele>
        <time>2026-03-20T14:18:02.976Z</time>
      </trkpt>
      <trkpt lat="53.158411" lon="8.774309">
        <ele>2.024882</ele>
        <time>2026-03-20T14:18:15.365Z</time>
      </trkpt>
      <trkpt lat="53.158240" lon="8.774938">
        <ele>1.822123</ele>
        <time>2026-03-20T14:18:24.476Z</time>
      </trkpt>
      <trkpt lat="53.158173" lon="8.775102">
        <ele>1.763862</ele>
        <time>2026-03-20T14:18:26.953Z</time>
      </trkpt>
      <trkpt lat="53.157776" lon="8.775580">
        <ele>1.524115</ele>
        <time>2026-03-20T14:18:37.100Z</time>
      </trkpt>
      <trkpt lat="53.157679" lon="8.775802">
        <ele>1.443470</ele>
        <time>2026-03-20T14:18:40.409Z</time>
      </trkpt>
      <trkpt lat="53.157637" lon="8.776109">
        <ele>1.351021</ele>
        <time>2026-03-20T14:18:44.075Z</time>
      </trkpt>
      <trkpt lat="53.157622" lon="8.776427">
        <ele>1.257371</ele>
        <time>2026-03-20T14:18:47.715Z</time>
      </trkpt>
      <trkpt lat="53.157537" lon="8.776446">
        <ele>1.215381</ele>
        <time>2026-03-20T14:18:49.382Z</time>
      </trkpt>
      <trkpt lat="53.157235" lon="8.776443">
        <ele>1.041110</ele>
        <time>2026-03-20T14:18:55.097Z</time>
      </trkpt>
      <trkpt lat="53.157166" lon="8.776525">
        <ele>0.987990</ele>
        <time>2026-03-20T14:18:56.679Z</time>
      </trkpt>
      <trkpt lat="53.157099" lon="8.776623">
        <ele>0.932117</ele>
        <time>2026-03-20T14:18:58.381Z</time>
      </trkpt>
      <trkpt lat="53.157027" lon="8.776841">
        <ele>0.838553</ele>
        <time>2026-03-20T14:19:01.209Z</time>
      </trkpt>
      <trkpt lat="53.156999" lon="8.776932">
        <ele>0.800101</ele>
        <time>2026-03-20T14:19:02.368Z</time>
      </trkpt>
      <trkpt lat="53.156911" lon="8.777173">
        <ele>0.694023</ele>
        <time>2026-03-20T14:19:05.634Z</time>
      </trkpt>
      <trkpt lat="53.156850" lon="8.777287">
        <ele>0.636583</ele>
        <time>2026-03-20T14:19:07.442Z</time>
      </trkpt>
      <trkpt lat="53.156776" lon="8.777422">
        <ele>0.567821</ele>
        <time>2026-03-20T14:19:09.666Z</time>
      </trkpt>
      <trkpt lat="53.156743" lon="8.777473">
        <ele>0.539613</ele>
        <time>2026-03-20T14:19:10.555Z</time>
      </trkpt>
      <trkpt lat="53.156242" lon="8.778156">
        <ele>0.133913</ele>
        <time>2026-03-20T14:19:24.089Z</time>
      </trkpt>
      <trkpt lat="53.155548" lon="8.779280">
        <ele>0.075022</ele>
        <time>2026-03-20T14:19:46.144Z</time>
      </trkpt>
      <trkpt lat="53.155303" lon="8.779623">
        <ele>0.091277</ele>
        <time>2026-03-20T14:19:53.373Z</time>
      </trkpt>
      <trkpt lat="53.154779" lon="8.780074">
        <ele>0.121239</ele>
        <time>2026-03-20T14:20:06.625Z</time>
      </trkpt>
      <trkpt lat="53.154449" lon="8.780614">
        <ele>0.229816</ele>
        <time>2026-03-20T14:20:17.007Z</time>
      </trkpt>
      <trkpt lat="53.153270" lon="8.782081">
        <ele>0.639645</ele>
        <time>2026-03-20T14:20:51.438Z</time>
      </trkpt>
      <trkpt lat="53.152799" lon="8.782610">
        <ele>0.867188</ele>
        <time>2026-03-20T14:21:05.314Z</time>
      </trkpt>
      <trkpt lat="53.152615" lon="8.782780">
        <ele>0.951476</ele>
        <time>2026-03-20T14:21:10.471Z</time>
      </trkpt>
      <trkpt lat="53.152093" lon="8.783163">
        <ele>1.179991</ele>
        <time>2026-03-20T14:21:24.512Z</time>
      </trkpt>
      <trkpt lat="53.151003" lon="8.783900">
        <ele>1.078101</ele>
        <time>2026-03-20T14:21:51.167Z</time>
      </trkpt>
      <trkpt lat="53.150864" lon="8.783896">
        <ele>1.031610</ele>
        <time>2026-03-20T14:21:54.020Z</time>
      </trkpt>
      <trkpt lat="53.150447" lon="8.783785">
        <ele>0.890392</ele>
        <time>2026-03-20T14:22:02.499Z</time>
      </trkpt>
      <trkpt lat="53.149978" lon="8.783577">
        <ele>0.726844</ele>
        <time>2026-03-20T14:22:12.053Z</time>
      </trkpt>
      <trkpt lat="53.149769" lon="8.783536">
        <ele>0.646947</ele>
        <time>2026-03-20T14:22:16.174Z</time>
      </trkpt>
      <trkpt lat="53.149472" lon="8.783759">
        <ele>0.523282</ele>
        <time>2026-03-20T14:22:22.645Z</time>
      </trkpt>
      <trkpt lat="53.149289" lon="8.784015">
        <ele>0.432589</ele>
        <time>2026-03-20T14:22:27.575Z</time>
      </trkpt>
      <trkpt lat="53.148891" lon="8.785003">
        <ele>0.161586</ele>
        <time>2026-03-20T14:22:42.917Z</time>
      </trkpt>
      <trkpt lat="53.147897" lon="8.787017">
        <ele>0.041750</ele>
        <time>2026-03-20T14:23:17.829Z</time>
      </trkpt>
      <trkpt lat="53.147837" lon="8.787200">
        <ele>0.040509</ele>
        <time>2026-03-20T14:23:20.594Z</time>
      </trkpt>
      <trkpt lat="53.147829" lon="8.787223">
        <ele>0.040351</ele>
        <time>2026-03-20T14:23:20.936Z</time>
      </trkpt>
      <trkpt lat="53.147802" lon="8.787406">
        <ele>0.039229</ele>
        <time>2026-03-20T14:23:23.430Z</time>
      </trkpt>
      <trkpt lat="53.147800" lon="8.787635">
        <ele>0.037866</ele>
        <time>2026-03-20T14:23:26.473Z</time>
      </trkpt>
      <trkpt lat="53.147835" lon="8.788390">
        <ele>0.025766</ele>
        <time>2026-03-20T14:23:36.525Z</time>
      </trkpt>
      <trkpt lat="53.147759" lon="8.789108">
        <ele>0.011340</ele>
        <time>2026-03-20T14:23:46.236Z</time>
      </trkpt>
      <trkpt lat="53.147740" lon="8.790306">
        <ele>-0.012374</ele>
        <time>2026-03-20T14:24:01.981Z</time>
      </trkpt>
      <trkpt lat="53.147707" lon="8.790722">
        <ele>-0.020677</ele>
        <time>2026-03-20T14:24:07.526Z</time>
      </trkpt>
      <trkpt lat="53.147680" lon="8.790831">
        <ele>-0.021484</ele>
        <time>2026-03-20T14:24:09.087Z</time>
      </trkpt>
      <trkpt lat="53.147637" lon="8.790933">
        <ele>-0.011136</ele>
        <time>2026-03-20T14:24:10.753Z</time>
      </trkpt>
      <trkpt lat="53.147357" lon="8.791303">
        <ele>0.038309</ele>
        <time>2026-03-20T14:24:18.675Z</time>
      </trkpt>
      <trkpt lat="53.146417" lon="8.792987">
        <ele>0.233226</ele>
        <time>2026-03-20T14:24:50.262Z</time>
      </trkpt>
      <trkpt lat="53.146206" lon="8.793316">
        <ele>0.325165</ele>
        <time>2026-03-20T14:24:57.192Z</time>
      </trkpt>
      <trkpt lat="53.145599" lon="8.794146">
        <ele>0.574997</ele>
        <time>2026-03-20T14:25:15.879Z</time>
      </trkpt>
      <trkpt lat="53.145477" lon="8.794260">
        <ele>0.619505</ele>
        <time>2026-03-20T14:25:19.224Z</time>
      </trkpt>
      <trkpt lat="53.145358" lon="8.794312">
        <ele>0.658655</ele>
        <time>2026-03-20T14:25:22.158Z</time>
      </trkpt>
      <trkpt lat="53.145039" lon="8.794239">
        <ele>0.761127</ele>
        <time>2026-03-20T14:25:29.752Z</time>
      </trkpt>
      <trkpt lat="53.144877" lon="8.794242">
        <ele>0.800486</ele>
        <time>2026-03-20T14:25:33.531Z</time>
      </trkpt>
      <trkpt lat="53.144219" lon="8.794507">
        <ele>0.829129</ele>
        <time>2026-03-20T14:25:48.789Z</time>
      </trkpt>
      <trkpt lat="53.144013" lon="8.794552">
        <ele>0.837920</ele>
        <time>2026-03-20T14:25:53.426Z</time>
      </trkpt>
      <trkpt lat="53.143716" lon="8.794541">
        <ele>0.850490</ele>
        <time>2026-03-20T14:26:00.045Z</time>
      </trkpt>
      <trkpt lat="53.143581" lon="8.794490">
        <ele>0.856347</ele>
        <time>2026-03-20T14:26:03.095Z</time>
      </trkpt>
      <trkpt lat="53.143440" lon="8.794407">
        <ele>0.862674</ele>
        <time>2026-03-20T14:26:06.391Z</time>
      </trkpt>
      <trkpt lat="53.143298" lon="8.794239">
        <ele>0.870041</ele>
        <time>2026-03-20T14:26:10.232Z</time>
      </trkpt>
      <trkpt lat="53.143236" lon="8.794132">
        <ele>0.873817</ele>
        <time>2026-03-20T14:26:12.198Z</time>
      </trkpt>
      <trkpt lat="53.143068" lon="8.793682">
        <ele>0.840110</ele>
        <time>2026-03-20T14:26:19.157Z</time>
      </trkpt>
      <trkpt lat="53.142842" lon="8.793363">
        <ele>0.805552</ele>
        <time>2026-03-20T14:26:25.612Z</time>
      </trkpt>
      <trkpt lat="53.142451" lon="8.793005">
        <ele>0.753492</ele>
        <time>2026-03-20T14:26:35.344Z</time>
      </trkpt>
      <trkpt lat="53.142105" lon="8.792552">
        <ele>0.702150</ele>
        <time>2026-03-20T14:26:44.876Z</time>
      </trkpt>
      <trkpt lat="53.141770" lon="8.792393">
        <ele>0.661653</ele>
        <time>2026-03-20T14:26:52.447Z</time>
      </trkpt>
      <trkpt lat="53.141543" lon="8.792127">
        <ele>0.630753</ele>
        <time>2026-03-20T14:26:58.427Z</time>
      </trkpt>
      <trkpt lat="53.141431" lon="8.792070">
        <ele>0.617711</ele>
        <time>2026-03-20T14:27:00.947Z</time>
      </trkpt>
      <trkpt lat="53.141284" lon="8.792076">
        <ele>0.601336</ele>
        <time>2026-03-20T14:27:04.095Z</time>
      </trkpt>
      <trkpt lat="53.141150" lon="8.792134">
        <ele>0.585918</ele>
        <time>2026-03-20T14:27:07.065Z</time>
      </trkpt>
      <trkpt lat="53.140892" lon="8.792365">
        <ele>0.553304</ele>
        <time>2026-03-20T14:27:13.362Z</time>
      </trkpt>
      <trkpt lat="53.140472" lon="8.792568">
        <ele>0.504605</ele>
        <time>2026-03-20T14:27:22.887Z</time>
      </trkpt>
      <trkpt lat="53.140221" lon="8.792790">
        <ele>0.472962</ele>
        <time>2026-03-20T14:27:29.236Z</time>
      </trkpt>
      <trkpt lat="53.140015" lon="8.793084">
        <ele>0.475778</ele>
        <time>2026-03-20T14:27:35.329Z</time>
      </trkpt>
      <trkpt lat="53.139767" lon="8.793557">
        <ele>0.497527</ele>
        <time>2026-03-20T14:27:43.804Z</time>
      </trkpt>
      <trkpt lat="53.139511" lon="8.793928">
        <ele>0.517104</ele>
        <time>2026-03-20T14:27:51.491Z</time>
      </trkpt>
      <trkpt lat="53.139028" lon="8.794460">
        <ele>0.550516</ele>
        <time>2026-03-20T14:28:04.604Z</time>
      </trkpt>
      <trkpt lat="53.138574" lon="8.794870">
        <ele>0.517739</ele>
        <time>2026-03-20T14:28:16.059Z</time>
      </trkpt>
      <trkpt lat="53.138325" lon="8.795016">
        <ele>0.453537</ele>
        <time>2026-03-20T14:28:21.863Z</time>
      </trkpt>
      <trkpt lat="53.138010" lon="8.795092">
        <ele>0.376120</ele>
        <time>2026-03-20T14:28:28.748Z</time>
      </trkpt>
      <trkpt lat="53.137909" lon="8.795065">
        <ele>0.351239</ele>
        <time>2026-03-20T14:28:30.898Z</time>
      </trkpt>
      <trkpt lat="53.137775" lon="8.794924">
        <ele>0.312696</ele>
        <time>2026-03-20T14:28:34.251Z</time>
      </trkpt>
      <trkpt lat="53.137705" lon="8.795095">
        <ele>0.282489</ele>
        <time>2026-03-20T14:28:36.875Z</time>
      </trkpt>
      <trkpt lat="53.137676" lon="8.795269">
        <ele>0.256138</ele>
        <time>2026-03-20T14:28:39.154Z</time>
      </trkpt>
      <trkpt lat="53.137663" lon="8.795583">
        <ele>0.210212</ele>
        <time>2026-03-20T14:28:43.097Z</time>
      </trkpt>
      <trkpt lat="53.137654" lon="8.795835">
        <ele>0.173376</ele>
        <time>2026-03-20T14:28:46.249Z</time>
      </trkpt>
      <trkpt lat="53.137645" lon="8.795957">
        <ele>0.155440</ele>
        <time>2026-03-20T14:28:47.774Z</time>
      </trkpt>
      <trkpt lat="53.137397" lon="8.796025">
        <ele>0.072367</ele>
        <time>2026-03-20T14:28:52.971Z</time>
      </trkpt>
      <trkpt lat="53.136284" lon="8.796705">
        <ele>-0.389204</ele>
        <time>2026-03-20T14:29:17.519Z</time>
      </trkpt>
      <trkpt lat="53.135221" lon="8.796871">
        <ele>-0.619663</ele>
        <time>2026-03-20T14:29:40.413Z</time>
      </trkpt>
      <trkpt lat="53.134642" lon="8.796923">
        <ele>-0.667748</ele>
        <time>2026-03-20T14:29:53.042Z</time>
      </trkpt>
      <trkpt lat="53.134353" lon="8.797009">
        <ele>-0.692094</ele>
        <time>2026-03-20T14:29:59.570Z</time>
      </trkpt>
      <trkpt lat="53.134251" lon="8.797018">
        <ele>-0.700564</ele>
        <time>2026-03-20T14:30:01.858Z</time>
      </trkpt>
      <trkpt lat="53.133846" lon="8.796895">
        <ele>-0.673629</ele>
        <time>2026-03-20T14:30:11.219Z</time>
      </trkpt>
      <trkpt lat="53.133666" lon="8.796879">
        <ele>-0.631572</ele>
        <time>2026-03-20T14:30:15.390Z</time>
      </trkpt>
      <trkpt lat="53.133092" lon="8.796955">
        <ele>-0.497225</ele>
        <time>2026-03-20T14:30:28.874Z</time>
      </trkpt>
      <trkpt lat="53.132334" lon="8.797114">
        <ele>-0.318973</ele>
        <time>2026-03-20T14:30:46.878Z</time>
      </trkpt>
      <trkpt lat="53.131914" lon="8.797044">
        <ele>-0.262137</ele>
        <time>2026-03-20T14:30:56.600Z</time>
      </trkpt>
      <trkpt lat="53.130497" lon="8.797033">
        <ele>-0.106833</ele>
        <time>2026-03-20T14:31:28.456Z</time>
      </trkpt>
      <trkpt lat="53.130354" lon="8.797076">
        <ele>-0.090738</ele>
        <time>2026-03-20T14:31:31.692Z</time>
      </trkpt>
      <trkpt lat="53.130079" lon="8.797244">
        <ele>-0.058143</ele>
        <time>2026-03-20T14:31:38.210Z</time>
      </trkpt>
      <trkpt lat="53.129199" lon="8.798470">
        <ele>0.069501</ele>
        <time>2026-03-20T14:32:04.224Z</time>
      </trkpt>
      <trkpt lat="53.129154" lon="8.798550">
        <ele>0.076823</ele>
        <time>2026-03-20T14:32:05.764Z</time>
      </trkpt>
      <trkpt lat="53.128870" lon="8.799133">
        <ele>0.102147</ele>
        <time>2026-03-20T14:32:16.057Z</time>
      </trkpt>
      <trkpt lat="53.128403" lon="8.799835">
        <ele>0.111605</ele>
        <time>2026-03-20T14:32:30.212Z</time>
      </trkpt>
      <trkpt lat="53.128009" lon="8.800984">
        <ele>0.123548</ele>
        <time>2026-03-20T14:32:47.719Z</time>
      </trkpt>
      <trkpt lat="53.127832" lon="8.801786">
        <ele>0.219683</ele>
        <time>2026-03-20T14:32:58.993Z</time>
      </trkpt>
      <trkpt lat="53.127624" lon="8.802259">
        <ele>0.303754</ele>
        <time>2026-03-20T14:33:06.991Z</time>
      </trkpt>
      <trkpt lat="53.127507" lon="8.802451">
        <ele>0.342985</ele>
        <time>2026-03-20T14:33:10.811Z</time>
      </trkpt>
      <trkpt lat="53.127228" lon="8.802808">
        <ele>0.427026</ele>
        <time>2026-03-20T14:33:19.109Z</time>
      </trkpt>
      <trkpt lat="53.127024" lon="8.803277">
        <ele>0.510072</ele>
        <time>2026-03-20T14:33:27.399Z</time>
      </trkpt>
      <trkpt lat="53.126789" lon="8.803678">
        <ele>0.609906</ele>
        <time>2026-03-20T14:33:35.491Z</time>
      </trkpt>
      <trkpt lat="53.126637" lon="8.804040">
        <ele>0.708125</ele>
        <time>2026-03-20T14:33:41.876Z</time>
      </trkpt>
      <trkpt lat="53.126554" lon="8.804182">
        <ele>0.752193</ele>
        <time>2026-03-20T14:33:44.747Z</time>
      </trkpt>
      <trkpt lat="53.126350" lon="8.804347">
        <ele>0.836200</ele>
        <time>2026-03-20T14:33:50.200Z</time>
      </trkpt>
      <trkpt lat="53.125490" lon="8.805635">
        <ele>1.204603</ele>
        <time>2026-03-20T14:34:17.512Z</time>
      </trkpt>
      <trkpt lat="53.125399" lon="8.805747">
        <ele>1.188284</ele>
        <time>2026-03-20T14:34:20.192Z</time>
      </trkpt>
      <trkpt lat="53.125056" lon="8.806041">
        <ele>1.132646</ele>
        <time>2026-03-20T14:34:29.030Z</time>
      </trkpt>
      <trkpt lat="53.124418" lon="8.806740">
        <ele>1.022508</ele>
        <time>2026-03-20T14:34:45.186Z</time>
      </trkpt>
      <trkpt lat="53.124040" lon="8.806874">
        <ele>0.966763</ele>
        <time>2026-03-20T14:34:53.158Z</time>
      </trkpt>
      <trkpt lat="53.123596" lon="8.807115">
        <ele>0.842128</ele>
        <time>2026-03-20T14:35:02.730Z</time>
      </trkpt>
      <trkpt lat="53.122226" lon="8.807536">
        <ele>0.468181</ele>
        <time>2026-03-20T14:35:32.452Z</time>
      </trkpt>
      <trkpt lat="53.122020" lon="8.807629">
        <ele>0.492851</ele>
        <time>2026-03-20T14:35:37.282Z</time>
      </trkpt>
      <trkpt lat="53.121846" lon="8.807785">
        <ele>0.515690</ele>
        <time>2026-03-20T14:35:41.759Z</time>
      </trkpt>
      <trkpt lat="53.121089" lon="8.808519">
        <ele>0.616928</ele>
        <time>2026-03-20T14:36:01.762Z</time>
      </trkpt>
      <trkpt lat="53.120803" lon="8.808924">
        <ele>0.660312</ele>
        <time>2026-03-20T14:36:10.388Z</time>
      </trkpt>
      <trkpt lat="53.120556" lon="8.809479">
        <ele>0.815723</ele>
        <time>2026-03-20T14:36:19.921Z</time>
      </trkpt>
      <trkpt lat="53.120438" lon="8.809950">
        <ele>0.958615</ele>
        <time>2026-03-20T14:36:27.101Z</time>
      </trkpt>
      <trkpt lat="53.120351" lon="8.810442">
        <ele>1.102213</ele>
        <time>2026-03-20T14:36:34.601Z</time>
      </trkpt>
      <trkpt lat="53.120340" lon="8.810505">
        <ele>1.120582</ele>
        <time>2026-03-20T14:36:35.572Z</time>
      </trkpt>
      <trkpt lat="53.120198" lon="8.811273">
        <ele>1.345569</ele>
        <time>2026-03-20T14:36:47.511Z</time>
      </trkpt>
      <trkpt lat="53.120027" lon="8.811912">
        <ele>1.531006</ele>
        <time>2026-03-20T14:36:57.903Z</time>
      </trkpt>
      <trkpt lat="53.119878" lon="8.812216">
        <ele>1.602041</ele>
        <time>2026-03-20T14:37:03.683Z</time>
      </trkpt>
      <trkpt lat="53.119684" lon="8.812534">
        <ele>1.684107</ele>
        <time>2026-03-20T14:37:10.282Z</time>
      </trkpt>
      <trkpt lat="53.119503" lon="8.812862">
        <ele>1.764750</ele>
        <time>2026-03-20T14:37:16.778Z</time>
      </trkpt>
      <trkpt lat="53.119366" lon="8.813167">
        <ele>1.833698</ele>
        <time>2026-03-20T14:37:22.196Z</time>
      </trkpt>
      <trkpt lat="53.119087" lon="8.814039">
        <ele>2.012543</ele>
        <time>2026-03-20T14:37:35.369Z</time>
      </trkpt>
      <trkpt lat="53.118702" lon="8.814921">
        <ele>2.006146</ele>
        <time>2026-03-20T14:37:49.736Z</time>
      </trkpt>
      <trkpt lat="53.118561" lon="8.815122">
        <ele>1.988822</ele>
        <time>2026-03-20T14:37:53.816Z</time>
      </trkpt>
      <trkpt lat="53.118210" lon="8.815423">
        <ele>1.951968</ele>
        <time>2026-03-20T14:38:02.367Z</time>
      </trkpt>
      <trkpt lat="53.118151" lon="8.815540">
        <ele>1.943406</ele>
        <time>2026-03-20T14:38:04.310Z</time>
      </trkpt>
      <trkpt lat="53.118111" lon="8.815677">
        <ele>1.934869</ele>
        <time>2026-03-20T14:38:06.270Z</time>
      </trkpt>
      <trkpt lat="53.118075" lon="8.816016">
        <ele>1.915580</ele>
        <time>2026-03-20T14:38:10.652Z</time>
      </trkpt>
      <trkpt lat="53.118071" lon="8.816413">
        <ele>1.893333</ele>
        <time>2026-03-20T14:38:15.854Z</time>
      </trkpt>
      <trkpt lat="53.118054" lon="8.816622">
        <ele>1.904847</ele>
        <time>2026-03-20T14:38:18.672Z</time>
      </trkpt>
      <trkpt lat="53.117962" lon="8.817010">
        <ele>1.993091</ele>
        <time>2026-03-20T14:38:24.402Z</time>
      </trkpt>
      <trkpt lat="53.117839" lon="8.817290">
        <ele>2.066487</ele>
        <time>2026-03-20T14:38:29.415Z</time>
      </trkpt>
      <trkpt lat="53.117707" lon="8.817440">
        <ele>2.122799</ele>
        <time>2026-03-20T14:38:33.403Z</time>
      </trkpt>
      <trkpt lat="53.117477" lon="8.817535">
        <ele>2.206313</ele>
        <time>2026-03-20T14:38:39.436Z</time>
      </trkpt>
      <trkpt lat="53.117411" lon="8.817648">
        <ele>2.239666</ele>
        <time>2026-03-20T14:38:41.898Z</time>
      </trkpt>
      <trkpt lat="53.117377" lon="8.817849">
        <ele>2.283839</ele>
        <time>2026-03-20T14:38:45.155Z</time>
      </trkpt>
      <trkpt lat="53.117402" lon="8.818173">
        <ele>2.352938</ele>
        <time>2026-03-20T14:38:50.129Z</time>
      </trkpt>
      <trkpt lat="53.117373" lon="8.818407">
        <ele>2.403479</ele>
        <time>2026-03-20T14:38:53.634Z</time>
      </trkpt>
      <trkpt lat="53.117310" lon="8.818539">
        <ele>2.439152</ele>
        <time>2026-03-20T14:38:56.034Z</time>
      </trkpt>
      <trkpt lat="53.117190" lon="8.818668">
        <ele>2.489484</ele>
        <time>2026-03-20T14:38:59.218Z</time>
      </trkpt>
      <trkpt lat="53.116945" lon="8.818784">
        <ele>2.461051</ele>
        <time>2026-03-20T14:39:04.557Z</time>
      </trkpt>
      <trkpt lat="53.116808" lon="8.818834">
        <ele>2.411349</ele>
        <time>2026-03-20T14:39:07.502Z</time>
      </trkpt>
      <trkpt lat="53.116731" lon="8.818856">
        <ele>2.383663</ele>
        <time>2026-03-20T14:39:09.106Z</time>
      </trkpt>
      <trkpt lat="53.116618" lon="8.818869">
        <ele>2.343522</ele>
        <time>2026-03-20T14:39:11.516Z</time>
      </trkpt>
      <trkpt lat="53.116263" lon="8.818854">
        <ele>2.217675</ele>
        <time>2026-03-20T14:39:18.869Z</time>
      </trkpt>
      <trkpt lat="53.115954" lon="8.818859">
        <ele>2.108165</ele>
        <time>2026-03-20T14:39:25.139Z</time>
      </trkpt>
      <trkpt lat="53.115353" lon="8.818899">
        <ele>1.895011</ele>
        <time>2026-03-20T14:39:37.187Z</time>
      </trkpt>
      <trkpt lat="53.114920" lon="8.818971">
        <ele>1.864399</ele>
        <time>2026-03-20T14:39:46.602Z</time>
      </trkpt>
      <trkpt lat="53.114240" lon="8.819242">
        <ele>1.832136</ele>
        <time>2026-03-20T14:40:03.065Z</time>
      </trkpt>
      <trkpt lat="53.114084" lon="8.819315">
        <ele>1.824659</ele>
        <time>2026-03-20T14:40:06.643Z</time>
      </trkpt>
      <trkpt lat="53.114043" lon="8.819334">
        <ele>1.822696</ele>
        <time>2026-03-20T14:40:07.575Z</time>
      </trkpt>
      <trkpt lat="53.113912" lon="8.819395">
        <ele>1.816419</ele>
        <time>2026-03-20T14:40:10.533Z</time>
      </trkpt>
      <trkpt lat="53.113756" lon="8.819466">
        <ele>1.808957</ele>
        <time>2026-03-20T14:40:13.987Z</time>
      </trkpt>
      <trkpt lat="53.112971" lon="8.819825">
        <ele>1.847110</ele>
        <time>2026-03-20T14:40:31.507Z</time>
      </trkpt>
      <trkpt lat="53.112658" lon="8.819966">
        <ele>1.871881</ele>
        <time>2026-03-20T14:40:38.983Z</time>
      </trkpt>
      <trkpt lat="53.112436" lon="8.820066">
        <ele>1.889449</ele>
        <time>2026-03-20T14:40:44.302Z</time>
      </trkpt>
      <trkpt lat="53.112115" lon="8.820215">
        <ele>1.914906</ele>
        <time>2026-03-20T14:40:51.939Z</time>
      </trkpt>
      <trkpt lat="53.112138" lon="8.820358">
        <ele>1.921695</ele>
        <time>2026-03-20T14:40:54.664Z</time>
      </trkpt>
      <trkpt lat="53.112067" lon="8.820390">
        <ele>1.927314</ele>
        <time>2026-03-20T14:40:56.307Z</time>
      </trkpt>
      <trkpt lat="53.111988" lon="8.820426">
        <ele>1.933571</ele>
        <time>2026-03-20T14:40:58.258Z</time>
      </trkpt>
      <trkpt lat="53.111943" lon="8.820443">
        <ele>1.937096</ele>
        <time>2026-03-20T14:40:59.277Z</time>
      </trkpt>
      <trkpt lat="53.112012" lon="8.820834">
        <ele>1.978494</ele>
        <time>2026-03-20T14:41:06.771Z</time>
      </trkpt>
      <trkpt lat="53.111843" lon="8.821012">
        <ele>2.012548</ele>
        <time>2026-03-20T14:41:11.348Z</time>
      </trkpt>
      <trkpt lat="53.111693" lon="8.821420">
        <ele>2.061463</ele>
        <time>2026-03-20T14:41:17.918Z</time>
      </trkpt>
      <trkpt lat="53.110815" lon="8.824842">
        <ele>2.526029</ele>
        <time>2026-03-20T14:42:08.988Z</time>
      </trkpt>
      <trkpt lat="53.110765" lon="8.824809">
        <ele>2.539074</ele>
        <time>2026-03-20T14:42:10.272Z</time>
      </trkpt>
      <trkpt lat="53.110638" lon="8.824730">
        <ele>2.571956</ele>
        <time>2026-03-20T14:42:13.477Z</time>
      </trkpt>
      <trkpt lat="53.110593" lon="8.824701">
        <ele>2.583659</ele>
        <time>2026-03-20T14:42:14.615Z</time>
      </trkpt>
      <trkpt lat="53.110379" lon="8.824517">
        <ele>2.642071</ele>
        <time>2026-03-20T14:42:20.310Z</time>
      </trkpt>
      <trkpt lat="53.109939" lon="8.824463">
        <ele>2.772274</ele>
        <time>2026-03-20T14:42:30.874Z</time>
      </trkpt>
      <trkpt lat="53.109474" lon="8.824435">
        <ele>2.922981</ele>
        <time>2026-03-20T14:42:42.026Z</time>
      </trkpt>
      <trkpt lat="53.109294" lon="8.824468">
        <ele>2.981634</ele>
        <time>2026-03-20T14:42:46.350Z</time>
      </trkpt>
      <trkpt lat="53.108993" lon="8.824585">
        <ele>3.081744</ele>
        <time>2026-03-20T14:42:53.669Z</time>
      </trkpt>
      <trkpt lat="53.108569" lon="8.824584">
        <ele>3.219073</ele>
        <time>2026-03-20T14:43:03.402Z</time>
      </trkpt>
      <trkpt lat="53.108400" lon="8.824540">
        <ele>3.266589</ele>
        <time>2026-03-20T14:43:07.270Z</time>
      </trkpt>
      <trkpt lat="53.107423" lon="8.824072">
        <ele>3.379160</ele>
        <time>2026-03-20T14:43:30.318Z</time>
      </trkpt>
      <trkpt lat="53.107270" lon="8.824032">
        <ele>3.396310</ele>
        <time>2026-03-20T14:43:33.839Z</time>
      </trkpt>
      <trkpt lat="53.106862" lon="8.824023">
        <ele>3.441493</ele>
        <time>2026-03-20T14:43:43.075Z</time>
      </trkpt>
      <trkpt lat="53.106757" lon="8.823985">
        <ele>3.453392</ele>
        <time>2026-03-20T14:43:45.512Z</time>
      </trkpt>
      <trkpt lat="53.106347" lon="8.823605">
        <ele>3.511665</ele>
        <time>2026-03-20T14:43:56.248Z</time>
      </trkpt>
      <trkpt lat="53.106063" lon="8.823557">
        <ele>3.547846</ele>
        <time>2026-03-20T14:44:02.816Z</time>
      </trkpt>
      <trkpt lat="53.103745" lon="8.825099">
        <ele>3.626162</ele>
        <time>2026-03-20T14:44:59.117Z</time>
      </trkpt>
      <trkpt lat="53.103632" lon="8.825178">
        <ele>3.620514</ele>
        <time>2026-03-20T14:45:01.688Z</time>
      </trkpt>
      <trkpt lat="53.103520" lon="8.825258">
        <ele>3.614898</ele>
        <time>2026-03-20T14:45:04.244Z</time>
      </trkpt>
      <trkpt lat="53.103293" lon="8.825473">
        <ele>3.614840</ele>
        <time>2026-03-20T14:45:09.688Z</time>
      </trkpt>
      <trkpt lat="53.103075" lon="8.825756">
        <ele>3.641400</ele>
        <time>2026-03-20T14:45:15.462Z</time>
      </trkpt>
      <trkpt lat="53.102886" lon="8.825885">
        <ele>3.661028</ele>
        <time>2026-03-20T14:45:19.769Z</time>
      </trkpt>
      <trkpt lat="53.102745" lon="8.825921">
        <ele>3.674736</ele>
        <time>2026-03-20T14:45:22.844Z</time>
      </trkpt>
      <trkpt lat="53.102473" lon="8.826023">
        <ele>3.701529</ele>
        <time>2026-03-20T14:45:28.892Z</time>
      </trkpt>
      <trkpt lat="53.102114" lon="8.826228">
        <ele>3.737998</ele>
        <time>2026-03-20T14:45:37.202Z</time>
      </trkpt>
      <trkpt lat="53.101946" lon="8.826326">
        <ele>3.755104</ele>
        <time>2026-03-20T14:45:41.460Z</time>
      </trkpt>
      <trkpt lat="53.101737" lon="8.826493">
        <ele>3.777380</ele>
        <time>2026-03-20T14:45:47.405Z</time>
      </trkpt>
      <trkpt lat="53.101605" lon="8.826674">
        <ele>3.918708</ele>
        <time>2026-03-20T14:45:51.987Z</time>
      </trkpt>
      <trkpt lat="53.101376" lon="8.827192">
        <ele>4.281760</ele>
        <time>2026-03-20T14:46:02.540Z</time>
      </trkpt>
      <trkpt lat="53.101314" lon="8.827341">
        <ele>4.384074</ele>
        <time>2026-03-20T14:46:05.555Z</time>
      </trkpt>
      <trkpt lat="53.101297" lon="8.827381">
        <ele>4.411733</ele>
        <time>2026-03-20T14:46:06.366Z</time>
      </trkpt>
      <trkpt lat="53.101216" lon="8.827527">
        <ele>4.523926</ele>
        <time>2026-03-20T14:46:09.682Z</time>
      </trkpt>
      <trkpt lat="53.101123" lon="8.827612">
        <ele>4.623645</ele>
        <time>2026-03-20T14:46:12.556Z</time>
      </trkpt>
      <trkpt lat="53.100994" lon="8.827659">
        <ele>4.747774</ele>
        <time>2026-03-20T14:46:16.113Z</time>
      </trkpt>
      <trkpt lat="53.100822" lon="8.827655">
        <ele>4.909472</ele>
        <time>2026-03-20T14:46:20.709Z</time>
      </trkpt>
      <trkpt lat="53.100809" lon="8.827964">
        <ele>5.084297</ele>
        <time>2026-03-20T14:46:26.074Z</time>
      </trkpt>
      <trkpt lat="53.101224" lon="8.828369">
        <ele>5.493029</ele>
        <time>2026-03-20T14:46:39.341Z</time>
      </trkpt>
      <trkpt lat="53.101456" lon="8.828746">
        <ele>5.597638</ele>
        <time>2026-03-20T14:46:47.783Z</time>
      </trkpt>
      <trkpt lat="53.101639" lon="8.829137">
        <ele>5.693704</ele>
        <time>2026-03-20T14:46:55.429Z</time>
      </trkpt>
      <trkpt lat="53.101724" lon="8.829385">
        <ele>5.749038</ele>
        <time>2026-03-20T14:46:59.816Z</time>
      </trkpt>
      <trkpt lat="53.101793" lon="8.829697">
        <ele>5.813466</ele>
        <time>2026-03-20T14:47:04.903Z</time>
      </trkpt>
      <trkpt lat="53.101824" lon="8.829970">
        <ele>5.867303</ele>
        <time>2026-03-20T14:47:09.159Z</time>
      </trkpt>
      <trkpt lat="53.101828" lon="8.830304">
        <ele>5.932036</ele>
        <time>2026-03-20T14:47:14.287Z</time>
      </trkpt>
      <trkpt lat="53.101769" lon="8.831050">
        <ele>6.048067</ele>
        <time>2026-03-20T14:47:25.837Z</time>
      </trkpt>
      <trkpt lat="53.101680" lon="8.831528">
        <ele>6.038155</ele>
        <time>2026-03-20T14:47:33.471Z</time>
      </trkpt>
      <trkpt lat="53.101512" lon="8.832106">
        <ele>6.025435</ele>
        <time>2026-03-20T14:47:43.100Z</time>
      </trkpt>
      <trkpt lat="53.101378" lon="8.832819">
        <ele>6.010637</ele>
        <time>2026-03-20T14:47:54.048Z</time>
      </trkpt>
      <trkpt lat="53.101333" lon="8.833501">
        <ele>5.997047</ele>
        <time>2026-03-20T14:48:03.945Z</time>
      </trkpt>
      <trkpt lat="53.101396" lon="8.834418">
        <ele>5.914953</ele>
        <time>2026-03-20T14:48:17.141Z</time>
      </trkpt>
      <trkpt lat="53.101358" lon="8.835239">
        <ele>5.816856</ele>
        <time>2026-03-20T14:48:29.207Z</time>
      </trkpt>
      <trkpt lat="53.101244" lon="8.835612">
        <ele>5.766995</ele>
        <time>2026-03-20T14:48:35.338Z</time>
      </trkpt>
      <trkpt lat="53.101121" lon="8.835799">
        <ele>5.733951</ele>
        <time>2026-03-20T14:48:39.329Z</time>
      </trkpt>
      <trkpt lat="53.101010" lon="8.835967">
        <ele>5.704191</ele>
        <time>2026-03-20T14:48:42.861Z</time>
      </trkpt>
      <trkpt lat="53.100932" lon="8.836047">
        <ele>5.686016</ele>
        <time>2026-03-20T14:48:44.990Z</time>
      </trkpt>
      <trkpt lat="53.100848" lon="8.836002">
        <ele>5.668508</ele>
        <time>2026-03-20T14:48:47.002Z</time>
      </trkpt>
      <trkpt lat="53.100783" lon="8.836016">
        <ele>5.655503</ele>
        <time>2026-03-20T14:48:48.526Z</time>
      </trkpt>
      <trkpt lat="53.100737" lon="8.836068">
        <ele>5.644472</ele>
        <time>2026-03-20T14:48:49.796Z</time>
      </trkpt>
      <trkpt lat="53.100591" lon="8.836336">
        <ele>5.633794</ele>
        <time>2026-03-20T14:48:54.849Z</time>
      </trkpt>
      <trkpt lat="53.100519" lon="8.836395">
        <ele>5.633404</ele>
        <time>2026-03-20T14:48:56.753Z</time>
      </trkpt>
      <trkpt lat="53.100363" lon="8.836467">
        <ele>5.632617</ele>
        <time>2026-03-20T14:49:00.626Z</time>
      </trkpt>
      <trkpt lat="53.100076" lon="8.836504">
        <ele>5.631218</ele>
        <time>2026-03-20T14:49:07.684Z</time>
      </trkpt>
      <trkpt lat="53.099878" lon="8.836477">
        <ele>5.630252</ele>
        <time>2026-03-20T14:49:12.580Z</time>
      </trkpt>
      <trkpt lat="53.099674" lon="8.836419">
        <ele>5.629246</ele>
        <time>2026-03-20T14:49:17.676Z</time>
      </trkpt>
      <trkpt lat="53.099316" lon="8.836197">
        <ele>5.627389</ele>
        <time>2026-03-20T14:49:27.092Z</time>
      </trkpt>
      <trkpt lat="53.099009" lon="8.835931">
        <ele>5.640557</ele>
        <time>2026-03-20T14:49:35.897Z</time>
      </trkpt>
      <trkpt lat="53.098422" lon="8.835272">
        <ele>5.959752</ele>
        <time>2026-03-20T14:49:55.244Z</time>
      </trkpt>
      <trkpt lat="53.098003" lon="8.834577">
        <ele>6.226395</ele>
        <time>2026-03-20T14:50:11.180Z</time>
      </trkpt>
      <trkpt lat="53.097934" lon="8.834463">
        <ele>6.270220</ele>
        <time>2026-03-20T14:50:13.771Z</time>
      </trkpt>
      <trkpt lat="53.097887" lon="8.834367">
        <ele>6.303756</ele>
        <time>2026-03-20T14:50:15.551Z</time>
      </trkpt>
      <trkpt lat="53.097836" lon="8.834271">
        <ele>6.338459</ele>
        <time>2026-03-20T14:50:17.365Z</time>
      </trkpt>
      <trkpt lat="53.097775" lon="8.834150">
        <ele>6.381234</ele>
        <time>2026-03-20T14:50:19.618Z</time>
      </trkpt>
      <trkpt lat="53.097597" lon="8.833756">
        <ele>6.448900</ele>
        <time>2026-03-20T14:50:26.582Z</time>
      </trkpt>
      <trkpt lat="53.097500" lon="8.833432">
        <ele>6.464046</ele>
        <time>2026-03-20T14:50:31.648Z</time>
      </trkpt>
      <trkpt lat="53.097422" lon="8.833116">
        <ele>6.478339</ele>
        <time>2026-03-20T14:50:36.382Z</time>
      </trkpt>
      <trkpt lat="53.097378" lon="8.832818">
        <ele>6.491177</ele>
        <time>2026-03-20T14:50:40.632Z</time>
      </trkpt>
      <trkpt lat="53.097351" lon="8.832504">
        <ele>6.504447</ele>
        <time>2026-03-20T14:50:44.949Z</time>
      </trkpt>
      <trkpt lat="53.097350" lon="8.832148">
        <ele>6.519341</ele>
        <time>2026-03-20T14:50:49.742Z</time>
      </trkpt>
      <trkpt lat="53.096889" lon="8.831967">
        <ele>6.552340</ele>
        <time>2026-03-20T14:51:01.199Z</time>
      </trkpt>
      <trkpt lat="53.096581" lon="8.831996">
        <ele>6.501403</ele>
        <time>2026-03-20T14:51:08.502Z</time>
      </trkpt>
      <trkpt lat="53.096192" lon="8.832124">
        <ele>6.357258</ele>
        <time>2026-03-20T14:51:17.824Z</time>
      </trkpt>
      <trkpt lat="53.096055" lon="8.832171">
        <ele>6.306409</ele>
        <time>2026-03-20T14:51:21.085Z</time>
      </trkpt>
      <trkpt lat="53.095934" lon="8.832217">
        <ele>6.261291</ele>
        <time>2026-03-20T14:51:23.663Z</time>
      </trkpt>
      <trkpt lat="53.095779" lon="8.832260">
        <ele>6.204168</ele>
        <time>2026-03-20T14:51:27.338Z</time>
      </trkpt>
      <trkpt lat="53.095302" lon="8.832329">
        <ele>6.030114</ele>
        <time>2026-03-20T14:51:38.436Z</time>
      </trkpt>
      <trkpt lat="53.094951" lon="8.832234">
        <ele>5.909328</ele>
        <time>2026-03-20T14:51:46.605Z</time>
      </trkpt>
      <trkpt lat="53.094547" lon="8.831923">
        <ele>5.930843</ele>
        <time>2026-03-20T14:51:57.002Z</time>
      </trkpt>
      <trkpt lat="53.094281" lon="8.831606">
        <ele>5.946655</ele>
        <time>2026-03-20T14:52:04.851Z</time>
      </trkpt>
      <trkpt lat="53.093964" lon="8.831295">
        <ele>5.964440</ele>
        <time>2026-03-20T14:52:14.125Z</time>
      </trkpt>
      <trkpt lat="53.093482" lon="8.831050">
        <ele>5.988801</ele>
        <time>2026-03-20T14:52:27.321Z</time>
      </trkpt>
      <trkpt lat="53.093221" lon="8.830968">
        <ele>6.056542</ele>
        <time>2026-03-20T14:52:34.415Z</time>
      </trkpt>
      <trkpt lat="53.092941" lon="8.830880">
        <ele>6.189178</ele>
        <time>2026-03-20T14:52:42.142Z</time>
      </trkpt>
      <trkpt lat="53.092858" lon="8.830862">
        <ele>6.228140</ele>
        <time>2026-03-20T14:52:44.449Z</time>
      </trkpt>
      <trkpt lat="53.092510" lon="8.830813">
        <ele>6.390706</ele>
        <time>2026-03-20T14:52:54.014Z</time>
      </trkpt>
      <trkpt lat="53.092378" lon="8.830743">
        <ele>6.455190</ele>
        <time>2026-03-20T14:52:57.799Z</time>
      </trkpt>
      <trkpt lat="53.092247" lon="8.830674">
        <ele>6.519146</ele>
        <time>2026-03-20T14:53:01.532Z</time>
      </trkpt>
      <trkpt lat="53.091833" lon="8.830312">
        <ele>6.736808</ele>
        <time>2026-03-20T14:53:13.846Z</time>
      </trkpt>
      <trkpt lat="53.091488" lon="8.830160">
        <ele>6.860280</ele>
        <time>2026-03-20T14:53:22.999Z</time>
      </trkpt>
      <trkpt lat="53.091100" lon="8.830078">
        <ele>6.932070</ele>
        <time>2026-03-20T14:53:32.987Z</time>
      </trkpt>
      <trkpt lat="53.090997" lon="8.830002">
        <ele>6.952749</ele>
        <time>2026-03-20T14:53:35.860Z</time>
      </trkpt>
      <trkpt lat="53.090552" lon="8.829458">
        <ele>7.054079</ele>
        <time>2026-03-20T14:53:49.929Z</time>
      </trkpt>
      <trkpt lat="53.090130" lon="8.828855">
        <ele>7.156149</ele>
        <time>2026-03-20T14:54:03.985Z</time>
      </trkpt>
      <trkpt lat="53.089925" lon="8.828700">
        <ele>7.145963</ele>
        <time>2026-03-20T14:54:09.629Z</time>
      </trkpt>
      <trkpt lat="53.089722" lon="8.828641">
        <ele>7.127821</ele>
        <time>2026-03-20T14:54:14.752Z</time>
      </trkpt>
      <trkpt lat="53.089084" lon="8.828273">
        <ele>7.068376</ele>
        <time>2026-03-20T14:54:31.281Z</time>
      </trkpt>
      <trkpt lat="53.088808" lon="8.828070">
        <ele>7.041811</ele>
        <time>2026-03-20T14:54:38.523Z</time>
      </trkpt>
      <trkpt lat="53.088513" lon="8.827807">
        <ele>7.012351</ele>
        <time>2026-03-20T14:54:46.395Z</time>
      </trkpt>
      <trkpt lat="53.088019" lon="8.827267">
        <ele>6.860951</ele>
        <time>2026-03-20T14:55:00.444Z</time>
      </trkpt>
      <trkpt lat="53.087657" lon="8.826914">
        <ele>6.740571</ele>
        <time>2026-03-20T14:55:10.578Z</time>
      </trkpt>
      <trkpt lat="53.087403" lon="8.826773">
        <ele>6.663741</ele>
        <time>2026-03-20T14:55:17.069Z</time>
      </trkpt>
      <trkpt lat="53.086816" lon="8.826594">
        <ele>6.492499</ele>
        <time>2026-03-20T14:55:31.185Z</time>
      </trkpt>
      <trkpt lat="53.086658" lon="8.826568">
        <ele>6.439817</ele>
        <time>2026-03-20T14:55:34.800Z</time>
      </trkpt>
      <trkpt lat="53.086498" lon="8.826541">
        <ele>6.385699</ele>
        <time>2026-03-20T14:55:38.403Z</time>
      </trkpt>
      <trkpt lat="53.086425" lon="8.826434">
        <ele>6.352971</ele>
        <time>2026-03-20T14:55:40.571Z</time>
      </trkpt>
      <trkpt lat="53.086539" lon="8.826109">
        <ele>6.276904</ele>
        <time>2026-03-20T14:55:44.955Z</time>
      </trkpt>
      <trkpt lat="53.086660" lon="8.825850">
        <ele>6.210586</ele>
        <time>2026-03-20T14:55:48.724Z</time>
      </trkpt>
      <trkpt lat="53.087116" lon="8.825026">
        <ele>5.984133</ele>
        <time>2026-03-20T14:56:02.753Z</time>
      </trkpt>
      <trkpt lat="53.087437" lon="8.824540">
        <ele>5.947195</ele>
        <time>2026-03-20T14:56:12.904Z</time>
      </trkpt>
      <trkpt lat="53.087861" lon="8.824005">
        <ele>6.204064</ele>
        <time>2026-03-20T14:56:26.548Z</time>
      </trkpt>
      <trkpt lat="53.087999" lon="8.823853">
        <ele>6.283955</ele>
        <time>2026-03-20T14:56:30.872Z</time>
      </trkpt>
      <trkpt lat="53.088192" lon="8.823629">
        <ele>6.397548</ele>
        <time>2026-03-20T14:56:36.883Z</time>
      </trkpt>
      <trkpt lat="53.088315" lon="8.823506">
        <ele>6.466825</ele>
        <time>2026-03-20T14:56:40.580Z</time>
      </trkpt>
      <trkpt lat="53.088423" lon="8.823300">
        <ele>6.546120</ele>
        <time>2026-03-20T14:56:44.802Z</time>
      </trkpt>
      <trkpt lat="53.088494" lon="8.822849">
        <ele>6.681321</ele>
        <time>2026-03-20T14:56:51.477Z</time>
      </trkpt>
      <trkpt lat="53.088412" lon="8.822826">
        <ele>6.721471</ele>
        <time>2026-03-20T14:56:53.344Z</time>
      </trkpt>
      <trkpt lat="53.088348" lon="8.822760">
        <ele>6.749014</ele>
        <time>2026-03-20T14:56:54.969Z</time>
      </trkpt>
      <trkpt lat="53.088081" lon="8.822399">
        <ele>6.688062</ele>
        <time>2026-03-20T14:57:02.210Z</time>
      </trkpt>
      <trkpt lat="53.087700" lon="8.821882">
        <ele>6.600960</ele>
        <time>2026-03-20T14:57:12.436Z</time>
      </trkpt>
      <trkpt lat="53.087463" lon="8.821561">
        <ele>6.546819</ele>
        <time>2026-03-20T14:57:18.801Z</time>
      </trkpt>
      <trkpt lat="53.087044" lon="8.820993">
        <ele>6.451067</ele>
        <time>2026-03-20T14:57:30.769Z</time>
      </trkpt>
      <trkpt lat="53.086713" lon="8.820544">
        <ele>6.309421</ele>
        <time>2026-03-20T14:57:40.158Z</time>
      </trkpt>
      <trkpt lat="53.086587" lon="8.820373">
        <ele>6.247397</ele>
        <time>2026-03-20T14:57:43.503Z</time>
      </trkpt>
      <trkpt lat="53.086573" lon="8.820256">
        <ele>6.220058</ele>
        <time>2026-03-20T14:57:44.899Z</time>
      </trkpt>
      <trkpt lat="53.087071" lon="8.819236">
        <ele>5.918820</ele>
        <time>2026-03-20T14:58:00.538Z</time>
      </trkpt>
      <trkpt lat="53.087104" lon="8.819279">
        <ele>5.902831</ele>
        <time>2026-03-20T14:58:03.426Z</time>
      </trkpt>
      <trkpt lat="53.087071" lon="8.819236">
        <ele>5.886842</ele>
        <time>2026-03-20T14:58:06.313Z</time>
      </trkpt>
      <trkpt lat="53.087134" lon="8.819109">
        <ele>5.849095</ele>
        <time>2026-03-20T14:58:08.350Z</time>
      </trkpt>
      <trkpt lat="53.087089" lon="8.819049">
        <ele>5.827098</ele>
        <time>2026-03-20T14:58:09.745Z</time>
      </trkpt>
      <trkpt lat="53.087039" lon="8.818983">
        <ele>5.802752</ele>
        <time>2026-03-20T14:58:11.228Z</time>
      </trkpt>
      <trkpt lat="53.086630" lon="8.818447">
        <ele>5.875646</ele>
        <time>2026-03-20T14:58:24.430Z</time>
      </trkpt>
      <trkpt lat="53.086506" lon="8.818447">
        <ele>5.918669</ele>
        <time>2026-03-20T14:58:27.666Z</time>
      </trkpt>
      <trkpt lat="53.086450" lon="8.818369">
        <ele>5.944002</ele>
        <time>2026-03-20T14:58:29.505Z</time>
      </trkpt>
      <trkpt lat="53.086357" lon="8.818247">
        <ele>5.985082</ele>
        <time>2026-03-20T14:58:32.447Z</time>
      </trkpt>
      <trkpt lat="53.086339" lon="8.818224">
        <ele>5.992955</ele>
        <time>2026-03-20T14:58:33.041Z</time>
      </trkpt>
      <trkpt lat="53.085918" lon="8.817733">
        <ele>6.171299</ele>
        <time>2026-03-20T14:58:46.233Z</time>
      </trkpt>
      <trkpt lat="53.085918" lon="8.817733">
        <ele>6.171299</ele>
        <time>2026-03-20T14:58:46.244Z</time>
      </trkpt>
      <trkpt lat="53.085543" lon="8.817382">
        <ele>6.320562</ele>
        <time>2026-03-20T14:58:57.384Z</time>
      </trkpt>
      <trkpt lat="53.085389" lon="8.817257">
        <ele>6.375026</ele>
        <time>2026-03-20T14:59:01.659Z</time>
      </trkpt>
      <trkpt lat="53.085157" lon="8.817087">
        <ele>6.417319</ele>
        <time>2026-03-20T14:59:07.537Z</time>
      </trkpt>
      <trkpt lat="53.085142" lon="8.817077">
        <ele>6.420015</ele>
        <time>2026-03-20T14:59:07.893Z</time>
      </trkpt>
      <trkpt lat="53.084563" lon="8.816757">
        <ele>6.521806</ele>
        <time>2026-03-20T14:59:21.464Z</time>
      </trkpt>
      <trkpt lat="53.084415" lon="8.816694">
        <ele>6.547294</ele>
        <time>2026-03-20T14:59:24.790Z</time>
      </trkpt>
      <trkpt lat="53.084269" lon="8.816638">
        <ele>6.572293</ele>
        <time>2026-03-20T14:59:28.170Z</time>
      </trkpt>
      <trkpt lat="53.084111" lon="8.816585">
        <ele>6.599185</ele>
        <time>2026-03-20T14:59:31.921Z</time>
      </trkpt>
      <trkpt lat="53.084001" lon="8.816725">
        <ele>6.622288</ele>
        <time>2026-03-20T14:59:35.321Z</time>
      </trkpt>
      <trkpt lat="53.083529" lon="8.817190">
        <ele>6.828572</ele>
        <time>2026-03-20T14:59:49.994Z</time>
      </trkpt>
      <trkpt lat="53.083500" lon="8.817220">
        <ele>6.849377</ele>
        <time>2026-03-20T14:59:50.972Z</time>
      </trkpt>
      <trkpt lat="53.083466" lon="8.817255">
        <ele>6.873736</ele>
        <time>2026-03-20T14:59:52.058Z</time>
      </trkpt>
      <trkpt lat="53.083428" lon="8.817295">
        <ele>6.901132</ele>
        <time>2026-03-20T14:59:53.289Z</time>
      </trkpt>
      <trkpt lat="53.083406" lon="8.817318">
        <ele>6.916962</ele>
        <time>2026-03-20T14:59:54.050Z</time>
      </trkpt>
      <trkpt lat="53.083649" lon="8.818197">
        <ele>7.271126</ele>
        <time>2026-03-20T15:00:09.007Z</time>
      </trkpt>
      <trkpt lat="53.083702" lon="8.818400">
        <ele>7.352141</ele>
        <time>2026-03-20T15:00:12.234Z</time>
      </trkpt>
      <trkpt lat="53.083734" lon="8.818551">
        <ele>7.410747</ele>
        <time>2026-03-20T15:00:14.815Z</time>
      </trkpt>
      <trkpt lat="53.083791" lon="8.818827">
        <ele>7.517570</ele>
        <time>2026-03-20T15:00:19.251Z</time>
      </trkpt>
      <trkpt lat="53.084004" lon="8.820059">
        <ele>7.770825</ele>
        <time>2026-03-20T15:00:38.665Z</time>
      </trkpt>
      <trkpt lat="53.084034" lon="8.820244">
        <ele>7.772191</ele>
        <time>2026-03-20T15:00:41.481Z</time>
      </trkpt>
      <trkpt lat="53.084063" lon="8.820463">
        <ele>7.773789</ele>
        <time>2026-03-20T15:00:44.417Z</time>
      </trkpt>
      <trkpt lat="53.084223" lon="8.822036">
        <ele>7.785157</ele>
        <time>2026-03-20T15:01:06.629Z</time>
      </trkpt>
      <trkpt lat="53.084272" lon="8.822901">
        <ele>7.581656</ele>
        <time>2026-03-20T15:01:17.973Z</time>
      </trkpt>
      <trkpt lat="53.084280" lon="8.824226">
        <ele>7.021001</ele>
        <time>2026-03-20T15:01:33.946Z</time>
      </trkpt>
      <trkpt lat="53.084273" lon="8.824326">
        <ele>6.978403</ele>
        <time>2026-03-20T15:01:35.149Z</time>
      </trkpt>
      <trkpt lat="53.084266" lon="8.824438">
        <ele>6.930758</ele>
        <time>2026-03-20T15:01:36.492Z</time>
      </trkpt>
      <trkpt lat="53.084175" lon="8.824561">
        <ele>6.848188</ele>
        <time>2026-03-20T15:01:38.762Z</time>
      </trkpt>
      <trkpt lat="53.084132" lon="8.824702">
        <ele>6.781279</ele>
        <time>2026-03-20T15:01:40.594Z</time>
      </trkpt>
      <trkpt lat="53.084122" lon="8.824842">
        <ele>6.721626</ele>
        <time>2026-03-20T15:01:42.231Z</time>
      </trkpt>
      <trkpt lat="53.084160" lon="8.825043">
        <ele>6.632466</ele>
        <time>2026-03-20T15:01:44.776Z</time>
      </trkpt>
      <trkpt lat="53.084209" lon="8.825138">
        <ele>6.579483</ele>
        <time>2026-03-20T15:01:46.332Z</time>
      </trkpt>
      <trkpt lat="53.084351" lon="8.825241">
        <ele>6.546345</ele>
        <time>2026-03-20T15:01:49.616Z</time>
      </trkpt>
      <trkpt lat="53.084367" lon="8.825325">
        <ele>6.565190</ele>
        <time>2026-03-20T15:01:50.837Z</time>
      </trkpt>
      <trkpt lat="53.084426" lon="8.825599">
        <ele>6.627436</ele>
        <time>2026-03-20T15:01:54.864Z</time>
      </trkpt>
      <trkpt lat="53.084455" lon="8.825714">
        <ele>6.654108</ele>
        <time>2026-03-20T15:01:56.618Z</time>
      </trkpt>
      <trkpt lat="53.084517" lon="8.825957">
        <ele>6.710566</ele>
        <time>2026-03-20T15:02:00.379Z</time>
      </trkpt>
      <trkpt lat="53.084584" lon="8.826193">
        <ele>6.766388</ele>
        <time>2026-03-20T15:02:04.400Z</time>
      </trkpt>
      <trkpt lat="53.084650" lon="8.826295">
        <ele>6.798449</ele>
        <time>2026-03-20T15:02:06.662Z</time>
      </trkpt>
      <trkpt lat="53.084667" lon="8.826312">
        <ele>6.805510</ele>
        <time>2026-03-20T15:02:07.144Z</time>
      </trkpt>
      <trkpt lat="53.084831" lon="8.827038">
        <ele>6.971378</ele>
        <time>2026-03-20T15:02:18.711Z</time>
      </trkpt>
      <trkpt lat="53.085053" lon="8.827951">
        <ele>7.162542</ele>
        <time>2026-03-20T15:02:34.096Z</time>
      </trkpt>
      <trkpt lat="53.085149" lon="8.828338">
        <ele>7.168257</ele>
        <time>2026-03-20T15:02:40.118Z</time>
      </trkpt>
      <trkpt lat="53.085368" lon="8.829218">
        <ele>7.181258</ele>
        <time>2026-03-20T15:02:52.382Z</time>
      </trkpt>
      <trkpt lat="53.085655" lon="8.830403">
        <ele>7.198697</ele>
        <time>2026-03-20T15:03:08.765Z</time>
      </trkpt>
      <trkpt lat="53.085673" lon="8.830472">
        <ele>7.199723</ele>
        <time>2026-03-20T15:03:09.746Z</time>
      </trkpt>
      <trkpt lat="53.085950" lon="8.831563">
        <ele>7.226910</ele>
        <time>2026-03-20T15:03:26.476Z</time>
      </trkpt>
      <trkpt lat="53.086304" lon="8.832878">
        <ele>7.262281</ele>
        <time>2026-03-20T15:03:46.039Z</time>
      </trkpt>
      <trkpt lat="53.086410" lon="8.833295">
        <ele>7.273395</ele>
        <time>2026-03-20T15:03:52.017Z</time>
      </trkpt>
      <trkpt lat="53.086405" lon="8.833410">
        <ele>7.275969</ele>
        <time>2026-03-20T15:03:53.580Z</time>
      </trkpt>
      <trkpt lat="53.086401" lon="8.833563">
        <ele>7.278202</ele>
        <time>2026-03-20T15:03:55.632Z</time>
      </trkpt>
      <trkpt lat="53.086488" lon="8.833875">
        <ele>7.283219</ele>
        <time>2026-03-20T15:04:00.272Z</time>
      </trkpt>
      <trkpt lat="53.086553" lon="8.834140">
        <ele>7.287394</ele>
        <time>2026-03-20T15:04:04.052Z</time>
      </trkpt>
      <trkpt lat="53.086677" lon="8.834647">
        <ele>7.295379</ele>
        <time>2026-03-20T15:04:11.191Z</time>
      </trkpt>
      <trkpt lat="53.086747" lon="8.834936">
        <ele>7.299924</ele>
        <time>2026-03-20T15:04:15.302Z</time>
      </trkpt>
      <trkpt lat="53.086767" lon="8.835016">
        <ele>7.301188</ele>
        <time>2026-03-20T15:04:16.501Z</time>
      </trkpt>
      <trkpt lat="53.086846" lon="8.835341">
        <ele>7.306301</ele>
        <time>2026-03-20T15:04:21.312Z</time>
      </trkpt>
      <trkpt lat="53.086988" lon="8.835925">
        <ele>7.315491</ele>
        <time>2026-03-20T15:04:29.803Z</time>
      </trkpt>
      <trkpt lat="53.087101" lon="8.836420">
        <ele>7.292040</ele>
        <time>2026-03-20T15:04:37.047Z</time>
      </trkpt>
      <trkpt lat="53.087175" lon="8.836735">
        <ele>7.257970</ele>
        <time>2026-03-20T15:04:41.770Z</time>
      </trkpt>
      <trkpt lat="53.087263" lon="8.837058">
        <ele>7.222243</ele>
        <time>2026-03-20T15:04:46.580Z</time>
      </trkpt>
      <trkpt lat="53.087336" lon="8.837358">
        <ele>7.189638</ele>
        <time>2026-03-20T15:04:50.858Z</time>
      </trkpt>
      <trkpt lat="53.087438" lon="8.837787">
        <ele>7.143163</ele>
        <time>2026-03-20T15:04:56.801Z</time>
      </trkpt>
      <trkpt lat="53.087547" lon="8.838229">
        <ele>7.095034</ele>
        <time>2026-03-20T15:05:02.809Z</time>
      </trkpt>
      <trkpt lat="53.087636" lon="8.838586">
        <ele>7.056099</ele>
        <time>2026-03-20T15:05:07.615Z</time>
      </trkpt>
      <trkpt lat="53.087665" lon="8.838697">
        <ele>7.043906</ele>
        <time>2026-03-20T15:05:09.090Z</time>
      </trkpt>
      <trkpt lat="53.088225" lon="8.840854">
        <ele>6.642467</ele>
        <time>2026-03-20T15:05:38.443Z</time>
      </trkpt>
      <trkpt lat="53.088562" lon="8.842083">
        <ele>6.503828</ele>
        <time>2026-03-20T15:05:56.240Z</time>
      </trkpt>
      <trkpt lat="53.088662" lon="8.842383">
        <ele>6.522376</ele>
        <time>2026-03-20T15:06:00.896Z</time>
      </trkpt>
      <trkpt lat="53.088684" lon="8.842433">
        <ele>6.525726</ele>
        <time>2026-03-20T15:06:01.743Z</time>
      </trkpt>
      <trkpt lat="53.088729" lon="8.842519">
        <ele>6.531892</ele>
        <time>2026-03-20T15:06:03.299Z</time>
      </trkpt>
      <trkpt lat="53.088804" lon="8.842639">
        <ele>6.541254</ele>
        <time>2026-03-20T15:06:05.686Z</time>
      </trkpt>
      <trkpt lat="53.089143" lon="8.843150">
        <ele>6.582413</ele>
        <time>2026-03-20T15:06:16.197Z</time>
      </trkpt>
      <trkpt lat="53.089934" lon="8.844250">
        <ele>6.566502</ele>
        <time>2026-03-20T15:06:39.532Z</time>
      </trkpt>
      <trkpt lat="53.090419" lon="8.844853">
        <ele>6.444324</ele>
        <time>2026-03-20T15:06:52.746Z</time>
      </trkpt>
      <trkpt lat="53.090911" lon="8.845402">
        <ele>6.324775</ele>
        <time>2026-03-20T15:07:05.264Z</time>
      </trkpt>
      <trkpt lat="53.091022" lon="8.845520">
        <ele>6.298193</ele>
        <time>2026-03-20T15:07:08.012Z</time>
      </trkpt>
      <trkpt lat="53.091158" lon="8.845651">
        <ele>6.254116</ele>
        <time>2026-03-20T15:07:11.270Z</time>
      </trkpt>
      <trkpt lat="53.091510" lon="8.845928">
        <ele>6.095371</ele>
        <time>2026-03-20T15:07:19.231Z</time>
      </trkpt>
      <trkpt lat="53.092139" lon="8.846412">
        <ele>5.812844</ele>
        <time>2026-03-20T15:07:33.191Z</time>
      </trkpt>
      <trkpt lat="53.092308" lon="8.846583">
        <ele>5.732212</ele>
        <time>2026-03-20T15:07:37.361Z</time>
      </trkpt>
      <trkpt lat="53.092576" lon="8.846872">
        <ele>5.602026</ele>
        <time>2026-03-20T15:07:44.214Z</time>
      </trkpt>
      <trkpt lat="53.092666" lon="8.847005">
        <ele>5.552963</ele>
        <time>2026-03-20T15:07:46.826Z</time>
      </trkpt>
      <trkpt lat="53.093179" lon="8.847704">
        <ele>5.512423</ele>
        <time>2026-03-20T15:08:01.483Z</time>
      </trkpt>
      <trkpt lat="53.093553" lon="8.848303">
        <ele>5.485992</ele>
        <time>2026-03-20T15:08:13.250Z</time>
      </trkpt>
      <trkpt lat="53.093773" lon="8.848664">
        <ele>5.470259</ele>
        <time>2026-03-20T15:08:20.149Z</time>
      </trkpt>
      <trkpt lat="53.094058" lon="8.849130">
        <ele>5.421069</ele>
        <time>2026-03-20T15:08:28.924Z</time>
      </trkpt>
      <trkpt lat="53.094215" lon="8.849379">
        <ele>5.323646</ele>
        <time>2026-03-20T15:08:33.627Z</time>
      </trkpt>
      <trkpt lat="53.094359" lon="8.849607">
        <ele>5.234361</ele>
        <time>2026-03-20T15:08:37.818Z</time>
      </trkpt>
      <trkpt lat="53.094556" lon="8.849946">
        <ele>5.107069</ele>
        <time>2026-03-20T15:08:43.700Z</time>
      </trkpt>
      <trkpt lat="53.094661" lon="8.850129">
        <ele>5.038772</ele>
        <time>2026-03-20T15:08:46.798Z</time>
      </trkpt>
      <trkpt lat="53.094772" lon="8.850309">
        <ele>4.969154</ele>
        <time>2026-03-20T15:08:50.093Z</time>
      </trkpt>
      <trkpt lat="53.095088" lon="8.850815">
        <ele>4.772168</ele>
        <time>2026-03-20T15:08:59.381Z</time>
      </trkpt>
      <trkpt lat="53.095566" lon="8.851594">
        <ele>4.400718</ele>
        <time>2026-03-20T15:09:13.347Z</time>
      </trkpt>
      <trkpt lat="53.095642" lon="8.851719">
        <ele>4.333127</ele>
        <time>2026-03-20T15:09:15.512Z</time>
      </trkpt>
      <trkpt lat="53.095923" lon="8.852239">
        <ele>4.067316</ele>
        <time>2026-03-20T15:09:24.099Z</time>
      </trkpt>
      <trkpt lat="53.096649" lon="8.853794">
        <ele>3.557370</ele>
        <time>2026-03-20T15:09:48.232Z</time>
      </trkpt>
      <trkpt lat="53.096875" lon="8.854346">
        <ele>3.624911</ele>
        <time>2026-03-20T15:09:57.405Z</time>
      </trkpt>
      <trkpt lat="53.097505" lon="8.855805">
        <ele>3.806584</ele>
        <time>2026-03-20T15:10:23.190Z</time>
      </trkpt>
      <trkpt lat="53.097708" lon="8.856740">
        <ele>3.963767</ele>
        <time>2026-03-20T15:10:37.778Z</time>
      </trkpt>
      <trkpt lat="53.097849" lon="8.857534">
        <ele>4.096365</ele>
        <time>2026-03-20T15:10:49.451Z</time>
      </trkpt>
      <trkpt lat="53.098028" lon="8.858970">
        <ele>4.265459</ele>
        <time>2026-03-20T15:11:09.403Z</time>
      </trkpt>
      <trkpt lat="53.098088" lon="8.859672">
        <ele>4.198842</ele>
        <time>2026-03-20T15:11:18.953Z</time>
      </trkpt>
      <trkpt lat="53.098089" lon="8.860877">
        <ele>4.085634</ele>
        <time>2026-03-20T15:11:34.635Z</time>
      </trkpt>
      <trkpt lat="53.098280" lon="8.860990">
        <ele>4.053920</ele>
        <time>2026-03-20T15:11:38.783Z</time>
      </trkpt>
      <trkpt lat="53.098433" lon="8.861258">
        <ele>4.019177</ele>
        <time>2026-03-20T15:11:43.387Z</time>
      </trkpt>
      <trkpt lat="53.098646" lon="8.861503">
        <ele>3.956393</ele>
        <time>2026-03-20T15:11:48.716Z</time>
      </trkpt>
      <trkpt lat="53.098777" lon="8.861611">
        <ele>3.916352</ele>
        <time>2026-03-20T15:11:51.740Z</time>
      </trkpt>
      <trkpt lat="53.098899" lon="8.861648">
        <ele>3.882384</ele>
        <time>2026-03-20T15:11:54.318Z</time>
      </trkpt>
      <trkpt lat="53.098956" lon="8.861689">
        <ele>3.865376</ele>
        <time>2026-03-20T15:11:55.610Z</time>
      </trkpt>
      <trkpt lat="53.098993" lon="8.861713">
        <ele>3.854499</ele>
        <time>2026-03-20T15:11:56.429Z</time>
      </trkpt>
      <trkpt lat="53.099010" lon="8.861759">
        <ele>3.845615</ele>
        <time>2026-03-20T15:11:57.099Z</time>
      </trkpt>
      <trkpt lat="53.099054" lon="8.861959">
        <ele>3.810581</ele>
        <time>2026-03-20T15:12:01.629Z</time>
      </trkpt>
      <trkpt lat="53.099092" lon="8.862066">
        <ele>3.790134</ele>
        <time>2026-03-20T15:12:03.155Z</time>
      </trkpt>
      <trkpt lat="53.099177" lon="8.861850">
        <ele>3.747657</ele>
        <time>2026-03-20T15:12:06.521Z</time>
      </trkpt>
      <trkpt lat="53.099366" lon="8.861538">
        <ele>3.674762</ele>
        <time>2026-03-20T15:12:12.381Z</time>
      </trkpt>
      <trkpt lat="53.099264" lon="8.862590">
        <ele>3.528429</ele>
        <time>2026-03-20T15:12:26.976Z</time>
      </trkpt>
      <trkpt lat="53.099227" lon="8.862951">
        <ele>3.576033</ele>
        <time>2026-03-20T15:12:32.328Z</time>
      </trkpt>
      <trkpt lat="53.099102" lon="8.864173">
        <ele>3.737163</ele>
        <time>2026-03-20T15:12:50.451Z</time>
      </trkpt>
      <trkpt lat="53.098940" lon="8.865874">
        <ele>3.958805</ele>
        <time>2026-03-20T15:13:15.417Z</time>
      </trkpt>
      <trkpt lat="53.098806" lon="8.867309">
        <ele>4.140067</ele>
        <time>2026-03-20T15:13:36.044Z</time>
      </trkpt>
      <trkpt lat="53.098554" lon="8.869791">
        <ele>4.417407</ele>
        <time>2026-03-20T15:14:12.631Z</time>
      </trkpt>
      <trkpt lat="53.098463" lon="8.870816">
        <ele>4.519554</ele>
        <time>2026-03-20T15:14:27.408Z</time>
      </trkpt>
      <trkpt lat="53.098455" lon="8.870902">
        <ele>4.528134</ele>
        <time>2026-03-20T15:14:28.647Z</time>
      </trkpt>
      <trkpt lat="53.098445" lon="8.871001">
        <ele>4.538031</ele>
        <time>2026-03-20T15:14:30.076Z</time>
      </trkpt>
      <trkpt lat="53.098548" lon="8.871099">
        <ele>4.557507</ele>
        <time>2026-03-20T15:14:32.843Z</time>
      </trkpt>
      <trkpt lat="53.099047" lon="8.871564">
        <ele>4.511990</ele>
        <time>2026-03-20T15:14:45.971Z</time>
      </trkpt>
      <trkpt lat="53.099435" lon="8.871938">
        <ele>4.452603</ele>
        <time>2026-03-20T15:14:56.115Z</time>
      </trkpt>
      <trkpt lat="53.099530" lon="8.872032">
        <ele>4.437964</ele>
        <time>2026-03-20T15:14:58.606Z</time>
      </trkpt>
      <trkpt lat="53.099818" lon="8.872305">
        <ele>4.394066</ele>
        <time>2026-03-20T15:15:06.187Z</time>
      </trkpt>
      <trkpt lat="53.100846" lon="8.873276">
        <ele>4.263094</ele>
        <time>2026-03-20T15:15:32.405Z</time>
      </trkpt>
      <trkpt lat="53.101116" lon="8.873585">
        <ele>4.230974</ele>
        <time>2026-03-20T15:15:40.100Z</time>
      </trkpt>
      <trkpt lat="53.101232" lon="8.873796">
        <ele>4.214132</ele>
        <time>2026-03-20T15:15:44.082Z</time>
      </trkpt>
      <trkpt lat="53.101282" lon="8.874004">
        <ele>4.200943</ele>
        <time>2026-03-20T15:15:47.176Z</time>
      </trkpt>
      <trkpt lat="53.101303" lon="8.874785">
        <ele>4.164316</ele>
        <time>2026-03-20T15:15:57.753Z</time>
      </trkpt>
      <trkpt lat="53.101312" lon="8.875156">
        <ele>4.186208</ele>
        <time>2026-03-20T15:16:02.846Z</time>
      </trkpt>
      <trkpt lat="53.101332" lon="8.876001">
        <ele>4.236067</ele>
        <time>2026-03-20T15:16:15.294Z</time>
      </trkpt>
      <trkpt lat="53.101332" lon="8.876406">
        <ele>4.259945</ele>
        <time>2026-03-20T15:16:21.212Z</time>
      </trkpt>
      <trkpt lat="53.101333" lon="8.877158">
        <ele>4.304283</ele>
        <time>2026-03-20T15:16:31.240Z</time>
      </trkpt>
      <trkpt lat="53.101335" lon="8.877637">
        <ele>4.332525</ele>
        <time>2026-03-20T15:16:37.756Z</time>
      </trkpt>
      <trkpt lat="53.101335" lon="8.877823">
        <ele>4.381104</ele>
        <time>2026-03-20T15:16:40.464Z</time>
      </trkpt>
      <trkpt lat="53.101338" lon="8.878684">
        <ele>4.695212</ele>
        <time>2026-03-20T15:16:53.690Z</time>
      </trkpt>
      <trkpt lat="53.101338" lon="8.878814">
        <ele>4.742638</ele>
        <time>2026-03-20T15:16:55.770Z</time>
      </trkpt>
      <trkpt lat="53.101344" lon="8.879358">
        <ele>4.941129</ele>
        <time>2026-03-20T15:17:04.472Z</time>
      </trkpt>
      <trkpt lat="53.101319" lon="8.879549">
        <ele>5.012445</ele>
        <time>2026-03-20T15:17:08.245Z</time>
      </trkpt>
      <trkpt lat="53.101303" lon="8.879853">
        <ele>5.123773</ele>
        <time>2026-03-20T15:17:14.058Z</time>
      </trkpt>
      <trkpt lat="53.101300" lon="8.879948">
        <ele>5.158478</ele>
        <time>2026-03-20T15:17:15.894Z</time>
      </trkpt>
      <trkpt lat="53.101279" lon="8.880568">
        <ele>5.385021</ele>
        <time>2026-03-20T15:17:28.145Z</time>
      </trkpt>
      <trkpt lat="53.101278" lon="8.880595">
        <ele>5.394890</ele>
        <time>2026-03-20T15:17:28.677Z</time>
      </trkpt>
      <trkpt lat="53.101269" lon="8.880771">
        <ele>5.436441</ele>
        <time>2026-03-20T15:17:32.212Z</time>
      </trkpt>
      <trkpt lat="53.101236" lon="8.880964">
        <ele>5.454183</ele>
        <time>2026-03-20T15:17:36.119Z</time>
      </trkpt>
      <trkpt lat="53.101228" lon="8.881013">
        <ele>5.458672</ele>
        <time>2026-03-20T15:17:37.114Z</time>
      </trkpt>
      <trkpt lat="53.101076" lon="8.881709">
        <ele>5.524150</ele>
        <time>2026-03-20T15:17:50.876Z</time>
      </trkpt>
      <trkpt lat="53.101067" lon="8.881965">
        <ele>5.546822</ele>
        <time>2026-03-20T15:17:55.549Z</time>
      </trkpt>
      <trkpt lat="53.100916" lon="8.882369">
        <ele>5.588895</ele>
        <time>2026-03-20T15:18:02.304Z</time>
      </trkpt>
      <trkpt lat="53.100893" lon="8.882430">
        <ele>5.595263</ele>
        <time>2026-03-20T15:18:03.313Z</time>
      </trkpt>
      <trkpt lat="53.100847" lon="8.882554">
        <ele>5.608150</ele>
        <time>2026-03-20T15:18:05.353Z</time>
      </trkpt>
      <trkpt lat="53.100684" lon="8.882987">
        <ele>5.653334</ele>
        <time>2026-03-20T15:18:12.203Z</time>
      </trkpt>
      <trkpt lat="53.100646" lon="8.883089">
        <ele>5.663947</ele>
        <time>2026-03-20T15:18:13.781Z</time>
      </trkpt>
      <trkpt lat="53.100607" lon="8.883193">
        <ele>5.674788</ele>
        <time>2026-03-20T15:18:15.371Z</time>
      </trkpt>
      <trkpt lat="53.100527" lon="8.883407">
        <ele>5.693972</ele>
        <time>2026-03-20T15:18:18.605Z</time>
      </trkpt>
      <trkpt lat="53.100233" lon="8.884272">
        <ele>5.693972</ele>
        <time>2026-03-20T15:18:31.465Z</time>
      </trkpt>
      <trkpt lat="53.100187" lon="8.884418">
        <ele>5.693972</ele>
        <time>2026-03-20T15:18:33.767Z</time>
      </trkpt>
      <trkpt lat="53.100135" lon="8.884581">
        <ele>5.693972</ele>
        <time>2026-03-20T15:18:36.340Z</time>
      </trkpt>
      <trkpt lat="53.099930" lon="8.885243">
        <ele>5.693972</ele>
        <time>2026-03-20T15:18:46.788Z</time>
      </trkpt>
      <trkpt lat="53.099820" lon="8.885586">
        <ele>5.693972</ele>
        <time>2026-03-20T15:18:51.999Z</time>
      </trkpt>
      <trkpt lat="53.099723" lon="8.885887">
        <ele>5.693972</ele>
        <time>2026-03-20T15:18:56.549Z</time>
      </trkpt>
      <trkpt lat="53.099683" lon="8.886010">
        <ele>5.693972</ele>
        <time>2026-03-20T15:18:58.465Z</time>
      </trkpt>
      <trkpt lat="53.099493" lon="8.886593">
        <ele>5.693972</ele>
        <time>2026-03-20T15:19:07.450Z</time>
      </trkpt>
      <trkpt lat="53.099467" lon="8.886673">
        <ele>5.693972</ele>
        <time>2026-03-20T15:19:08.725Z</time>
      </trkpt>
      <trkpt lat="53.099356" lon="8.887015">
        <ele>5.693972</ele>
        <time>2026-03-20T15:19:14.114Z</time>
      </trkpt>
      <trkpt lat="53.099426" lon="8.887200">
        <ele>5.693972</ele>
        <time>2026-03-20T15:19:17.057Z</time>
      </trkpt>
    </trkseg>
  </trk>
</gpx>